     2              OBSERVATION DATA    GPS                 RINEX VERSION / TYPE
ASHTORIN 17 - APR - 99 08:35                                PGM / RUN BY / DATE
                                                            COMMENT
Original Marker Name: SIO2                                  COMMENT
Campaign Name: rose canyon fault                            COMMENT
4-Character Station Name: SIO2                              COMMENT
6-Character Antenna Code: DMRCHT                            COMMENT
Vertical Measurement Point: BPA                             COMMENT
Vertical Offset to Rinex Ref. Point: 0.0000                 COMMENT
Radial Measurement Point: RRP                               COMMENT
Radial Offset to Rinex Ref. Point: 0.0000                   COMMENT
Antenna Height from Field Measurement: 0.0000 m             COMMENT
Additional Antenna Identification Info.:                    COMMENT
Turborogue and Ashtech Choke Ring                           COMMENT
Original XYZ: 0.0000 0.0000 0.0000                          COMMENT
New XYZ position is based on association with SCEC monument COMMENT
E1C8P4W3+0401. Position of that monument is believed to be  COMMENT
valid to within 1 m horizontally; vertical accuracy         COMMENT
should be no worse than 3-times this value.                 COMMENT
                                                            COMMENT
Revised Rinex header created by UCSD GPS archive for        COMMENT
GSAC on 03-Sep-1999 (1999:246) 21:45:15 GMT                 COMMENT
For assistance contact dagnew@ucsd.edu or hjohnson@ucsd.edu COMMENT
                                                            COMMENT
SIO LIBRARY WALL - NORTH                                    MARKER NAME
                                                            MARKER NUMBER
SJB SCRIPPS INSTITUTION OF OCEANOGRAPHY                     OBSERVER / AGENCY
755 ASHTECH Z12-XII3 1F501D0                                REC # / TYPE / VERS
409 DORNE-MARGOL. TYPE T                                    ANT # / TYPE
 -2455539.0000 -4767224.0000  3441629.0000                  APPROX POSITION XYZ
        0.0000        0.0000        0.0000                  ANTENNA: DELTA H/E/N
     1     1     0                                          WAVELENGTH FACT L1/2
     7    L1    L2    C1    P1    P2    D1    D2            # / TYPES OF OBSERV
    30                                                      INTERVAL
  1999     4    10     0     0   30.000000                  TIME OF FIRST OBS
  1999     4    10    14     3   30.000000                  TIME OF LAST OBS
                                                            END OF HEADER
 99  4 10  0  0 30.0000000  0  7  6 10 17 22 23  5 30                0.000000000
 -17555221.501 9 -13667452.72149  20447625.132    20447625.1334   20447633.4404
        -0.000          -0.000
  -9010051.864 7  -6739542.63445  22774887.155    22774886.3374   22774895.6524
        -0.000          -0.000
 -19430064.205 9 -14101894.82348  22022110.530    22022109.9414   22022120.2634
        -0.000          -0.000
  -2544066.816 8  -1728751.19745  24519812.375    24519812.0984   24519826.7594
        -0.000          -0.000
 -10633305.321 9  -6529389.25146  23255186.830    23255186.2694   23255202.2764
        -0.000          -0.000
  -3968973.632 9  -3070067.79246  23806508.169    23806507.7264   23806523.1034
        -0.000          -0.000
 -19899220.909 9 -13902729.42548  21649148.280    21649148.5464   21649158.7634
        -0.000          -0.000
 99  4 10  0  1  0.0000000  0  7  6 10 17 22 23  5 30                0.000000034
 -17583857.409 9 -13689766.38849  20442176.012    20442175.9364   20442184.1854
        -0.000          -0.000
  -8920111.34617  -6669459.19844  22792001.679    22792002.0255   22792010.2874
        -0.000          -0.000
 -19477475.731 9 -14138838.77448  22013088.222    22013087.7164   22013097.9594
        -0.000          -0.000
  -2618688.583 8  -1786897.90845  24505612.423    24505611.9284   24505626.3204
        -0.000          -0.000
 -10729329.121 9  -6604212.67946  23236913.982    23236913.4304   23236929.2594
        -0.000          -0.000
  -3862678.864 9  -2987240.95146  23826735.751    23826735.3334   23826750.6054
        -0.000          -0.000
 -19821429.689 9 -13842112.96248  21663951.430    21663951.7384   21663961.9774
        -0.000          -0.000
 99  4 10  0  1 30.0000000  0  7  6 10 17 22 23  5 30                0.000000047
 -17612187.372 9 -13711841.66649  20436784.918    20436784.8384   20436793.1264
        -0.000          -0.000
  -8829887.226 8  -6599154.80144  22809171.493    22809171.0084   22809179.2924
        -0.000          -0.000
 -19524720.847 9 -14175653.04848  22004097.811    22004097.1814   22004107.4014
        -0.000          -0.000
  -2692954.979 8  -1844767.75245  24491480.066    24491479.4224   24491493.4674
        -0.000          -0.000
 -10825135.895 9  -6678866.98546  23218682.511    23218681.8524   23218697.4634
        -0.000          -0.000
  -3756368.550 9  -2904401.98246  23846966.260    23846965.9084   23846981.0494
        -0.000          -0.000
 -19743269.367 9 -13781208.88348  21678824.883    21678825.2214   21678835.3694
        -0.000          -0.000
 99  4 10  0  2  0.0000000  0  7  6 10 17 22 23  5 30                0.000000060
 -17640201.552 9 -13733670.86949  20431453.999    20431453.9394   20431462.2184
        -0.000          -0.000
  -8739410.462 8  -6528653.51054  22826389.760    22826389.1664          0.0005
        -0.000          -0.000
 -19571799.502 9 -14212337.61948  21995138.931    21995138.2934   21995148.4794
        -0.000          -0.000
  -2766889.213 8  -1902378.73445  24477411.129    24477410.2624   24477423.7724
        -0.000          -0.000
 -10920732.976 9  -6753357.88446  23200490.677    23200489.9964   23200505.5904
        -0.000          -0.000
  -3650050.046 9  -2821556.63046  23867198.460    23867198.0424   23867213.0284
        -0.000          -0.000
 -19664756.297 9 -13720029.95548  21693765.673    21693765.9584   21693775.9444
        -0.000          -0.000
 99  4 10  0  2 30.0000000  0  7  6 10 17 22 23  5 30                0.000000056
 -17667898.054 9 -13755252.54749  20426183.519    20426183.4584   20426191.7724
        -0.000          -0.000
  -8648682.939 7  -6457956.90054  22843654.885    22843654.3584          0.0005
        -0.000          -0.000
 -19618699.306 9 -14248882.83048  21986214.026    21986213.4314   21986223.5244
        -0.000          -0.000
  -2840488.073 8  -1959728.39945  24463406.099    24463405.0474   24463418.2314
        -0.000          -0.000
 -11016105.507 9  -6827673.82846  23182341.653    23182340.9804   23182356.3164
        -0.000          -0.000
  -3543722.578 9  -2738704.31446  23887432.240    23887431.6254   23887446.7824
        -0.000          -0.000
 -19585896.089 9 -13658580.53248  21708772.381    21708772.6304   21708782.7394
        -0.000          -0.000
 99  4 10  0  3  0.0000000  0  7  6 10 17 22 23  5 30                0.000000033
 -17695251.717 9 -13776567.07649  20420978.158    20420978.1114   20420986.5184
        -0.000          -0.000
  -8557704.78417  -6387065.21553         0.000           0.0005          0.0005
        -0.000          -0.000
 -19665413.523 9 -14285283.43548  21977324.532    21977323.9654   21977333.9724
        -0.000          -0.000
  -2913737.632 8  -2016805.89845  24449467.462    24449466.3164   24449479.1474
        -0.000          -0.000
 -11111250.884 9  -6901812.76946  23164235.942    23164235.2044   23164250.1834
        -0.000          -0.000
  -3437384.629 8  -2655843.83846  23907667.767    23907667.1284   23907682.5454
        -0.000          -0.000
 -19506673.880 9 -13596849.02448  21723847.786    21723848.1234   21723858.2654
        -0.000          -0.000
 99  4 10  0  3 30.0000000  0  7  6 10 17 22 23  5 30                0.000000001
 -17722227.826 9 -13797587.39849  20415844.754    20415844.7254   20415853.0344
        -0.000          -0.000
  -8466468.516 7   4003883.72342         0.000           0.0004          0.0004
        -0.000          -0.000
 -19711910.521 9 -14321514.76448  21968476.468    21968475.8814   21968485.7894
        -0.000          -0.000
  -2986618.226 8  -2073595.85445  24435599.066    24435597.8174   24435610.3014
        -0.000          -0.000
 -11206145.070 9  -6975755.96846  23146177.716    23146177.0974   23146192.0394
        -0.000          -0.000
  -3331002.443 8  -2572948.86946  23927911.089    23927910.6634   23927926.5874
        -0.000          -0.000
 -19427058.562 9 -13534811.18748  21738997.897    21738998.3154   21739008.6094
        -0.000          -0.000
 99  4 10  0  4  0.0000000  0  7  6 10 17 22 23  5 30               -0.000000018
 -17748786.890 9 -13818282.74949  20410790.741    20410790.7244   20410798.8654
        -0.000          -0.000
  -8374936.726 7   4075204.24042         0.000           0.0004          0.0004
        -0.000          -0.000
 -19758158.812 9 -14357552.30348  21959675.649    21959675.0044   21959684.9054
        -0.000          -0.000
  -3059093.988 8  -2130070.37245  24421807.335    24421806.2564   24421818.5144
        -0.000          -0.000
 -11300748.236 9  -7049472.41846  23128174.801    23128174.3394   23128189.3904
        -0.000          -0.000
  -3224545.993 8  -2489996.03645  23948168.513    23948168.3684   23948184.7204
        -0.000          -0.000
 -19347014.952 9 -13472439.61848  21754229.680    21754230.0804   21754240.4734
        -0.000          -0.000
 99  4 10  0  4 30.0000000  0  7  6 10 17 22 23  5 30               -0.000000031
 -17774956.188 9 -13838674.38549  20405810.925    20405810.9014   20405818.9714
        -0.000          -0.000
  -8283130.32217   4146729.91152         0.000           0.0005          0.0005
        -0.000          -0.000
 -19804202.367 9 -14393430.30648  21950913.608    21950913.0094   21950922.9734
        -0.000          -0.000
  -3131172.209 9  -2186235.16745  24408091.232    24408090.2314   24408102.1814
        -0.000          -0.000
 -11395078.352 9  -7122976.10046  23110223.892    23110223.5664   23110238.7554
        -0.000          -0.000
  -3118056.223 8  -2407017.20645  23968432.662    23968432.5504   23968449.0424
        -0.000          -0.000
 -19266575.589 9 -13409759.66948  21769536.778    21769537.1434   21769547.5914
        -0.000          -0.000
 99  4 10  0  5  0.0000000  0  7  6 10 17 22 23  5 30               -0.000000036
 -17800731.315 9 -13858758.86749  20400906.111    20400906.0674   20400914.0744
        -0.000          -0.000
  -8191046.20617   4030074.12152         0.000           0.0005          0.0005
        -0.000          -0.000
 -19850029.961 9 -14429140.02648  21942192.715    21942192.2164   21942202.2674
        -0.000          -0.000
  -3202851.021 9  -2242088.68945  24394451.360    24394450.2844   24394461.9994
        -0.000          -0.000
 -11489123.690 9  -7196257.90446  23092327.248    23092326.9054   23092342.2124
        -0.000          -0.000
  -3011528.778 9  -2324009.09145  23988704.566    23988704.1554   23988720.7024
        -0.000          -0.000
 -19185739.606 9 -13346770.66648  21784919.257    21784919.6644   21784930.3544
        -0.000          -0.000
 99  4 10  0  5 30.0000000  0  7  6 10 17 22 23  5 30               -0.000000038
 -17826140.299 9 -13878558.05849  20396070.917    20396070.8944   20396078.9174
        -0.000          -0.000
  -8098694.463 8   4102036.96942         0.000           0.0004          0.0004
        -0.000          -0.000
 -19895650.224 9 -14464688.18548  21933511.429    21933510.9174   21933520.9964
        -0.000          -0.000
  -3274145.137 8  -2297642.45345  24380884.539    24380883.5454   24380895.2054
        -0.000          -0.000
 -11582902.215 9  -7269331.78146  23074481.786    23074481.3304   23074496.4084
        -0.000          -0.000
  -2904983.412 8  -2240986.96945  24008979.773    24008979.1694   24008995.6194
        -0.000          -0.000
 -19104545.785 9 -13283502.83348  21800370.023    21800370.3874   21800381.2604
        -0.000          -0.000
 99  4 10  0  6  0.0000000  0  7  6 10 17 22 23  5 30               -0.000000030
 -17851186.028 9 -13898074.18749  20391304.842    20391304.8334   20391312.9234
        -0.000          -0.000
  -8006061.598 8   4174220.75152         0.000           0.0004          0.0005
        -0.000          -0.000
 -19941060.671 9 -14500072.85048  21924869.923    21924869.4494   21924879.5844
        -0.000          -0.000
  -3345043.470 9  -2352887.83445  24367393.001    24367392.0854   24367403.6574
        -0.000          -0.000
 -11676417.064 9  -7342200.22146  23056686.227    23056686.0184   23056700.8134
        -0.000          -0.000
  -2798421.026 8  -2157951.61045  24029258.582    24029257.9904   24029274.0404
        -0.000          -0.000
 -19022995.463 9 -13219957.21748  21815888.664    21815888.9944   21815899.9204
        -0.000          -0.000
 99  4 10  0  6 30.0000000  0  7  6 10 17 22 23  5 30               -0.000000042
 -17875915.375 9 -13917343.78649  20386598.992    20386598.9614   20386607.1334
        -0.000          -0.000
  -7913198.615 8   4246583.83252         0.000           0.0004          0.0005
        -0.000          -0.000
 -19986295.740 9 -14535320.86848  21916261.822    21916261.3584   21916271.6284
        -0.000          -0.000
  -3415596.311 8  -2407863.95645  24353967.022    24353966.2314   24353977.8574
        -0.000          -0.000
 -11769721.468 9  -7414904.68647  23038931.172    23038930.8404   23038945.2004
        -0.000          -0.000
  -2691875.094 8  -2074929.05545  24049533.843    24049533.3054   24049549.5024
        -0.000          -0.000
 -18941130.023 9 -13156166.03248  21831467.129    21831467.5004   21831478.4054
        -0.000          -0.000
 99  4 10  0  7  0.0000000  0  7  6 10 17 22 23  5 30               -0.000000052
 -17900287.677 9 -13936335.16849  20381961.037    20381961.0124   20381969.2794
        -0.000          -0.000
  -7820070.202 8   4128741.46742         0.000           0.0004          0.0004
        -0.000          -0.000
 -20031315.735 9 -14570401.29148  21907694.662    21907694.3294   21907704.6364
        -0.000          -0.000
  -3485766.470 9  -2462541.89145  24340613.693    24340613.1844   24340625.0244
        -0.000          -0.000
 -11862789.391 9  -7487424.86847  23021221.008    23021220.5014   23021234.4684
        -0.000          -0.000
  -2585306.280 8  -1991888.67145  24069813.262    24069812.7454   24069829.3184
        -0.000          -0.000
 -18858917.256 9 -13092104.22348  21847111.638    21847112.0694   21847122.9544
        -0.000          -0.000
 99  4 10  0  7 30.0000000  0  7  6 10 17 22 23  5 30               -0.000000067
 -17924312.210 9 -13955055.55549  20377389.296    20377389.2974   20377397.5054
        -0.000          -0.000
  -7726701.071 8   4201496.34952         0.000           0.0004          0.0005
        -0.000          -0.000
 -20076159.882 9 -14605344.68948  21899161.028    21899160.6774   21899171.1454
        -0.000          -0.000
  -3555555.092 9  -2516922.55445  24327333.115    24327332.6884   24327344.7404
        -0.000          -0.000
 -11955643.805 9  -7559778.67347  23003551.178    23003550.6454   23003564.3714
        -0.000          -0.000
  -2478742.691 9  -1908852.35945  24090091.657    24090091.2364   24090108.2304
        -0.000          -0.000
 -18776371.783 9 -13027783.14448  21862819.512    21862819.9354   21862830.8814
        -0.000          -0.000
 99  4 10  0  8  0.0000000  0  8  6 10 26 17 22 23  5 30            -0.000000082
 -17947963.532 9 -13973485.13249  20372888.636    20372888.6134   20372896.7674
        -0.000          -0.000
  -7633087.049 8   4274442.13242         0.000           0.0004   23036925.7414
        -0.000          -0.000
  -1136060.610 9   -864009.12042         0.000           0.0004          0.0004
        -0.000          -0.000
 -20120824.914 9 -14640148.52348  21890661.419    21890661.0914   21890671.6084
        -0.000          -0.000
  -3624942.493 8  -2570990.51845  24314128.771    24314128.2804   24314140.9574
        -0.000          -0.000
 -12048259.815 9  -7631946.72047  22985926.599    22985926.0764   22985939.7434
        -0.000          -0.000
  -2372167.459 8  -1825806.97645  24110371.967    24110371.6784   24110389.1194
        -0.000          -0.000
 -18693458.189 9 -12963175.23048  21878597.267    21878597.7724   21878608.7844
        -0.000          -0.000
 99  4 10  0  8 30.0000000  0  8  6 10 26 17 22 23  5 30            -0.000000085
 -17971239.511 9 -13991622.23349  20368459.425    20368459.3894   20368467.5414
        -0.000          -0.000
  -7539232.33118   4347575.68444         0.000           0.0005   23054788.6884
        -0.000          -0.000
  -1209082.052 8   -920907.98352         0.000           0.0004          0.0005
        -0.000          -0.000
 -20165316.314 9 -14674817.05748  21882194.982    21882194.6324   21882204.9524
        -0.000          -0.000
  -3693908.207 8  -2624729.89945  24301004.301    24301003.9564   24301017.6274
        -0.000          -0.000
 -12140631.655 9  -7703924.50947  22968348.562    22968347.9744   22968361.6614
        -0.000          -0.000
  -2265574.348 8  -1742747.61145  24130655.815    24130655.5554   24130673.5074
        -0.000          -0.000
 -18610186.167 9 -12898288.02248  21894443.339    21894443.9414   21894454.9454
        -0.000          -0.000
 99  4 10  0  9  0.0000000  0  8  6 10 26 17 22 23  5 30            -0.000000083
 -17994163.703 9 -14009485.22549  20364097.049    20364097.0294   20364105.2104
        -0.000          -0.000
  -7445163.668 8   4420875.86144  23072677.602    23072667.4304   23072686.8354
        -0.000          -0.000
  -1281854.756 8   -977613.05652         0.000           0.0004          0.0005
        -0.000          -0.000
 -20209653.046 9 -14709365.06348  21873758.113    21873757.6734   21873767.7374
        -0.000          -0.000
  -3762458.181 8  -2678145.34245  24287959.321    24287959.0764   24287973.2704
        -0.000          -0.000
 -12232767.651 9  -7775718.52047  22950815.575    22950814.9124   22950828.6454
        -0.000          -0.000
  -2158984.001 8  -1659690.46945  24150939.279    24150938.9534   24150957.1534
        -0.000          -0.000
 -18526590.420 9 -12833148.56948  21910351.259    21910351.8794   21910362.6554
        -0.000          -0.000
 99  4 10  0  9 30.0000000  0  8  6 10 26 17 22 23  5 30            -0.000000045
 -18016708.008 9 -14027052.19949  20359806.951    20359806.9694   20359815.0524
        -0.000          -0.000
  -7350856.706 8   4494361.72544  23090623.161    23090609.8294   23090632.6374
        -0.000          -0.000
  -1354336.475 8   -826685.89842         0.000           0.0004          0.0004
        -0.000          -0.000
 -20253795.575 9 -14743761.75848  21865358.045    21865357.5484   21865367.5434
        -0.000          -0.000
  -3830564.832 8  -2731215.38045  24274999.115    24274998.8284   24275012.9044
        -0.000          -0.000
 -12324616.846 9  -7847289.05747  22933336.932    22933336.3324   22933350.1284
        -0.000          -0.000
  -2052365.228 8  -1576611.14445  24171228.421    24171228.0564   24171246.1884
        -0.000          -0.000
 -18442640.404 9 -12767733.05748  21926326.746    21926327.3194   21926337.8494
        -0.000          -0.000
 99  4 10  0 10  0.0000000  0  8  6 10 26 17 22 23  5 30            -0.000000017
 -18038917.253 9 -14044358.08449  20355580.716    20355580.6854   20355588.6854
        -0.000          -0.000
  -7256354.909 7   4567999.39344  23108605.842    23108605.2554   23108615.9864
        -0.000          -0.000
  -1426557.786 8   -882959.51252         0.000           0.0004          0.0005
        -0.000          -0.000
 -20297778.417 9 -14778034.02248  21856988.080    21856987.7024   21856997.8144
        -0.000          -0.000
  -3898277.558 8  -2783978.45345  24262113.716    24262113.4184   24262127.5934
        -0.000          -0.000
 -12416215.017 9  -7918663.96947  22915906.089    22915905.6194   22915919.3564
        -0.000          -0.000
  -1945757.532 8  -1493540.45445  24191515.455    24191515.1114   24191533.0114
        -0.000          -0.000
 -18358393.269 9 -12702086.00948  21942358.769    21942359.2804   21942369.5274
        -0.000          -0.000
 99  4 10  0 10 30.0000000  0  8  6 10 26 17 22 23  5 30             0.000000013
 -18060782.269 9 -14061395.73449  20351419.951    20351419.8954   20351427.8554
        -0.000          -0.000
  -7161651.627 8   4641794.09344  23126626.878    23126625.2394   23126637.7804
        -0.000          -0.000
  -1498528.648 8   -939037.23152         0.000           0.0004          0.0005
        -0.000          -0.000
 -20341592.238 9 -14812174.57748  21848650.592    21848650.2044   21848660.1244
        -0.000          -0.000
  -3965591.167 8  -2836430.51445  24249304.283    24249304.0064   24249318.2444
        -0.000          -0.000
 -12507550.599 9  -7989834.28547  22898525.455    22898524.9314   22898538.4704
        -0.000          -0.000
  -1839162.529 8  -1410479.63945  24211800.033    24211799.7594   24211817.4024
        -0.000          -0.000
 -18273866.251 9 -12636220.87848  21958444.033    21958444.5054   21958454.5334
        -0.000          -0.000
 99  4 10  0 11  0.0000000  0  8  6 10 26 17 22 23  5 30             0.000000038
 -18082280.556 9 -14078147.62749  20347328.909    20347328.8474   20347336.8994
        -0.000          -0.000
  -7066733.088 8   4715756.53745  23144689.159    23144688.2454   23144700.1044
        -0.000          -0.000
  -1570251.300 8   -789561.16942         0.000           0.0004          0.0004
        -0.000          -0.000
 -20385223.926 9 -14846173.20948  21840347.892    21840347.3324   21840357.1004
        -0.000          -0.000
  -4032512.916 8  -2888577.24946  24236569.275    24236569.1124   24236583.6174
        -0.000          -0.000
 -12598593.159 9  -8060776.23747  22881200.311    22881199.8164   22881213.3414
        -0.000          -0.000
  -1732581.467 8  -1327429.69945  24232081.999    24232081.8884   24232099.0924
        -0.000          -0.000
 -18189046.150 9 -12570127.38248  21974584.976    21974585.4114   21974595.3404
        -0.000          -0.000
 99  4 10  0 11 30.0000000  0  8  6 10 26 17 22 23  5 30             0.000000055
 -18103408.369 9 -14094610.84549  20343308.388    20343308.3414   20343316.4624
        -0.000          -0.000
  -6971585.118 8   4789897.69245  23162795.179    23162794.7504   23162806.0904
        -0.000          -0.000
  -1641729.529 8   -845258.25052         0.000           0.0004          0.0005
        -0.000          -0.000
 -20428676.402 9 -14880032.20648  21832079.169    21832078.5674   21832088.3344
        -0.000          -0.000
  -4099055.516 8  -2940428.50446  24223906.429    24223906.2894   24223920.9414
        -0.000          -0.000
 -12689345.797 9  -8131492.29447  22863930.281    22863929.8214   22863943.5124
        -0.000          -0.000
  -1626018.002 8  -1244393.47845  24252360.781    24252360.4394   24252377.3324
        -0.000          -0.000
 -18103925.782 9 -12503799.90648  21990782.916    21990783.3184   21990793.2504
        -0.000          -0.000
 99  4 10  0 12  0.0000000  0  8  6 10 26 17 22 23  5 30             0.000000076
 -18124161.736 9 -14110782.28549  20339359.131    20339359.0754   20339367.2324
        -0.000          -0.000
  -6876195.003 8   4864227.59645  23180947.815    23180947.0044   23180957.8724
        -0.000          -0.000
  -1712948.640 8   -900753.27752         0.000           0.0004   22899822.3595
        -0.000          -0.000
 -20471936.584 9 -14913741.36548  21823847.004    21823846.4064   21823856.0894
        -0.000          -0.000
  -4165199.936 8  -2991969.49346  24211319.602    24211319.4034   24211333.8904
        -0.000          -0.000
 -12779811.915 9  -8201985.07547  22846714.894    22846714.4004   22846728.3014
        -0.000          -0.000
  -1519458.674 9  -1161360.44445  24272638.779    24272638.5704   24272655.0354
        -0.000          -0.000
 -18018502.097 9 -12437236.07848  22007038.423    22007038.8444   22007048.9704
        -0.000          -0.000
 99  4 10  0 12 30.0000000  0  8  6 10 26 17 22 23  5 30             0.000000084
 -18144565.578 9 -14126681.36449  20335476.332    20335476.2834   20335484.4834
        -0.000          -0.000
  -6780583.929 8   4938729.68145  23199142.565    23199141.5674   23199151.9734
        -0.000          -0.000
  -1783928.377 8   -956061.98145  22886302.757    22886300.3544   22886314.5574
        -0.000          -0.000
 -20515018.106 9 -14947311.30348  21815648.659    21815648.1214   21815657.7134
        -0.000          -0.000
  -4230970.170 9  -3043218.94446  24198803.923    24198803.7564   24198818.1974
        -0.000          -0.000
 -12870022.556 9  -8272278.79247  22829548.035    22829547.5934   22829561.6354
        -0.000          -0.000
  -1412929.917 9  -1078351.23945  24292911.123    24292910.8674   24292927.0264
        -0.000          -0.000
 -17932791.095 9 -12370448.37148  22023348.549    22023348.9934   22023359.3144
        -0.000          -0.000
 99  4 10  0 13  0.0000000  0  8  6 10 26 17 22 23  5 30             0.000000100
 -18164608.045 9 -14142298.85549  20331662.265    20331662.2534   20331670.5474
        -0.000          -0.000
  -6684730.093 8   5013420.88744  23217383.374    23217382.0604   23217392.2484
        -0.000          -0.000
  -1854615.485 8  -1011142.80645  22872850.826    22872849.5364   22872862.9534
        -0.000          -0.000
 -20557892.446 9 -14980719.79048  21807490.009    21807489.4494   21807498.8134
        -0.000          -0.000
  -4296341.638 9  -3094157.63946  24186364.469    24186364.1984   24186378.2514
        -0.000          -0.000
 -12959966.997 9  -8342365.07747  22812431.802    22812431.4424   22812445.6514
        -0.000          -0.000
  -1306407.782 9   -995347.18445  24313182.007    24313181.8334   24313197.7124
        -0.000          -0.000
 -17846759.012 9 -12303410.49348  22039719.794    22039720.3394   22039730.6544
        -0.000          -0.000
 99  4 10  0 13 30.0000000  0  8  6 10 26 17 22 23  5 30             0.000000102
 -18184341.242 9 -14157675.36149  20327907.178    20327907.1534   20327915.4364
        -0.000          -0.000
  -6588681.919 7   5088263.55944  23235660.560    23235659.4684   23235669.6514
        -0.000          -0.000
  -1925035.652 8  -1066015.50845  22859449.984    22859451.0614   22859461.6844
        -0.000          -0.000
 -20600605.756 9 -15014002.81748  21799362.031    21799361.4364   21799370.8374
        -0.000          -0.000
  -4361344.125 9  -3144808.79146  24173995.094    24173994.5024   24174008.6034
        -0.000          -0.000
 -13049705.071 9  -8412290.56847  22795354.857    22795354.6244   22795368.8224
        -0.000          -0.000
  -1199944.893 9   -912389.30945  24333441.570    24333441.3684   24333457.2894
        -0.000          -0.000
 -17760449.584 9 -12236156.48948  22056144.179    22056144.6784   22056154.8534
        -0.000          -0.000
 99  4 10  0 14  0.0000000  0  8  6 10 26 17 22 23  5 30             0.000000090
 -18203745.137 9 -14172795.26049  20324214.817    20324214.7594   20324222.9194
        -0.000          -0.000
  -6492450.790 8   5163248.81345  23253972.448    23253972.0514   23253982.1734
        -0.000          -0.000
  -1995179.386 8  -1120672.73245  22846102.080    22846102.6544   22846114.6284
        -0.000          -0.000
 -20643161.955 9 -15047163.41748  21791263.805    21791263.1834   21791272.7204
        -0.000          -0.000
  -4425955.532 9  -3195155.21846  24161700.177    24161699.3434   24161713.0574
        -0.000          -0.000
 -13139222.679 9  -8482044.26547  22778320.192    22778319.8184   22778333.9414
        -0.000          -0.000
  -1093558.768 8   -829491.25545  24353686.708    24353686.2334   24353702.1704
        -0.000          -0.000
 -17673852.912 9 -12168678.65948  22072623.232    22072623.6804   22072633.7224
        -0.000          -0.000
 99  4 10  0 14 30.0000000  0  8  6 10 26 17 22 23  5 30             0.000000071
 -18222775.843 9 -14187624.35949  20320593.409    20320593.3264   20320601.4364
        -0.000          -0.000
  -6396012.551 7   5238395.44545  23272323.870    23272323.2694   23272333.6884
        -0.000          -0.000
  -2065020.733 7  -1175094.43845  22832810.905    22832811.0674   22832824.0844
        -0.000          -0.000
 -20685538.665 9 -15080184.15848  21783199.734    21783199.1354   21783208.7214
        -0.000          -0.000
  -4490155.037 9  -3245180.68345  24149483.488    24149482.6804   24149496.0574
        -0.000          -0.000
 -13228486.872 9  -8551600.49747  22761333.927    22761333.3674   22761347.3214
        -0.000          -0.000
   -987227.731 9   -746636.14045  24373921.193    24373920.5464   24373936.5874
        -0.000          -0.000
 -17586929.144 9 -12100945.93048  22089164.472    22089164.8694   22089174.9484
        -0.000          -0.000
 99  4 10  0 15  0.0000000  0  8  6 10 26 17 22 23  5 30             0.000000061
 -18241406.218 9 -14202141.51949  20317048.103    20317048.0614   20317056.1684
        -0.000          -0.000
  -6299350.446 7   5313716.55944  23290717.756    23290717.0334   23290727.9274
        -0.000          -0.000
  -2134536.495 8  -1229262.37345  22819582.033    22819582.2924   22819595.4464
        -0.000          -0.000
 -20727728.080 9 -15113058.94448  21775171.504    21775170.7634   21775180.3974
        -0.000          -0.000
  -4553914.326 9  -3294863.16346  24137351.022    24137350.2184   24137362.8824
        -0.000          -0.000
 -13317460.992 9  -8620930.71547  22744402.401    22744401.8694   22744415.6804
        -0.000          -0.000
   -880933.577 8   -663809.75145  24394148.500    24394147.8824   24394164.0194
        -0.000          -0.000
 -17499665.708 9 -12032948.54448  22105770.049    22105770.5144   22105780.7124
        -0.000          -0.000
 99  4 10  0 15 30.0000000  0  8  6 10 26 17 22 23  5 30             0.000000041
 -18259637.965 9 -14216348.05249  20313578.663    20313578.6324   20313586.7314
        -0.000          -0.000
  -6202490.154 7   5389192.01044  23309149.241    23309148.8234   23309160.3544
        -0.000          -0.000
  -2203760.882 8  -1283203.19145  22806409.244    22806409.3314   22806422.0434
        -0.000          -0.000
 -20769753.641 9 -15145806.06548  21767174.091    21767173.4194   21767183.2544
        -0.000          -0.000
  -4617251.387 9  -3344216.58746  24125298.808    24125297.7944   24125310.1464
        -0.000          -0.000
 -13406155.123 9  -8690042.75947  22727524.125    22727523.7334   22727537.3424
        -0.000          -0.000
   -774698.711 8   -581029.56445  24414364.212    24414363.8074   24414380.3004
        -0.000          -0.000
 -17412091.036 9 -11964708.63448  22122434.943    22122435.4074   22122445.6994
        -0.000          -0.000
 99  4 10  0 16  0.0000000  0  8  6 10 26 17 22 23  5 30             0.000000023
 -18277448.996 9 -14230226.77049  20310189.359    20310189.3184   20310197.4044
        -0.000          -0.000
  -6105432.418 7   5464821.32044  23327618.624    23327618.0554   23327629.6644
        -0.000          -0.000
  -2272682.871 8  -1336908.49245  22793293.489    22793293.7214   22793306.7904
        -0.000          -0.000
 -20811596.370 9 -15178410.71848  21759211.551    21759210.9424   21759220.8334
        -0.000          -0.000
  -4680144.677 9  -3393224.24545  24113330.370    24113329.4404   24113341.9874
        -0.000          -0.000
 -13494556.124 9  -8758926.39447  22710701.758    22710701.4694   22710714.7204
        -0.000          -0.000
   -668486.427 8   -498266.95445  24434575.438    24434575.3454   24434592.4604
        -0.000          -0.000
 -17324198.441 9 -11896221.00248  22139160.416    22139160.8784   22139171.2384
        -0.000          -0.000
 99  4 10  0 16 30.0000000  0  8  6 10 26 17 22 23  5 30             0.000000016
 -18294850.466 9 -14243786.33549  20306877.992    20306877.9314   20306885.9934
        -0.000          -0.000
  -6008181.016 8   5540601.48745  23346125.334    23346124.7334   23346136.0704
        -0.000          -0.000
  -2341299.454 8  -1390375.82745  22780236.432    22780236.6794   22780249.6284
        -0.000          -0.000
 -20853250.554 9 -15210868.46248  21751285.081    21751284.4194   21751294.2314
        -0.000          -0.000
  -4742598.723 9  -3441889.60745  24101445.386    24101444.4884   24101457.4124
        -0.000          -0.000
 -13582674.115 9  -8827589.50747  22693933.504    22693933.1074   22693946.0054
        -0.000          -0.000
   -562271.751 8   -415502.46345  24454787.520    24454787.5234   24454804.6424
        -0.000          -0.000
 -17236011.731 9 -11827504.17747  22155941.969    22155942.3504   22155952.7404
        -0.000          -0.000
 99  4 10  0 17  0.0000000  0  8  6 10 26 17 22 23  5 30             0.000000013
 -18311859.092 9 -14257039.79149  20303641.332    20303641.2824   20303649.3014
        -0.000          -0.000
  -5910752.980 8   5616519.38045  23364665.387    23364664.8004   23364676.2774
        -0.000          -0.000
  -2409626.820 8  -1443617.80945  22767234.249    22767234.5324   22767247.1894
        -0.000          -0.000
 -20894733.692 9 -15243192.92148  21743391.043    21743390.4044   21743400.2594
        -0.000          -0.000
  -4804616.923 8  -3490215.35445  24089643.236    24089642.3894   24089655.5344
        -0.000          -0.000
 -13670500.218 9  -8896025.18247  22677220.678    22677220.2574   22677232.9424
        -0.000          -0.000
   -456074.996 8   -332751.95945  24474996.181    24474996.0344   24475013.4374
        -0.000          -0.000
 -17147551.557 9 -11758574.27047  22172775.473    22172775.8174   22172786.3084
        -0.000          -0.000
 99  4 10  0 17 30.0000000  0  8  6 10 26 17 22 23  5 30             0.000000026
 -18328445.225 9 -14269964.03949  20300485.052    20300485.0174   20300492.9874
        -0.000          -0.000
  -5813135.681 7   5692584.65044  23383241.394    23383240.6604   23383252.1384
        -0.000          -0.000
  -2477644.396 8  -1496618.33345  22754290.543    22754290.9324   22754303.8514
        -0.000          -0.000
 -20936012.249 9 -15275357.98348  21735535.817    21735535.2524   21735545.1334
        -0.000          -0.000
  -4866175.590 9  -3538183.02745  24077928.535    24077927.7084   24077941.2104
        -0.000          -0.000
 -13758010.719 9  -8964214.92347  22660567.681    22660567.3174   22660579.9804
        -0.000          -0.000
   -349875.548 8   -249999.39445  24495205.542    24495204.9844   24495222.7734
        -0.000          -0.000
 -17058795.233 9 -11689413.59647  22189665.260    22189665.5744   22189676.3334
        -0.000          -0.000
 99  4 10  0 18  0.0000000  0  8  6 10 26 17 22 23  5 30             0.000000052
 -18344633.069 9 -14282577.93349  20297404.568    20297404.5594   20297412.5414
        -0.000          -0.000
  -5715337.111 7   5768791.21844  23401851.172    23401850.5844   23401862.7584
        -0.000          -0.000
  -2545350.822 8  -1549376.35045  22741406.627    22741406.8824   22741419.4024
        -0.000          -0.000
 -20977100.308 9 -15307374.60348  21727716.858    21727716.3454   21727726.1754
        -0.000          -0.000
  -4927285.636 9  -3585801.10946  24066299.571    24066298.7484   24066312.2014
        -0.000          -0.000
 -13845206.419 9  -9032159.39147  22643974.580    22643974.2444   22643986.8244
        -0.000          -0.000
   -243687.264 8   -167255.49245  24515412.490    24515411.7434   24515430.0914
        -0.000          -0.000
 -16969759.067 9 -11620034.87547  22206608.294    22206608.6054   22206619.4874
        -0.000          -0.000
 99  4 10  0 18 30.0000000  0  8  6 10 26 17 22 23  5 30             0.000000066
 -18360446.380 9 -14294899.97449  20294395.399    20294395.3824   20294403.3864
        -0.000          -0.000
  -5617369.292 7   5845129.67644  23420494.157    23420493.6894   23420505.3414
        -0.000          -0.000
  -2612769.240 8  -1601909.95445  22728577.028    22728577.5444   22728589.5014
        -0.000          -0.000
 -21018020.931 9 -15339260.74048  21719929.801    21719929.2964   21719939.2194
        -0.000          -0.000
  -4987990.779 9  -3633103.72646  24054747.653    24054746.8654   24054760.2184
        -0.000          -0.000
 -13932104.933 9  -9099872.30647  22627438.127    22627437.8014   22627450.2084
        -0.000          -0.000
   -137566.314 8    -84564.07645  24535606.817    24535606.2024   24535624.5894
        -0.000          -0.000
 -16880479.843 9 -11550466.74247  22223597.512    22223597.9234   22223608.8524
        -0.000          -0.000
 99  4 10  0 19  0.0000000  0  8  6 10 26 17 22 23  5 30             0.000000072
 -18375866.227 9 -14306915.42949  20291461.033    20291461.0044   20291469.1044
        -0.000          -0.000
  -5519209.366 7   5921617.84044  23439173.097    23439172.7904   23439184.3364
        -0.000          -0.000
  -2679883.164 8  -1654206.38145  22715805.422    22715805.8464   22715817.8954
        -0.000          -0.000
 -21058751.426 9 -15370998.72048  21712179.059    21712178.4824   21712188.4384
        -0.000          -0.000
  -5048266.425 9  -3680071.65846  24043277.421    24043276.5864   24043289.8444
        -0.000          -0.000
 -14018682.012 9  -9167334.73047  22610962.955    22610962.5274   22610974.8774
        -0.000          -0.000
    -31525.195 8     -1934.84045  24555785.783    24555785.1144   24555803.8034
        -0.000          -0.000
 -16790936.624 9 -11480692.90747  22240637.207    22240637.5374   22240648.5304
        -0.000          -0.000
 99  4 10  0 19 30.0000000  0  8  6 10 26 17 22 23  5 30             0.000000081
 -18390869.194 9 -14318606.04549  20288606.016    20288606.0104   20288614.1674
        -0.000          -0.000
  -5420844.480 7   5998265.71344  23457891.537    23457891.0104   23457902.9724
        -0.000          -0.000
  -2746661.643 8  -1706241.44245  22703097.874    22703098.2424   22703110.4394
        -0.000          -0.000
 -21099267.841 9 -15402569.88848  21704468.991    21704468.3604   21704478.2934
        -0.000          -0.000
  -5108098.174 9  -3726693.69546  24031891.525    24031890.8494   24031903.9014
        -0.000          -0.000
 -14104949.489 9  -9234555.91547  22594546.719    22594546.2614   22594558.5574
        -0.000          -0.000
     74457.564 8     80648.92745  24575953.408    24575952.9324   24575972.2104
        -0.000          -0.000
 -16701119.970 9 -11410706.00847  22257728.820    22257729.1544   22257740.1944
        -0.000          -0.000
 99  4 10  0 20  0.0000000  0  8  6 10 26 17 22 23  5 30             0.000000084
 -18405470.247 9 -14329983.48149  20285827.528    20285827.5144   20285835.7164
        -0.000          -0.000
  -5322287.057 7   6075063.62844  23476646.236    23476646.0154   23476657.8544
        -0.000          -0.000
  -2813108.688 8  -1758018.19945  22690453.433    22690453.8064   22690466.1014
        -0.000          -0.000
 -21139586.479 9 -15433986.94248  21696796.516    21696795.9214   21696805.8454
        -0.000          -0.000
  -5167507.856 9  -3772986.81946  24020585.497    24020585.0654   24020598.4204
        -0.000          -0.000
 -14190931.740 9  -9301554.85247  22578184.881    22578184.2994   22578196.6144
        -0.000          -0.000
    180372.497 8    163179.85945  24596108.321    24596107.5784   24596127.4444
        -0.000          -0.000
 -16611039.682 9 -11340513.67847  22274870.744    22274870.9584   22274882.0264
        -0.000          -0.000
 99  4 10  0 20 30.0000000  0  8  6 10 26 17 22 23  5 30             0.000000083
 -18419645.620 9 -14341029.21549  20283130.039    20283130.0314   20283138.2234
        -0.000          -0.000
  -5223538.275 8   6152010.65644  23495438.031    23495437.4364   23495449.6574
        -0.000          -0.000
  -2879213.528 8  -1809528.32045  22677874.081    22677874.5254   22677886.5374
        -0.000          -0.000
 -21179690.962 9 -15465237.12548  21689164.755    21689164.2144   21689174.1244
        -0.000          -0.000
  -5226482.459 9  -3818940.96746  24009362.988    24009362.5244   24009375.8034
        -0.000          -0.000
 -14276625.948 9  -9368329.35447  22561877.565    22561876.9984   22561889.3694
        -0.000          -0.000
    286221.838 9    245659.67745  24616251.177    24616250.5334   24616270.2984
        -0.000          -0.000
 -16520685.295 9 -11270107.75447  22292064.654    22292064.7954   22292075.9894
        -0.000          -0.000
 99  4 10  0 21  0.0000000  0  8  6 10 26 17 22 23  5 30             0.000000066
 -18433429.536 9 -14351769.90949  20280507.027    20280507.0274   20280515.2104
        -0.000          -0.000
  -5124639.136 8   6229074.81545  23514258.247    23514257.4594   23514269.3864
        -0.000          -0.000
  -2944988.967 8  -1860781.77945  22665357.344    22665357.6604   22665370.0494
        -0.000          -0.000
 -21219621.006 9 -15496351.37148  21681566.264    21681565.7054   21681575.5054
        -0.000          -0.000
  -5285046.850 9  -3864575.45346  23998218.608    23998218.1094   23998231.2254
        -0.000          -0.000
 -14362051.259 9  -9434894.33647  22545621.086    22545620.6824   22545633.1254
        -0.000          -0.000
    391993.089 8    328078.64845  24636379.552    24636378.9694   24636397.9844
        -0.000          -0.000
 -16430074.968 9 -11199502.40847  22309307.097    22309307.3574   22309318.6184
        -0.000          -0.000
 99  4 10  0 21 30.0000000  0  8  6 10 26 17 22 23  5 30             0.000000059
 -18446769.569 9 -14362164.72849  20277968.618    20277968.5644   20277976.6064
        -0.000          -0.000
  -5025551.336 8   6306286.07245  23533114.205    23533113.4344   23533124.8724
        -0.000          -0.000
  -3010381.427 9  -1911736.76646  22652913.646    22652913.9344   22652926.0954
        -0.000          -0.000
 -21259340.163 9 -15527301.28948  21674008.011    21674007.3674   21674016.9944
        -0.000          -0.000
  -5343166.599 9  -3909863.45546  23987158.778    23987158.2064   23987171.2734
        -0.000          -0.000
 -14447163.435 9  -9501215.31147  22529424.461    22529424.1254   22529436.5934
        -0.000          -0.000
    497745.171 9    410482.68145  24656503.881    24656503.2784   24656522.1454
        -0.000          -0.000
 -16339163.763 9 -11128662.62247  22326607.113    22326607.4604   22326618.3644
        -0.000          -0.000
 99  4 10  0 22  0.0000000  0  8  6 10 26 17 22 23  5 30            -0.000000006
 -18459685.649 9 -14372229.18549  20275510.861    20275510.7964   20275518.7524
        -0.000          -0.000
  -4926270.985 8   6383647.30945  23552006.840    23552006.2164   23552017.1604
        -0.000          -0.000
  -3075391.950 9  -1962394.13446  22640542.471    22640542.7794   22640554.7114
        -0.000          -0.000
 -21298857.758 9 -15558094.15148  21666488.083    21666487.4434   21666497.0424
        -0.000          -0.000
  -5400832.389 9  -3954797.69746  23976185.542    23976184.8224   23976197.8894
        -0.000          -0.000
 -14531946.573 9  -9567279.88647  22513290.686    22513290.2044   22513302.8244
        -0.000          -0.000
    603470.191 8    492865.62345  24676623.257    24676622.6184   24676641.1184
        -0.000          -0.000
 -16247961.227 9 -11057595.82747  22343962.874    22343963.2064   22343973.5884
        -0.000          -0.000
 99  4 10  0 22 30.0000000  0  8  6 10 26 17 22 23  5 30             0.000000007
 -18472205.674 9 -14381985.03249  20273128.315    20273128.2554   20273136.3064
        -0.000          -0.000
  -4826814.036 8   6461146.15145  23570933.010    23570932.3344   23570943.1254
        -0.000          -0.000
  -3140046.046 9  -2012773.74546  22628238.972    22628239.2164   22628251.2244
        -0.000          -0.000
 -21338206.538 9 -15588755.46948  21659000.253    21658999.5974   21659009.2694
        -0.000          -0.000
  -5458049.296 9  -3999382.19646  23965298.180    23965297.1694   23965309.9854
        -0.000          -0.000
 -14616408.006 9  -9633093.81747  22497217.915    22497217.4704   22497230.1884
        -0.000          -0.000
    709136.857 8    575203.10445  24696731.539    24696730.9194   24696748.8174
        -0.000          -0.000
 -16156497.530 9 -10986325.52447  22361368.152    22361368.3684   22361378.6674
        -0.000          -0.000
 99  4 10  0 23  0.0000000  0  8  6 10 26 17 22 23  5 30             0.000000014
 -18484381.666 9 -14391472.80449  20270811.215    20270811.1604   20270819.2954
        -0.000          -0.000
  -4727218.383 8   6538753.09545  23589885.619    23589884.6644   23589895.6304
        -0.000          -0.000
  -3204398.118 9  -2062918.08346  22615993.096    22615993.4044   22616005.3724
        -0.000          -0.000
 -21377442.003 9 -15619328.51148  21651533.910    21651533.3554   21651542.9584
        -0.000          -0.000
  -5514859.279 9  -4043649.61846  23954488.047    23954486.8644   23954499.3044
        -0.000          -0.000
 -14700587.377 9  -9698687.94447  22481199.042    22481198.5614   22481211.0954
        -0.000          -0.000
    814703.685 8    657462.81145  24716820.159    24716819.3924   24716837.6884
        -0.000          -0.000
 -16064816.576 9 -10914885.93247  22378814.429    22378814.7884   22378825.0514
        -0.000          -0.000
 99  4 10  0 23 30.0000000  0  8  6 10 26 17 22 23  5 30             0.000000020
 -18496214.933 9 -14400693.51549  20268559.306    20268559.3284   20268567.4834
        -0.000          -0.000
  -4627487.436 8   6616465.41344  23608863.672    23608863.0024   23608873.8584
        -0.000          -0.000
  -3268460.297 9  -2112836.53046  22603802.387    22603802.8024   22603814.7154
        -0.000          -0.000
 -21416562.303 9 -15649811.78948  21644089.726    21644089.1394   21644098.5474
        -0.000          -0.000
  -5571235.043 9  -4087578.67846  23943760.117    23943758.9114   23943771.0754
        -0.000          -0.000
 -14784490.564 9  -9764066.87247  22465232.582    22465232.1844   22465244.5674
        -0.000          -0.000
    920167.787 8    739642.43845  24736889.286    24736888.7974   24736906.9134
        -0.000          -0.000
 -15972914.853 9 -10843274.30547  22396303.100    22396303.3214   22396313.4924
        -0.000          -0.000
 99  4 10  0 24  0.0000000  0  8  6 10 26 17 22 23  5 30             0.000000046
 -18507691.040 9 -14409635.92049  20266375.534    20266375.5704   20266383.6194
        -0.000          -0.000
  -4527612.480 8   6694290.02544  23627869.349    23627869.1664   23627879.1564
        -0.000          -0.000
  -3332210.662 9  -2162511.98546  22591671.157    22591671.4324   22591683.3324
        -0.000          -0.000
 -21455551.032 9 -15680192.53848  21636670.508    21636669.8754   21636679.2144
        -0.000          -0.000
  -5627142.742 9  -4131143.05046  23933121.196    23933120.0264   23933131.9464
        -0.000          -0.000
 -14868087.681 9  -9829207.30547  22449324.617    22449324.2064   22449336.2754
        -0.000          -0.000
   1025542.608 8    821752.50945  24756941.446    24756940.8964   24756959.2354
        -0.000          -0.000
 -15880776.924 9 -10771478.62247  22413836.563    22413836.7534   22413846.8204
        -0.000          -0.000
 99  4 10  0 24 30.0000000  0  8  6 10 26 17 22 23  5 30             0.000000058
 -18518805.764 9 -14418296.72149  20264260.540    20264260.5244   20264268.5034
        -0.000          -0.000
  -4427626.628 8   6772200.98144  23646895.960    23646895.3864   23646905.7704
        -0.000          -0.000
  -3395677.118 9  -2211966.25646  22579593.468    22579593.8334   22579605.9234
        -0.000          -0.000
 -21494419.033 9 -15710479.22748  21629274.028    21629273.4764   21629282.9544
        -0.000          -0.000
  -5682614.194 9  -4174367.47646  23922565.235    23922564.0934   23922575.9124
        -0.000          -0.000
 -14951397.564 9  -9894123.92347  22433471.369    22433470.8814   22433482.6544
        -0.000          -0.000
   1130793.234 8    903765.77745  24776969.671    24776969.4514   24776987.7674
        -0.000          -0.000
 -15788419.478 9 -10699511.89247  22431411.776    22431411.9664   22431421.9184
        -0.000          -0.000
 99  4 10  0 25  0.0000000  0  8  6 10 26 17 22 23  5 30             0.000000064
 -18529520.464 9 -14426645.82449  20262221.664    20262221.6564   20262229.5414
        -0.000          -0.000
  -4327515.733 8   6850209.39454  23665946.406    23665946.5354          0.0005
        -0.000          -0.000
  -3458825.860 9  -2261172.93646  22567576.635    22567576.9524   22567588.8994
        -0.000          -0.000
 -21533114.587 9 -15740631.54048  21621910.327    21621909.8044   21621919.5154
        -0.000          -0.000
  -5737628.522 9  -4217235.71246  23912096.048    23912094.9224   23912106.9064
        -0.000          -0.000
 -15034402.546 9  -9958802.95647  22417676.003    22417675.4574   22417687.1954
        -0.000          -0.000
   1235939.439 8    985697.70845  24796978.229    24796978.1574   24796996.3324
        -0.000          -0.000
 -15695819.784 9 -10627356.41247  22449033.040    22449033.2374   22449043.0614
        -0.000          -0.000
 99  4 10  0 25 30.0000000  0  8  6 10 26 17 22 23  5 30             0.000000072
 -18539791.426 9 -14434649.15749  20260267.126    20260267.0994   20260275.0194
        -0.000          -0.000
  -4227264.96517   6928326.80953         0.000           0.0005          0.0005
        -0.000          -0.000
  -3521606.163 9  -2310092.51546  22555630.002    22555630.1824   22555642.0434
        -0.000          -0.000
 -21571594.935 9 -15770616.14648  21614587.570    21614587.0834   21614596.9564
        -0.000          -0.000
  -5792156.894 9  -4259725.24546  23901719.411    23901718.3354   23901730.4734
        -0.000          -0.000
 -15117079.558 9 -10023226.42847  22401942.888    22401942.3784   22401954.2764
        -0.000          -0.000
   1340992.376 8   1067556.97845  24816969.636    24816969.5494   24816987.2464
        -0.000          -0.000
 -15602958.091 9 -10554996.76547  22466704.243    22466704.3844   22466714.0124
        -0.000          -0.000
 99  4 10  0 26  0.0000000  0  8  6 10 26 17 22 23  5 30             0.000000049
 -18549631.196 9 -14442316.49849  20258394.554    20258394.5454   20258402.5304
        -0.000          -0.000
  -4126897.00817   7006535.49053         0.000           0.0005          0.0005
        -0.000          -0.000
  -3584034.574 8  -2358737.88846  22543750.137    22543750.3874   22543762.0974
        -0.000          -0.000
 -21609881.174 9 -15800449.50548  21607301.742    21607301.2674   21607311.2134
        -0.000          -0.000
  -5846257.605 9  -4301881.55646  23891424.214    23891423.2114   23891435.6174
        -0.000          -0.000
 -15199452.841 9 -10087413.22747  22386267.740    22386267.1704   22386279.2054
        -0.000          -0.000
   1445912.313 8   1149312.58345  24836935.660    24836935.4854   24836953.1824
        -0.000          -0.000
 -15509873.463 9 -10482463.40847  22484417.620    22484417.7124   22484427.4774
        -0.000          -0.000
 99  4 10  0 26 30.0000000  0  8  6 10 26 17 22 23  5 30             0.000000029
 -18558982.176 9 -14449602.95449  20256615.089    20256615.1074   20256623.0164
        -0.000          -0.000
  -4026348.292 8   4531786.98042         0.000           0.0004          0.0004
        -0.000          -0.000
  -3646049.988 8  -2407061.40245  22531948.333    22531948.5384   22531960.8464
        -0.000          -0.000
 -21647919.605 9 -15830089.76148  21600063.160    21600062.6984   21600072.6504
        -0.000          -0.000
  -5899882.999 9  -4343667.51046  23881219.555    23881218.6064   23881231.0024
        -0.000          -0.000
 -15281475.904 9 -10151327.12947  22370659.182    22370658.5954   22370670.7494
        -0.000          -0.000
   1550757.406 8   1231009.85645  24856887.220    24856886.8944   24856904.6144
        -0.000          -0.000
 -15416513.852 9 -10409715.75547  22502183.132    22502183.3134   22502193.4464
        -0.000          -0.000
 99  4 10  0 27  0.0000000  0  8  6 10 26 17 22 23  5 30             0.000000017
 -18567859.330 9 -14456520.19749  20254925.867    20254925.8674   20254933.6954
        -0.000          -0.000
  -3925624.484 8   4610263.20752         0.000           0.0004          0.0005
        -0.000          -0.000
  -3707642.575 9  -2455055.48046  22520227.311    22520227.7014   22520239.9814
        -0.000          -0.000
 -21685744.357 9 -15859563.53848  21592865.080    21592864.7114   21592874.7414
        -0.000          -0.000
  -5953036.093 9  -4385085.41946  23871104.948    23871104.0084   23871116.3414
        -0.000          -0.000
 -15363158.637 9 -10214975.84547  22355115.323    22355114.6874   22355126.9494
        -0.000          -0.000
   1655527.225 8   1312648.45445  24876824.336    24876824.0714   24876841.5034
        -0.000          -0.000
 -15322901.228 9 -10336770.96747  22519996.691    22519996.9914   22520007.6934
        -0.000          -0.000
 99  4 10  0 27 30.0000000  0  8  6 10 26 17 22 23  5 30             0.000000007
 -18576289.220 9 -14463088.93849  20253321.695    20253321.6674   20253329.4894
        -0.000          -0.000
  -3824743.377 8   4688861.68052         0.000           0.0004          0.0005
        -0.000          -0.000
  -3768831.629 9  -2502735.13746  22508583.659    22508583.9424   22508595.9304
        -0.000          -0.000
 -21723407.823 9 -15888911.63248  21585697.801    21585697.4734   21585707.5744
        -0.000          -0.000
  -6005741.003 9  -4426154.12546  23861075.641    23861074.7114   23861086.6784
        -0.000          -0.000
 -15444513.171 9 -10278368.83547  22339633.587    22339633.1344   22339645.5034
        -0.000          -0.000
   1760219.084 8   1394226.35045  24896746.574    24896746.2314   24896763.4844
        -0.000          -0.000
 -15229059.220 9 -10263647.41847  22537853.901    22537854.2694   22537865.5404
        -0.000          -0.000
 99  4 10  0 28  0.0000000  0  8  6 10 26 17 22 23  5 30             0.000000003
 -18584274.443 9 -14469311.18849  20251802.075    20251802.0894   20251810.0424
        -0.000          -0.000
  -3723694.583 7   4557616.27242         0.000           0.0004          0.0004
        -0.000          -0.000
  -3829623.399 9  -2550105.19146  22497015.482    22497015.6904   22497027.3784
        -0.000          -0.000
 -21760926.312 9 -15918146.74248  21578558.202    21578557.8954   21578567.8364
        -0.000          -0.000
  -6057996.048 9  -4466872.30346  23851131.837    23851130.9554   23851142.6814
        -0.000          -0.000
 -15525528.229 9 -10341497.29447  22324216.812    22324216.4164   22324228.5964
        -0.000          -0.000
   1864865.173 8   1475768.59345  24916659.992    24916660.0354   24916676.7634
        -0.000          -0.000
 -15134993.056 9 -10190349.24047  22555754.066    22555754.4764   22555766.0244
        -0.000          -0.000
 99  4 10  0 28 30.0000000  0  8  6 10 26 17 22 23  5 30             0.000000010
 -18591817.831 9 -14475189.14249  20250366.677    20250366.6734   20250374.6584
        -0.000          -0.000
  -3622480.392 7   4636478.19252         0.000           0.0004          0.0005
        -0.000          -0.000
  -3890024.945 9  -2597171.19246  22485521.209    22485521.4184   22485533.1084
        -0.000          -0.000
 -21798304.819 9 -15947272.77548  21571445.470    21571445.1194   21571454.7934
        -0.000          -0.000
  -6109784.191 9  -4507226.64646  23841276.987    23841276.0594   23841287.3994
        -0.000          -0.000
 -15606211.048 9 -10404366.85747  22308863.433    22308862.9964   22308874.9514
        -0.000          -0.000
   1969472.752 8   1557280.77845  24936566.480    24936566.2054   24936583.6114
        -0.000          -0.000
 -15040713.547 9 -10116884.80747  22573694.991    22573695.3654   22573707.0924
        -0.000          -0.000
 99  4 10  0 29  0.0000000  0  8  6 10 26 17 22 23  5 30             0.000000021
 -18598928.954 9 -14480730.26449  20249013.524    20249013.5104   20249021.4194
        -0.000          -0.000
  -3521110.836 7   4715460.41352         0.000           0.0004          0.0005
        -0.000          -0.000
  -3950052.157 9  -2643945.51846  22474098.079    22474098.3654   22474110.0664
        -0.000          -0.000
 -21835540.997 9 -15976287.90948  21564359.706    21564359.2854   21564369.0464
        -0.000          -0.000
  -6161107.053 9  -4547218.40646  23831510.498    23831509.4594   23831520.6814
        -0.000          -0.000
 -15686570.426 9 -10466984.37547  22293571.400    22293571.0324   22293582.8894
        -0.000          -0.000
   2074027.644 8   1638751.95745  24956462.865    24956462.5604   24956480.1314
        -0.000          -0.000
 -14946228.153 9 -10043259.95447  22591675.041    22591675.4184   22591687.2914
        -0.000          -0.000
 99  4 10  0 29 30.0000000  0  8  6 10 26 17 22 23  5 30             0.000000035
 -18605627.916 9 -14485950.23849  20247738.734    20247738.7224   20247746.6424
        -0.000          -0.000
  -3419599.22017   4583397.85042         0.000           0.0005          0.0004
        -0.000          -0.000
  -4009716.174 9  -2690436.82846  22462744.445    22462744.6954   22462756.3074
        -0.000          -0.000
 -21872616.898 9 -16005178.17848  21557304.417    21557303.9994   21557313.7644
        -0.000          -0.000
  -6211970.330 9  -4586852.06046  23821831.258    23821830.3404   23821841.3084
        -0.000          -0.000
 -15766614.970 9 -10529356.58147  22278339.370    22278338.9374   22278350.5414
        -0.000          -0.000
   2178523.729 8   1720177.25745  24976348.095    24976347.7734   24976365.4414
        -0.000          -0.000
 -14851539.306 9  -9969476.53847  22609693.698    22609694.1454   22609706.1774
        -0.000          -0.000
 99  4 10  0 30  0.0000000  0  8  6 10 26 17 22 23  5 30             0.000000050
 -18611919.240 9 -14490852.56749  20246541.601    20246541.6014   20246549.4234
        -0.000          -0.000
  -3317953.558 7   4662639.96752         0.000           0.0004          0.0005
        -0.000          -0.000
  -4069012.488 9  -2736641.58546  22451460.822    22451460.9674   22451472.4954
        -0.000          -0.000
 -21909516.334 9 -16033930.93048  21550282.758    21550282.3104   21550292.0214
        -0.000          -0.000
  -6262366.543 9  -4626121.79146  23812240.881    23812240.0204   23812250.9214
        -0.000          -0.000
 -15846346.469 9 -10591484.83647  22263166.719    22263166.3114   22263177.6704
        -0.000          -0.000
   2282925.791 8   1801529.32945  24996215.559    24996215.3684   24996232.7624
        -0.000          -0.000
 -14756656.615 9  -9895542.08747  22627749.199    22627749.7554   22627761.8824
        -0.000          -0.000
 99  4 10  0 30 30.0000000  0  8  6 10 26 17 22 23  5 30             0.000000062
 -18617828.438 9 -14495457.13249  20245417.237    20245417.1794   20245424.8864
        -0.000          -0.000
  -3216199.898 7   4741975.59952         0.000           0.0004          0.0005
        -0.000          -0.000
  -4127947.524 9  -2782564.84546  22440245.634    22440245.7914   22440257.3964
        -0.000          -0.000
 -21946233.655 9 -16062541.77648  21543295.635    21543295.1674   21543304.8264
        -0.000          -0.000
  -6312301.925 8  -4665032.39746  23802737.973    23802737.2584   23802748.6044
        -0.000          -0.000
 -15925774.398 9 -10653376.56647  22248051.782    22248051.4854   22248062.6364
        -0.000          -0.000
   2387182.864 8   1882768.40345  25016055.507    25016055.1254   25016072.8764
        -0.000          -0.000
 -14661588.712 9  -9821463.32347  22645840.323    22645840.8504   22645852.6724
        -0.000          -0.000
 99  4 10  0 31  0.0000000  0  7  6 26 17 22 23  5 30                0.000000029
 -18623325.727 9 -14499740.73649  20244370.977    20244370.9544   20244378.7124
        -0.000          -0.000
  -4186488.570 9  -2828181.10946  22429105.434    22429105.7034   22429117.2694
        -0.000          -0.000
 -21982732.082 9 -16090982.03848  21536350.129    21536349.6654   21536359.2984
        -0.000          -0.000
  -6361747.879 8  -4703561.63146  23793328.379    23793327.6424   23793339.4584
        -0.000          -0.000
 -16004859.882 9 -10715001.45247  22233002.200    22233001.8744   22233013.0664
        -0.000          -0.000
   2491312.349 8   1963908.09045  25035870.613    25035870.3784   25035888.0174
        -0.000          -0.000
 -14566307.236 9  -9747218.12447  22663972.294    22663972.6374   22663984.0814
        -0.000          -0.000
 99  4 10  0 31 30.0000000  0  7  6 26 17 22 23  5 30                0.000000051
 -18628383.983 9 -14503682.23749  20243408.355    20243408.3904   20243416.1194
        -0.000          -0.000
  -4244614.385 9  -2873473.82046  22418044.416    22418044.5614   22418056.4774
        -0.000          -0.000
 -22019013.688 9 -16119253.35148  21529445.920    21529445.4054   21529455.1144
        -0.000          -0.000
  -6410697.719 9  -4741704.32346  23784013.318    23784012.6814   23784024.8174
        -0.000          -0.000
 -16083587.513 9 -10776347.48847  22218020.539    22218020.2454   22218031.5884
        -0.000          -0.000
   2595314.059 8   2044948.19745  25055661.096    25055660.8984   25055679.2684
        -0.000          -0.000
 -14470812.326 9  -9672806.62747  22682144.725    22682145.0174   22682156.2664
        -0.000          -0.000
 99  4 10  0 32  0.0000000  0  7  6 26 17 22 23  5 30                0.000000053
 -18633033.332 9 -14507305.09349  20242523.766    20242523.7424   20242531.3294
        -0.000          -0.000
  -4302369.029 9  -2918477.31246  22407053.942    22407054.1194   22407066.1834
        -0.000          -0.000
 -22055141.772 9 -16147405.05448  21522570.826    21522570.3744   21522580.1144
        -0.000          -0.000
  -6459204.433 9  -4779501.71146  23774782.883    23774782.1914   23774794.6024
        -0.000          -0.000
 -16162014.410 9 -10837459.17747  22203096.155    22203095.8974   22203107.3674
        -0.000          -0.000
   2699131.344 8   2125844.61845  25075416.653    25075416.4214   25075435.0124
        -0.000          -0.000
 -14375152.572 9  -9598266.67447  22700348.440    22700348.6364   22700359.8864
        -0.000          -0.000
 99  4 10  0 32 30.0000000  0  7  6 26 17 22 23  5 30                0.000000041
 -18637241.313 9 -14510584.03449  20241723.018    20241722.9974   20241730.5264
        -0.000          -0.000
  -4359738.170 9  -2963180.39646  22396136.944    22396137.1474   22396149.0114
        -0.000          -0.000
 -22091104.073 9 -16175427.55948  21515727.438    21515726.9624   21515736.4614
        -0.000          -0.000
  -6507248.639 9  -4816938.70746  23765640.480    23765639.6404   23765652.3764
        -0.000          -0.000
 -16240124.924 9 -10898324.33447  22188232.085    22188231.7874   22188243.3324
        -0.000          -0.000
   2802812.521 8   2206634.94545  25095146.478    25095146.2614   25095165.1734
        -0.000          -0.000
 -14279309.023 9  -9523583.50747  22718586.793    22718587.0104   22718598.4564
        -0.000          -0.000
 99  4 10  0 33  0.0000000  0  7  6 26 17 22 23  5 30                0.000000020
 -18640976.119 9 -14513494.27049  20241012.375    20241012.3294   20241019.8334
        -0.000          -0.000
  -4416695.810 9  -3007562.81446  22385298.486    22385298.5914   22385310.1124
        -0.000          -0.000
 -22126905.738 9 -16203324.90248  21508914.539    21508914.0894   21508923.4664
        -0.000          -0.000
  -6554818.776 9  -4854006.32146  23756587.912    23756587.1784   23756600.3984
        -0.000          -0.000
 -16317898.129 9 -10958926.66047  22173432.227    22173431.9234   22173443.4904
        -0.000          -0.000
   2906394.864 8   2287348.27445  25114857.350    25114857.1674   25114876.4024
        -0.000          -0.000
 -14183273.683 9  -9448750.89847  22736861.484    22736861.7584   22736873.5004
        -0.000          -0.000
 99  4 10  0 33 30.0000000  0  7  6 26 17 22 23  5 30                0.000000011
 -18644226.883 9 -14516027.32349  20240393.675    20240393.6074   20240401.2084
        -0.000          -0.000
  -4473212.267 9  -3051601.50146  22374543.444    22374543.5464   22374555.2954
        -0.000          -0.000
 -22162541.859 9 -16231093.26348  21502133.122    21502132.6544   21502142.0564
        -0.000          -0.000
  -6601901.723 9  -4890694.28146  23747628.070    23747627.4704   23747640.7834
        -0.000          -0.000
 -16395313.919 9 -11019250.47548  22158700.604    22158700.1414   22158711.7184
        -0.000          -0.000
   3009892.772 8   2367995.81745  25134552.161    25134551.8334   25134571.7544
        -0.000          -0.000
 -14087024.068 9  -9373751.32847  22755177.293    22755177.5494   22755189.2234
        -0.000          -0.000
 99  4 10  0 34  0.0000000  0  7  6 26 17 22 23  5 30                0.000000010
 -18647024.720 9 -14518207.44749  20239861.168    20239861.1164   20239868.7724
        -0.000          -0.000
  -4529305.236 9  -3095310.16146  22363869.064    22363869.2564   22363881.0364
        -0.000          -0.000
 -22198011.036 9 -16258731.53348  21495383.409    21495382.9664   21495392.3454
        -0.000          -0.000
  -6648498.465 9  -4927003.41246  23738760.645    23738760.2194   23738773.7004
        -0.000          -0.000
 -16472372.341 9 -11079295.83348  22144036.769    22144036.3134   22144047.8504
        -0.000          -0.000
   3113296.362 8   2448569.85945  25154229.426    25154228.7704   25154249.0544
        -0.000          -0.000
 -13990577.762 9  -9298598.49547  22773530.586    22773530.8334   22773542.3004
        -0.000          -0.000
 99  4 10  0 34 30.0000000  0  7  6 26 17 22 23  5 30                0.000000018
 -18649373.902 9 -14520037.96749  20239414.046    20239413.9954   20239421.7394
        -0.000          -0.000
  -4584978.576 9  -3138691.83446  22353274.768    22353274.8404   22353286.5144
        -0.000          -0.000
 -22233307.507 9 -16286235.20148  21488666.842    21488666.3764   21488675.6094
        -0.000          -0.000
  -6694600.293 9  -4962926.87346  23729987.597    23729987.3214   23730000.7874
        -0.000          -0.000
 -16549054.997 9 -11139048.38648  22129444.295    22129443.9154   22129455.5404
        -0.000          -0.000
   3216595.970 8   2529062.87145  25173886.845    25173886.2614   25173906.5594
        -0.000          -0.000
 -13893949.701 9  -9223304.01947  22791918.330    22791918.6034   22791930.0734
        -0.000          -0.000
 99  4 10  0 35  0.0000000  0  7  6 26 17 22 23  5 30                0.000000030
 -18651293.762 9 -14521533.95149  20239048.640    20239048.6084   20239056.4704
        -0.000          -0.000
  -4640233.310 9  -3181747.31846  22342760.048    22342760.1794   22342771.7264
        -0.000          -0.000
 -22268436.291 9 -16313608.21648  21481982.211    21481981.6244   21481990.8924
        -0.000          -0.000
  -6740221.507 9  -4998475.85046  23721306.302    23721306.0324   23721319.3044
        -0.000          -0.000
 -16625364.128 9 -11198509.88848  22114922.966    22114922.6284   22114934.3184
        -0.000          -0.000
   3319753.083 8   2609444.86845  25193517.416    25193516.7314   25193536.8914
        -0.000          -0.000
 -13797150.988 9  -9147876.58147  22810338.641    22810338.8214   22810350.5304
        -0.000          -0.000
 99  4 10  0 35 30.0000000  0  7  6 26 17 22 23  5 30                0.000000033
 -18652801.997 9 -14522709.19649  20238761.562    20238761.5574   20238769.4814
        -0.000          -0.000
  -4695094.304 9  -3224495.99946  22332320.187    22332320.3074   22332331.8924
        -0.000          -0.000
 -22303402.994 9 -16340854.94848  21475328.354    21475327.7404   21475337.0814
        -0.000          -0.000
  -6785372.600 9  -5033658.45846  23712714.294    23712714.0004   23712727.0904
        -0.000          -0.000
 -16701331.010 9 -11257704.68548  22100466.922    22100466.5754   22100478.1104
        -0.000          -0.000
   3422737.044 8   2689691.93645  25213114.888    25213114.0834   25213134.2494
        -0.000          -0.000
 -13700196.071 9  -9072327.41647  22828788.611    22828788.8084   22828800.5814
        -0.000          -0.000
 99  4 10  0 36  0.0000000  0  7  6 26 17 22 23  5 30                0.000000034
 -18653872.144 9 -14523543.06949  20238557.848    20238557.8584   20238565.8274
        -0.000          -0.000
  -4749547.706 9  -3266927.09846  22321957.807    22321958.0304   22321969.5594
        -0.000          -0.000
 -22338191.666 9 -16367962.94348  21468708.231    21468707.5834   21468716.9154
        -0.000          -0.000
  -6830030.827 9  -5068457.03646  23704215.908    23704215.6944   23704228.8204
        -0.000          -0.000
 -16776942.088 9 -11316622.24448  22086078.667    22086078.3164   22086089.6444
        -0.000          -0.000
   3525565.280 8   2769817.66945  25232683.000    25232682.1474   25232701.8274
        -0.000          -0.000
 -13603073.731 9  -8996647.78447  22847270.361    22847270.5944   22847282.6114
        -0.000          -0.000
 99  4 10  0 36 30.0000000  0  7  6 26 17 22 23  5 30                0.000000032
 -18654493.510 9 -14524027.24049  20238439.734    20238439.7494   20238447.6394
        -0.000          -0.000
  -4803586.038 9  -3309034.73447  22311674.664    22311674.9094   22311686.1704
        -0.000          -0.000
 -22372821.348 9 -16394947.05648  21462118.232    21462117.6554   21462126.9774
        -0.000          -0.000
  -6874203.809 9  -5102877.45146  23695809.555    23695809.5534   23695822.8514
        -0.000          -0.000
 -16852199.185 9 -11375263.96748  22071757.744    22071757.3104   22071768.5944
        -0.000          -0.000
   3628248.854 8   2849830.66145  25252223.358    25252222.2894   25252241.9534
        -0.000          -0.000
 -13505771.066 9  -8920827.66147  22865786.314    22865786.6554   22865798.7164
        -0.000          -0.000
 99  4 10  0 37  0.0000000  0  7  6 26 17 22 23  5 30                0.000000039
 -18654657.990 9 -14524155.39449  20238408.607    20238408.5714   20238416.3884
        -0.000          -0.000
  -4857197.712 9  -3350809.91947  22301472.780    22301473.0024   22301483.9374
        -0.000          -0.000
 -22407291.208 9 -16421806.63648  21455558.654    21455558.1374   21455567.4664
        -0.000          -0.000
  -6917880.910 9  -5136911.49946  23687497.749    23687497.8974   23687511.0454
        -0.000          -0.000
 -16927112.286 9 -11433637.65348  22057502.279    22057501.7894   22057512.9754
        -0.000          -0.000
   3730804.953 8   2929744.32045  25271739.240    25271738.5094   25271757.8854
        -0.000          -0.000
 -13408278.545 9  -8844859.62047  22884338.501    22884338.9014   22884350.8884
        -0.000          -0.000
 99  4 10  0 37 30.0000000  0  7  6 26 17 22 23  5 30                0.000000068
 -18654370.777 9 -14523931.57349  20238463.262    20238463.2334   20238471.0654
        -0.000          -0.000
  -4910377.687 9  -3392248.73147  22291352.948    22291353.1074   22291363.9454
        -0.000          -0.000
 -22441609.461 9 -16448548.09248  21449027.813    21449027.3784   21449036.9104
        -0.000          -0.000
  -6961048.493 9  -5170548.51346  23679283.290    23679283.4524   23679296.4024
        -0.000          -0.000
 -17001687.444 9 -11491748.02248  22043310.975    22043310.4544   22043321.6294
        -0.000          -0.000
   3833238.839 8   3009562.73745  25291231.959    25291231.1854   25291250.5914
        -0.000          -0.000
 -13310607.892 9  -8768752.74647  22902924.921    22902925.2744   22902936.7214
        -0.000          -0.000
 99  4 10  0 38  0.0000000  0  7  6 26 17 22 23  5 30                0.000000104
 -18653650.483 9 -14523370.28949  20238600.281    20238600.2294   20238608.0704
        -0.000          -0.000
  -4963129.675 9  -3433354.05847  22281314.451    22281314.6274   22281325.3434
        -0.000          -0.000
 -22475782.532 9 -16475176.42648  21442524.692    21442524.3694   21442533.9494
        -0.000          -0.000
  -7003728.970 9  -5203805.98646  23671161.734    23671161.8454   23671174.2864
        -0.000          -0.000
 -17075928.811 9 -11549598.28548  22029182.945    22029182.5554   22029193.7484
        -0.000          -0.000
   3935545.031 8   3089281.70345  25310700.280    25310699.6464   25310718.3684
        -0.000          -0.000
 -13212787.073 9  -8692528.88047  22921539.773    22921540.1784   22921551.1594
        -0.000          -0.000
 99  4 10  0 38 30.0000000  0  7  6 26 17 22 23  5 30                0.000000135
 -18652510.828 9 -14522482.23249  20238817.027    20238816.9994   20238824.8654
        -0.000          -0.000
  -5015458.472 9  -3474129.60147  22271356.616    22271356.7714   22271367.4174
        -0.000          -0.000
 -22509812.973 9 -16501693.59148  21436049.096    21436048.6724   21436058.0584
        -0.000          -0.000
  -7045942.097 9  -5236699.29446  23663129.096    23663129.0464   23663141.1284
        -0.000          -0.000
 -17149855.565 9 -11607203.40848  22015114.911    22015114.5744   22015125.5694
        -0.000          -0.000
   4037706.691 8   3168888.02045  25330141.182    25330140.3984   25330159.3834
        -0.000          -0.000
 -13114849.458 9  -8616213.97747  22940176.805    22940177.2264   22940188.0974
        -0.000          -0.000
 99  4 10  0 39  0.0000000  0  7  6 26 17 22 23  5 30                0.000000154
 -18650974.043 9 -14521284.72949  20239109.395    20239109.3564   20239117.3344
        -0.000          -0.000
  -5067368.347 9  -3514578.71347  22261478.477    22261478.5794   22261489.1164
        -0.000          -0.000
 -22543693.924 9 -16528094.27448  21429601.927    21429601.3764   21429610.5104
        -0.000          -0.000
  -7087701.992 9  -5269239.43546  23655182.757    23655182.5184   23655194.3024
        -0.000          -0.000
 -17223484.955 9 -11664576.80748  22001103.519    22001103.2334   22001113.9814
        -0.000          -0.000
   4139688.376 8   3248354.06645  25349547.832    25349547.1444   25349565.7474
        -0.000          -0.000
 -13016819.196 9  -8539826.90247  22958831.604    22958831.9214   22958842.7654
        -0.000          -0.000
 99  4 10  0 39 30.0000000  0  7  6 26 17 22 23  5 30                0.000000154
 -18649024.082 9 -14519765.27649  20239480.398    20239480.3694   20239488.5254
        -0.000          -0.000
  -5118846.129 9  -3554691.12747  22251682.417    22251682.5514   22251693.1104
        -0.000          -0.000
 -22577401.348 9 -16554359.74548  21423187.485    21423186.9774   21423196.0854
        -0.000          -0.000
  -7129011.764 9  -5301428.81646  23647322.035    23647321.6104   23647333.1634
        -0.000          -0.000
 -17296783.994 9 -11721692.80448  21987155.134    21987154.8104   21987165.4474
        -0.000          -0.000
   4241499.108 8   3327686.96745  25368921.819    25368921.2704   25368940.2584
        -0.000          -0.000
 -12918681.362 9  -8463355.99247  22977506.986    22977507.1434   22977518.1484
        -0.000          -0.000
 99  4 10  0 40  0.0000000  0  7  6 26 17 22 23  5 30                0.000000129
 -18646624.111 9 -14517895.17749  20239937.048    20239937.0234   20239945.2664
        -0.000          -0.000
  -5169879.739 9  -3594457.46247  22241970.828    22241970.9544   22241981.6174
        -0.000          -0.000
 -22610913.126 9 -16580472.77448  21416810.273    21416809.7914   21416819.0434
        -0.000          -0.000
  -7169865.246 9  -5333262.61846  23639547.819    23639547.2734   23639558.9864
        -0.000          -0.000
 -17369725.446 9 -11778530.14548  21973274.731    21973274.3694   21973285.1604
        -0.000          -0.000
   4343159.992 7   3406903.13654  25388267.341    25388266.7194          0.0005
        -0.000          -0.000
 -12820407.476 9  -8386779.05947  22996207.882    22996208.0664   22996219.4254
        -0.000          -0.000
 99  4 10  0 40 30.0000000  0  7  6 26 17 22 23  5 30                0.000000101
 -18643766.060 9 -14515668.12849  20240480.933    20240480.9374   20240489.1334
        -0.000          -0.000
  -5220458.669 9  -3633869.52147  22232345.825    22232346.0284   22232356.5124
        -0.000          -0.000
 -22644225.214 9 -16606430.19648  21410471.117    21410470.6204   21410479.9714
        -0.000          -0.000
  -7210233.048 9  -5364717.94446  23631866.341    23631865.6894   23631877.2484
        -0.000          -0.000
 -17442288.297 9 -11835072.49048  21959466.321    21959465.9784   21959476.8284
        -0.000          -0.000
   4444673.49316   3486004.38653         0.000           0.0005          0.0005
        -0.000          -0.000
 -12721970.263 9  -8310074.87847  23014939.918    23014940.1684   23014951.6894
        -0.000          -0.000
 99  4 10  0 41  0.0000000  0  6  6 26 17 22 23 30                   0.000000085
 -18640430.936 9 -14513069.31949  20241115.538    20241115.5674   20241123.7144
        -0.000          -0.000
  -5270577.038 9  -3672922.65947  22222808.580    22222808.7904   22222819.1334
        -0.000          -0.000
 -22677340.560 9 -16632234.31348  21404169.420    21404168.8934   21404178.2754
        -0.000          -0.000
  -7250087.844 9  -5395773.54646  23624282.522    23624281.7694   23624293.2714
        -0.000          -0.000
 -17514445.317 9 -11891298.58748  21945735.366    21945734.9744   21945745.6284
        -0.000          -0.000
 -12623340.837 9  -8233220.91047  23033708.730    23033708.8554   23033720.4574
        -0.000          -0.000
 99  4 10  0 41 30.0000000  0  7  6 26 17 22 21 23 30                0.000000057
 -18636642.513 9 -14510117.30749  20241836.473    20241836.5084   20241844.5964
        -0.000          -0.000
  -5320269.347 9  -3711643.79747  22213352.411    22213352.6364   22213362.8544
        -0.000          -0.000
 -22710301.573 9 -16657918.17148  21397897.109    21397896.6344   21397905.8734
        -0.000          -0.000
  -7289452.623 9  -5426447.29846  23616791.666    23616790.9864   23616802.5794
        -0.000          -0.000
   -479514.494 8   -350751.80852         0.000           0.0004          0.0005
        -0.000          -0.000
 -17586225.170 9 -11947230.80648  21932076.208    21932075.7204   21932086.1574
        -0.000          -0.000
 -12524555.239 9  -8156245.27447  23052507.038    23052507.2114   23052518.9444
        -0.000          -0.000
 99  4 10  0 42  0.0000000  0  7  6 26 17 22 21 23 30                0.000000036
 -18632402.449 9 -14506813.35949  20242643.405    20242643.4294   20242651.4324
        -0.000          -0.000
  -5369524.664 9  -3750024.43447  22203979.264    22203979.4054   22203989.7734
        -0.000          -0.000
 -22743112.339 9 -16683484.95048  21391653.681    21391653.1464   21391662.2024
        -0.000          -0.000
  -7328303.582 9  -5456720.69846  23609398.570    23609397.9034   23609409.6504
        -0.000          -0.000
   -575701.760 8   -162172.97142         0.000           0.0004          0.0004
        -0.000          -0.000
 -17657629.806 9 -12002870.66248  21918488.455    21918487.8674   21918498.1274
        -0.000          -0.000
 -12425619.205 9  -8079152.37247  23071333.827    23071334.1084   23071345.9904
        -0.000          -0.000
 99  4 10  0 42 30.0000000  0  7  6 26 17 22 21 23 30                0.000000034
 -18627700.603 9 -14503149.58249  20243538.231    20243538.2204   20243546.1554
        -0.000          -0.000
  -5418324.616 9  -3788050.27547  22194692.672    22194692.9044   22194703.3014
        -0.000          -0.000
 -22775767.005 9 -16708930.09448  21385439.783    21385439.2094   21385448.2424
        -0.000          -0.000
  -7366626.247 9  -5486582.41246  23602105.926    23602105.3234   23602117.1684
        -0.000          -0.000
   -671785.291 8   -237100.57052         0.000           0.0004          0.0005
        -0.000          -0.000
 -17728649.049 9 -12058210.18648  21904973.746    21904973.1634   21904983.4474
        -0.000          -0.000
 -12326529.119 9  -8001939.47147  23090189.706    23090190.1144   23090202.3624
        -0.000          -0.000
 99  4 10  0 43  0.0000000  0  7  6 26 17 22 21 23 30                0.000000040
 -18622533.799 9 -14499123.50149  20244521.503    20244521.5094   20244529.3554
        -0.000          -0.000
  -5466672.422 9  -3825723.79747  22185492.277    22185492.5134   22185502.7634
        -0.000          -0.000
 -22808277.107 9 -16734262.58948  21379253.230    21379252.6624   21379261.7164
        -0.000          -0.000
  -7404433.323 9  -5516042.41046  23594911.348    23594910.7934   23594922.5494
        -0.000          -0.000
   -767801.646 8   -311994.71852         0.000           0.0004          0.0005
        -0.000          -0.000
 -17799293.484 9 -12113257.67748  21891530.357    21891529.8404   21891540.1684
        -0.000          -0.000
 -12227306.087 9  -7924622.97647  23109071.124    23109071.6024   23109084.0264
        -0.000          -0.000
 99  4 10  0 43 30.0000000  0  7  6 26 17 22 21 23 30                0.000000050
 -18616919.609 9 -14494748.80949  20245589.826    20245589.8204   20245597.6844
        -0.000          -0.000
  -5514566.774 9  -3863043.93647  22176378.243    22176378.4634   22176388.6854
        -0.000          -0.000
 -22840639.119 9 -16759479.68848  21373094.857    21373094.3754   21373103.4264
        -0.000          -0.000
  -7441741.418 9  -5545113.58846  23587811.997    23587811.2584   23587822.8654
        -0.000          -0.000
   -863778.343 8   -123916.23942         0.000           0.0004          0.0004
        -0.000          -0.000
 -17869590.858 9 -12168034.70648  21878153.017    21878152.4714   21878162.9584
        -0.000          -0.000
 -12127974.999 9  -7847222.25946  23127973.498    23127973.8474   23127986.2424
        -0.000          -0.000
 99  4 10  0 44  0.0000000  0  7  6 26 17 22 21 23 30                0.000000059
 -18610852.652 9 -14490021.31549  20246744.305    20246744.3314   20246752.2184
        -0.000          -0.000
  -5562000.781 9  -3900005.38847  22167351.687    22167351.9414   22167362.2344
        -0.000          -0.000
 -22872862.698 9 -16784588.91948  21366962.721    21366962.2904   21366971.4874
        -0.000          -0.000
  -7478556.691 9  -5573800.73046  23580806.357    23580805.4984   23580816.9244
        -0.000          -0.000
   -959712.034 8   -198668.61552         0.000           0.0004          0.0005
        -0.000          -0.000
 -17939549.238 9 -12222547.60348  21864840.091    21864839.6174   21864850.1994
        -0.000          -0.000
 -12028549.048 9  -7769747.63646  23146893.869    23146894.1594   23146906.6104
        -0.000          -0.000
 99  4 10  0 44 30.0000000  0  7  6 26 17 22 21 23 30                0.000000075
 -18604315.001 9 -14484927.04049  20247988.442    20247988.4494   20247996.3024
        -0.000          -0.000
  -5608956.794 9  -3936594.38047  22158416.293    22158416.4584   22158426.8234
        -0.000          -0.000
 -22904931.166 9 -16809577.29748  21360860.108    21360859.7654   21360869.0574
        -0.000          -0.000
  -7514867.417 9  -5602094.70846  23573896.730    23573895.7124   23573907.2894
        -0.000          -0.000
  -1055574.927 8   -273365.44452         0.000           0.0004          0.0005
        -0.000          -0.000
 -18009156.124 9 -12276786.61548  21851594.155    21851593.7764   21851604.3674
        -0.000          -0.000
 -11929019.622 9  -7692192.38946  23165833.676    23165834.0164   23165846.7684
        -0.000          -0.000
 99  4 10  0 45  0.0000000  0  7  6 26 17 22 21 23 30                0.000000088
 -18597328.975 9 -14479483.38049  20249317.904    20249317.8794   20249325.6554
        -0.000          -0.000
  -5655448.462 9  -3972821.54447  22149568.975    22149569.1924   22149579.5734
        -0.000          -0.000
 -22936851.938 9 -16834450.57848  21354785.788    21354785.4304   21354794.6714
        -0.000          -0.000
  -7550683.414 9  -5630003.18646  23567081.130    23567080.2304   23567091.9144
        -0.000          -0.000
  -1151361.424 8    -85888.57642         0.000           0.0004          0.0004
        -0.000          -0.000
 -18078435.179 9 -12330770.15948  21838410.711    21838410.3344   21838420.8544
        -0.000          -0.000
 -11829415.794 9  -7614579.16946  23184787.891    23184788.2554   23184800.9854
        -0.000          -0.000
 99  4 10  0 45 30.0000000  0  7  6 26 17 22 21 23 30                0.000000093
 -18589902.416 9 -14473696.45349  20250731.208    20250731.1514   20250738.8664
        -0.000          -0.000
  -5701476.194 9  -4008687.18647  22140810.154    22140810.3764   22140820.7214
        -0.000          -0.000
 -22968620.343 9 -16859205.12248  21348740.525    21348740.0754   21348749.2394
        -0.000          -0.000
  -7586019.508 9  -5657537.71846  23560356.815    23560355.9154   23560367.8104
        -0.000          -0.000
  -1247044.458 8   -160449.92552         0.000           0.0004          0.0005
        -0.000          -0.000
 -18147386.979 9 -12384498.71448  21825289.500    21825289.1674   21825299.5484
        -0.000          -0.000
 -11729740.376 9  -7536910.15746  23203755.408    23203755.8344   23203768.8044
        -0.000          -0.000
 99  4 10  0 46  0.0000000  0  7  6 26 17 22 21 23 30                0.000000084
 -18582008.641 9 -14467545.46249  20252233.326    20252233.2914   20252241.0674
        -0.000          -0.000
  -5747032.600 9  -4044185.57347  22132140.882    22132141.1774   22132151.4824
        -0.000          -0.000
 -23000224.812 9 -16883831.93148  21342726.440    21342726.0184   21342735.0644
        -0.000          -0.000
  -7620866.068 9  -5684690.79746  23553725.325    23553724.4674   23553736.7624
        -0.000          -0.000
  -1342606.914 8   -234919.43752         0.000           0.0004          0.0005
        -0.000          -0.000
 -18215972.326 9 -12437941.72248  21812238.153    21812237.7824   21812248.0264
        -0.000          -0.000
 -11629970.460 9  -7459167.50446  23222740.962    23222741.4404   23222754.7124
        -0.000          -0.000
 99  4 10  0 46 30.0000000  0  7  6 26 17 22 21 23 30                0.000000063
 -18573636.720 9 -14461021.88749  20253826.334    20253826.2884   20253834.1834
        -0.000          -0.000
  -5792119.856 9  -4079318.40047  22123560.985    22123561.2284   22123571.5284
        -0.000          -0.000
 -23031640.418 9 -16908311.57748  21336748.316    21336747.8474   21336756.8074
        -0.000          -0.000
  -7655213.247 9  -5711454.76446  23547188.825    23547188.1414   23547200.8074
        -0.000          -0.000
  -1438037.864 8    -48007.67842         0.000           0.0004          0.0004
        -0.000          -0.000
 -18284160.602 9 -12491075.30948  21799262.255    21799261.8654   21799272.0964
        -0.000          -0.000
 -11530077.105 9  -7381328.70746  23241750.013    23241750.5404   23241764.0494
        -0.000          -0.000
 99  4 10  0 47  0.0000000  0  7  6 26 17 22 21 23 30                0.000000035
 -18564772.349 9 -14454114.58149  20255513.079    20255513.0604   20255520.9774
        -0.000          -0.000
  -5836732.465 9  -4114081.36047  22115071.071    22115071.3854   22115082.0654
        -0.000          -0.000
 -23062864.207 9 -16932641.74848  21330806.620    21330806.0804   21330815.0944
        -0.000          -0.000
  -7689059.609 9  -5737828.48346  23540748.278    23540747.4794   23540759.9274
        -0.000          -0.000
  -1533325.515 8   -122257.55052         0.000           0.0004          0.0005
        -0.000          -0.000
 -18351935.700 9 -12543886.94348  21786364.896    21786364.5244   21786374.8184
        -0.000          -0.000
 -11430038.823 9  -7303376.95646  23260786.846    23260787.3914   23260800.8644
        -0.000          -0.000
 99  4 10  0 47 30.0000000  0  7  6 26 17 22 21 23 30                0.000000010
 -18555382.810 9 -14446798.05449  20257299.779    20257299.7834   20257307.7514
        -0.000          -0.000
  -5880836.340 9  -4148447.90547  22106678.420    22106678.7254   22106689.2924
        -0.000          -0.000
 -23093877.847 9 -16956808.17048  21324904.824    21324904.3664   21324913.3174
        -0.000          -0.000
  -7722380.039 9  -5763792.37246  23534408.167    23534406.9994   23534419.0384
        -0.000          -0.000
  -1628442.458 9   -196373.86443         0.000           0.0004   25164095.3514
        -0.000          -0.000
 -18419263.521 9 -12596350.05048  21773552.815    21773552.3534   21773562.6284
        -0.000          -0.000
 -11329818.153 9  -7225283.07346  23279858.599    23279859.0394   23279872.1844
        -0.000          -0.000
 99  4 10  0 48  0.0000000  0  7  6 26 17 22 21 23 30               -0.000000008
 -18545469.410 9 -14439073.32249  20259186.243    20259186.2174   20259194.2234
        -0.000          -0.000
  -5924439.366 9  -4182424.16147  22098381.113    22098381.3794   22098391.8514
        -0.000          -0.000
 -23124698.176 9 -16980823.96448  21319039.996    21319039.4964   21319048.4094
        -0.000          -0.000
  -7755164.750 9  -5789338.86346  23528169.614    23528168.4274   23528180.0804
        -0.000          -0.000
  -1723401.823 8   -270367.58745  25146002.129    25145999.2274   25146021.0144
        -0.000          -0.000
 -18486157.636 9 -12648475.21748  21760823.140    21760822.7364   21760832.9034
        -0.000          -0.000
 -11229435.445 9  -7147062.95046  23298961.190    23298961.4244   23298974.4414
        -0.000          -0.000
 99  4 10  0 48 30.0000000  0  7  6 26 17 22 21 23 30               -0.000000009
 -18535073.771 9 -14430972.83349  20261164.446    20261164.4084   20261172.4904
        -0.000          -0.000
  -5967542.654 9  -4216011.02747  22090178.846    22090179.0384   22090189.4664
        -0.000          -0.000
 -23155353.699 9 -17004711.34748  21313206.379    21313205.9344   21313214.8534
        -0.000          -0.000
  -7787426.867 9  -5814478.11146  23522030.539    23522029.2684   23522040.6204
        -0.000          -0.000
  -1818209.954 8   -344243.51345  25127960.919    25127959.2164   25127979.2374
        -0.000          -0.000
 -18552656.293 9 -12700292.24348  21748168.749    21748168.3864   21748178.4444
        -0.000          -0.000
 -11128922.410 9  -7068741.24146  23318088.339    23318088.4134   23318101.3894
        -0.000          -0.000
 99  4 10  0 49  0.0000000  0  7  6 26 17 22 21 23 30                0.000000012
 -18524202.709 9 -14422501.88049  20263232.991    20263232.9864   20263241.1894
        -0.000          -0.000
  -6010132.255 9  -4249197.65647  22082074.026    22082074.2984   22082084.8714
        -0.000          -0.000
 -23185862.885 9 -17028484.68148  21307400.805    21307400.2944   21307409.0544
        -0.000          -0.000
  -7819169.754 9  -5839212.75046  23515989.987    23515988.7314   23516000.0744
        -0.000          -0.000
  -1912874.484 8   -418007.47145  25109946.953    25109944.3074   25109965.6054
        -0.000          -0.000
 -18618793.551 9 -12751827.65248  21735583.122    21735582.8004   21735592.8564
        -0.000          -0.000
 -11028316.750 9  -6990347.38946  23337232.898    23337233.0404   23337246.1294
        -0.000          -0.000
 99  4 10  0 49 30.0000000  0  7  6 26 17 22 21 23 30                0.000000038
 -18512891.127 9 -14413687.66849  20265385.444    20265385.4364   20265393.7154
        -0.000          -0.000
  -6052231.078 9  -4282001.82447  22074062.854    22074063.0944   22074073.5894
        -0.000          -0.000
 -23216249.220 9 -17052162.29348  21301618.400    21301617.8974   21301626.6904
        -0.000          -0.000
  -7850415.572 9  -5863560.08846  23510043.358    23510042.3774   23510054.2094
        -0.000          -0.000
  -2007440.795 8   -491694.89045  25091951.566    25091948.0864   25091970.3154
        -0.000          -0.000
 -18684607.703 9 -12803111.28548  21723059.059    21723058.6894   21723068.7464
        -0.000          -0.000
 -10927675.733 9  -6911925.95446  23356384.065    23356384.4214   23356397.6964
        -0.000          -0.000
 99  4 10  0 50  0.0000000  0  7  6 26 17 22 21 23 30                0.000000053
 -18501144.913 9 -14404534.77649  20267620.627    20267620.6484   20267628.8464
        -0.000          -0.000
  -6093856.059 9  -4314436.75247  22066141.971    22066142.2074   22066152.4754
        -0.000          -0.000
 -23246522.483 9 -17075751.81148  21295857.467    21295856.9754   21295865.8864
        -0.000          -0.000
  -7881181.821 9  -5887533.70346  23504188.127    23504187.1614   23504199.4644
        -0.000          -0.000
  -2101933.027 8   -565324.58145  25073969.484    25073966.5344   25073988.8494
        -0.000          -0.000
 -18750100.512 9 -12854144.52548  21710595.963    21710595.6484   21710605.9474
        -0.000          -0.000
 -10827016.867 9  -6833490.62646  23375538.673    23375539.1114   23375552.6134
        -0.000          -0.000
 99  4 10  0 50 30.0000000  0  7  6 26 17 22 21 23 30                0.000000073
 -18488922.133 9 -14395010.53149  20269946.704    20269946.6584   20269954.6284
        -0.000          -0.000
  -6134974.366 9  -4346476.86247  22058317.447    22058317.6454   22058327.8384
        -0.000          -0.000
 -23276637.413 9 -17099217.93848  21290126.758    21290126.2224   21290135.1314
        -0.000          -0.000
  -7911439.039 9  -5911110.72646  23498429.759    23498428.9464   23498441.3554
        -0.000          -0.000
  -2196319.022 8   -638871.53245  25056007.379    25056005.4094   25056027.4554
        -0.000          -0.000
 -18815237.690 9 -12904900.65648  21698200.480    21698200.2394   21698210.7664
        -0.000          -0.000
 -10726298.021 9  -6755008.53946  23394704.703    23394705.3734   23394719.0564
        -0.000          -0.000
 99  4 10  0 51  0.0000000  0  7  6 26 17 22 21 23 30                0.000000077
 -18476209.407 9 -14385104.51649  20272365.796    20272365.7534   20272373.7384
        -0.000          -0.000
  -6175605.754 9  -4378137.58947  22050585.245    22050585.5184   22050595.7504
        -0.000          -0.000
 -23306585.784 9 -17122554.28448  21284427.735    21284427.1984   21284436.0754
        -0.000          -0.000
  -7941189.908 9  -5934293.17246  23492768.172    23492767.4554   23492779.6504
        -0.000          -0.000
  -2290612.868 8   -712346.71145  25038062.739    25038061.3524   25038083.4534
        -0.000          -0.000
 -18880008.017 9 -12955370.93048  21685875.067    21685874.7814   21685885.2414
        -0.000          -0.000
 -10625522.674 9  -6676482.40546  23413881.850    23413882.5764   23413895.9454
        -0.000          -0.000
 99  4 10  0 51 30.0000000  0  7  6 26 17 22 21 23 30                0.000000066
 -18463004.823 9 -14374815.25349  20274878.406    20274878.4144   20274886.4244
        -0.000          -0.000
  -6215749.873 9  -4409418.63347  22042945.997    22042946.2564   22042956.4774
        -0.000          -0.000
 -23336351.705 9 -17145748.47148  21278763.458    21278762.9594   21278771.7154
        -0.000          -0.000
  -7970434.520 9  -5957081.14846  23487203.532    23487202.5874   23487214.0904
        -0.000          -0.000
  -2384800.226 8   -785738.90445  25020138.309    25020137.4214   25020159.9484
        -0.000          -0.000
 -18944369.634 9 -13005522.73148  21673627.496    21673627.2404   21673637.5004
        -0.000          -0.000
 -10524654.099 9  -6597883.67346  23433077.117    23433077.6474   23433090.7524
        -0.000          -0.000
 99  4 10  0 52  0.0000000  0  7  6 26 17 22 21 23 30                0.000000056
 -18449286.797 9 -14364125.89049  20277488.902    20277488.9264   20277496.9204
        -0.000          -0.000
  -6255379.654 9  -4440298.87947  22035404.695    22035404.9574   22035415.0494
        -0.000          -0.000
 -23365908.622 9 -17168779.80148  21273139.075    21273138.4934   21273147.1834
        -0.000          -0.000
  -7999148.092 9  -5979455.32446  23481739.708    23481738.7314   23481749.8764
        -0.000          -0.000
  -2478837.562 8   -859014.25545  25002242.537    25002242.2784   25002264.8374
        -0.000          -0.000
 -19008284.968 9 -13055326.78048  21661464.845    21661464.5204   21661474.6234
        -0.000          -0.000
 -10423649.908 9  -6519179.25846  23452298.017    23452298.3514   23452311.3064
        -0.000          -0.000
 99  4 10  0 52 30.0000000  0  7  6 26 17 22 21 23 30                0.000000060
 -18435086.587 9 -14353060.79949  20280191.184    20280191.1664   20280199.1904
        -0.000          -0.000
  -6294489.779 9  -4470774.23047  22027962.303    22027962.5294   22027972.5124
        -0.000          -0.000
 -23395258.584 9 -17191649.85948  21267553.833    21267553.2694   21267562.0704
        -0.000          -0.000
  -8027328.645 9  -6001414.15046  23476377.007    23476376.1934   23476387.1964
        -0.000          -0.000
  -2572715.484 8   -932165.36345  24984377.740    24984377.6964   24984399.9254
        -0.000          -0.000
 -19071768.354 9 -13104794.26048  21649384.221    21649383.9734   21649393.9334
        -0.000          -0.000
 -10322528.627 9  -6440383.61546  23471540.883    23471541.0704   23471554.3014
        -0.000          -0.000
 99  4 10  0 53  0.0000000  0  7  6 26 17 22 21 23 30                0.000000059
 -18420453.249 9 -14341658.20049  20282975.836    20282975.8184   20282983.8064
        -0.000          -0.000
  -6333101.798 9  -4500861.41547  22020614.471    22020614.7464   22020624.8204
        -0.000          -0.000
 -23424454.122 9 -17214399.58948  21261998.085    21261997.6154   21262006.3404
        -0.000          -0.000
  -8055018.419 9  -6022990.54346  23471107.790    23471107.0014   23471118.1754
        -0.000          -0.000
  -2666472.041 8  -1005221.96645  24966536.465    24966536.1584   24966557.9534
        -0.000          -0.000
 -19134845.298 9 -13153945.01948  21637381.152    21637380.8534   21637390.7134
        -0.000          -0.000
 -10221332.622 9  -6361529.75246  23490798.070    23490798.1794   23490811.4814
        -0.000          -0.000
 99  4 10  0 53 30.0000000  0  7  6 26 17 22 21 23 30                0.000000134
 -18405389.807 9 -14329920.47149  20285842.258    20285842.2834   20285850.2964
        -0.000          -0.000
  -6371203.806 9  -4530551.16747  22013363.880    22013364.1254   22013374.1354
        -0.000          -0.000
 -23453511.606 9 -17237041.73848  21256468.611    21256468.0534   21256476.8554
        -0.000          -0.000
  -8082220.890 9  -6044187.24546  23465931.115    23465930.4354   23465941.9324
        -0.000          -0.000
  -2760105.304 8  -1078182.46945  24948718.334    24948718.0034   24948739.5214
        -0.000          -0.000
 -19197525.346 9 -13202786.50948  21625453.644    21625453.1914   21625463.1144
        -0.000          -0.000
 -10120074.744 9  -6282627.67546  23510066.803    23510066.9104   23510080.4444
        -0.000          -0.000
 99  4 10  0 54  0.0000000  0  7  6 26 17 22 21 23 30                0.000000103
 -18389943.841 9 -14317884.65949  20288781.629    20288781.6184   20288789.5824
        -0.000          -0.000
  -6408843.224 9  -4559880.47947  22006201.389    22006201.5644   22006211.4574
        -0.000          -0.000
 -23482490.962 9 -17259623.02048  21250953.879    21250953.3914   21250962.2534
        -0.000          -0.000
  -8108983.117 9  -6065040.87746  23460838.178    23460837.6604   23460849.3454
        -0.000          -0.000
  -2853678.928 8  -1151096.53545  24930911.154    24930910.9904   24930932.5904
        -0.000          -0.000
 -19259889.337 9 -13251381.73348  21613585.793    21613585.4774   21613595.6314
        -0.000          -0.000
 -10018837.743 9  -6203741.86846  23529331.336    23529331.5234   23529345.2984
        -0.000          -0.000
 99  4 10  0 54 30.0000000  0  7  6 26 17 22 21 23 30                0.000000085
 -18374017.277 9 -14305474.34849  20291812.466    20291812.4504   20291820.4184
        -0.000          -0.000
  -6445944.464 9  -4588790.43847  21999141.080    21999141.2924   21999151.1874
        -0.000          -0.000
 -23511322.023 9 -17282088.75348  21245467.441    21245466.9304   21245475.8664
        -0.000          -0.000
  -8135230.863 9  -6085493.61146  23455843.571    23455842.8784   23455854.4724
        -0.000          -0.000
  -2947120.139 8  -1223907.41345  24913129.562    24913129.3104   24913150.6594
        -0.000          -0.000
 -19321864.582 9 -13299674.03248  21601792.096    21601791.7914   21601801.9664
        -0.000          -0.000
  -9917551.851 9  -6124817.95046  23548605.264    23548605.6594   23548619.4724
        -0.000          -0.000
 99  4 10  0 55  0.0000000  0  7  6 26 17 22 21 23 30                0.000000070
 -18357577.982 9 -14292664.52149  20294940.771    20294940.7254   20294948.6844
        -0.000          -0.000
  -6482514.146 9  -4617286.19147  21992181.858    21992182.1094   21992192.0974
        -0.000          -0.000
 -23540000.563 9 -17304435.64148  21240010.034    21240009.5284   21240018.4404
        -0.000          -0.000
  -8160957.228 9  -6105540.07346  23450947.822    23450947.1674   23450958.9074
        -0.000          -0.000
  -3040430.352 8  -1296616.23945  24895372.955    24895372.5534   24895393.6004
        -0.000          -0.000
 -19383448.082 9 -13347661.08248  21590073.061    21590072.7944   21590082.8294
        -0.000          -0.000
  -9816210.166 9  -6045850.54846  23567890.229    23567890.5494   23567904.1704
        -0.000          -0.000
 99  4 10  0 55 30.0000000  0  7  6 26 17 22 21 23 30                0.000000054
 -18340628.841 9 -14279457.41049  20298166.017    20298166.0124   20298173.9784
        -0.000          -0.000
  -6518564.714 9  -4645377.44647  21985321.668    21985321.9184   21985331.9014
        -0.000          -0.000
 -23568509.090 9 -17326650.04448  21234584.972    21234584.5034   21234593.3044
        -0.000          -0.000
  -8186159.927 9  -6125178.49746  23446152.125    23446151.2274   23446163.1604
        -0.000          -0.000
  -3133604.802 8  -1369219.24545  24877641.270    24877641.1294   24877662.2394
        -0.000          -0.000
 -19444648.140 9 -13395349.33248  21578427.073    21578426.7964   21578436.6824
        -0.000          -0.000
  -9714823.941 9  -5966848.46246  23587183.513    23587183.8924   23587197.3204
        -0.000          -0.000
 99  4 10  0 56  0.0000000  0  7  6 26 17 22 21 23 30                0.000000041
 -18323170.307 9 -14265853.36149  20301488.163    20301488.1824   20301496.2664
        -0.000          -0.000
  -6554093.404 9  -4673062.03848  21978560.873    21978561.1194   21978570.8904
        -0.000          -0.000
 -23596826.485 9 -17348715.51248  21229196.371    21229195.9144   21229204.5844
        -0.000          -0.000
  -8210828.433 9  -6144400.65946  23441457.957    23441457.0274   23441469.1924
        -0.000          -0.000
  -3226630.191 8  -1441706.09645  24859937.988    24859938.1844   24859959.7804
        -0.000          -0.000
 -19505448.546 9 -13442726.18248  21566857.121    21566856.8164   21566866.5774
        -0.000          -0.000
  -9613381.976 9  -5887802.92646  23606487.389    23606487.9284   23606500.9974
        -0.000          -0.000
 99  4 10  0 56 30.0000000  0  7  6 26 17 22 21 23 30                0.000000031
 -18305211.684 9 -14251859.64749  20304905.584    20304905.6164   20304913.7304
        -0.000          -0.000
  -6589101.458 9  -4700340.94448  21971899.075    21971899.3014   21971908.9454
        -0.000          -0.000
 -23624948.235 9 -17370628.53148  21223844.864    21223844.3894   21223853.2374
        -0.000          -0.000
  -8234958.047 9  -6163202.89046  23436866.323    23436865.3164   23436877.7244
        -0.000          -0.000
  -3319499.050 8  -1514070.98845  24842265.756    24842265.5684   24842286.9514
        -0.000          -0.000
 -19565836.529 9 -13489781.65748  21555365.738    21555365.4014   21555375.1424
        -0.000          -0.000
  -9511874.171 9  -5808706.06446  23625803.821    23625804.4154   23625817.5414
        -0.000          -0.000
 99  4 10  0 57  0.0000000  0  7  6 26 17 22 21 23 30                0.000000024
 -18286781.598 9 -14237498.54549  20308412.750    20308412.7684   20308420.8474
        -0.000          -0.000
  -6623597.383 9  -4727220.78547  21965334.471    21965334.7164   21965344.4734
        -0.000          -0.000
 -23652889.837 9 -17392401.16848  21218527.633    21218527.1594   21218536.1434
        -0.000          -0.000
  -8258560.446 9  -6181594.36446  23432375.098    23432374.1044   23432386.3884
        -0.000          -0.000
  -3412222.329 9  -1586322.38145  24824621.212    24824620.9324   24824642.0794
        -0.000          -0.000
 -19625832.451 9 -13536531.62848  21543948.803    21543948.4054   21543958.1734
        -0.000          -0.000
  -9410318.913 9  -5729572.24346  23645129.678    23645130.1374   23645143.2364
        -0.000          -0.000
 99  4 10  0 57 30.0000000  0  7  6 26 17 22 21 23 30                0.000000024
 -18267885.422 9 -14222774.24949  20312008.656    20312008.6794   20312016.6524
        -0.000          -0.000
  -6657570.096 9  -4753692.93447  21958869.474    21958869.7614   21958879.5734
        -0.000          -0.000
 -23680665.418 9 -17414044.44748  21213242.081    21213241.6384   21213250.6174
        -0.000          -0.000
  -8281641.764 9  -6199579.77446  23427983.052    23427981.9554   23427994.2984
        -0.000          -0.000
  -3504801.097 9  -1658461.18245  24807004.129    24807003.6994   24807024.8914
        -0.000          -0.000
 -19685431.172 9 -13582972.08048  21532607.202    21532606.9374   21532616.6834
        -0.000          -0.000
  -9308701.031 9  -5650389.62846  23664467.157    23664467.4604   23664480.9514
        -0.000          -0.000
 99  4 10  0 58  0.0000000  0  7  6 26 17 22 21 23 30                0.000000026
 -18248533.237 9 -14207694.61649  20315691.343    20315691.3494   20315699.1904
        -0.000          -0.000
  -6691037.406 9  -4779771.26047  21952500.810    21952501.1204   21952510.9024
        -0.000          -0.000
 -23708302.989 9 -17435580.17748  21207982.826    21207982.3304   21207991.3614
        -0.000          -0.000
  -8304209.503 9  -6217164.99346  23423688.717    23423687.5584   23423699.8774
        -0.000          -0.000
  -3597260.998 9  -1730507.35945  24789409.887    24789409.2394   24789430.1394
        -0.000          -0.000
 -19744664.672 9 -13629127.95048  21521335.349    21521335.0404   21521344.8454
        -0.000          -0.000
  -9207026.417 9  -5571162.83846  23683815.404    23683815.6654   23683829.4954
        -0.000          -0.000
 99  4 10  0 58 30.0000000  0  7  6 26 17 22 21 23 30                0.000000032
 -18228712.363 9 -14192249.77849  20319463.177    20319463.1384   20319470.9824
        -0.000          -0.000
  -6724002.599 9  -4805458.32647  21946227.752    21946228.0534   21946237.7014
        -0.000          -0.000
 -23735810.951 9 -17457014.92448  21202747.986    21202747.5544   21202756.7054
        -0.000          -0.000
  -8326262.156 9  -6234348.85346  23419492.364    23419491.1844   23419503.2564
        -0.000          -0.000
  -3689601.870 8  -1802460.77545  24771837.845    24771837.2944   24771858.0714
        -0.000          -0.000
 -19803545.282 9 -13675008.85748  21510130.614    21510130.3664   21510140.2144
        -0.000          -0.000
  -9105295.590 9  -5491892.23846  23703174.435    23703174.6834   23703188.4114
        -0.000          -0.000
 99  4 10  0 59  0.0000000  0  7  6 26 17 22 21 23 30                0.000000031
 -18208418.934 9 -14176436.72749  20323324.906    20323324.8954   20323332.7914
        -0.000          -0.000
  -6756469.127 9  -4830756.85947  21940049.549    21940049.8104   21940059.2784
        -0.000          -0.000
 -23763201.275 9 -17478358.00148  21197535.607    21197535.2624   21197544.4874
        -0.000          -0.000
  -8347808.019 9  -6251137.78346  23415392.228    23415391.0034   23415403.0234
        -0.000          -0.000
  -3781834.831 8  -1874330.11745  24754285.499    24754285.2974   24754306.3134
        -0.000          -0.000
 -19862077.125 9 -13720617.97848  21498992.501    21498992.1384   21499002.0004
        -0.000          -0.000
  -9003522.613 9  -5412588.78446  23722541.513    23722541.6964   23722555.3474
        -0.000          -0.000
 99  4 10  0 59 30.0000000  0  7  6 26 17 22 21 23 30                0.000000029
 -18187640.778 9 -14160245.96549  20327278.951    20327278.9374   20327286.8914
        -0.000          -0.000
  -6788422.582 9  -4855655.59447  21933968.810    21933969.1094   21933978.6704
        -0.000          -0.000
 -23790454.940 9 -17499594.58648  21192349.503    21192349.1824   21192358.2254
        -0.000          -0.000
  -8368832.133 9  -6267520.16746  23411391.292    23411390.1724   23411402.0144
        -0.000          -0.000
  -3873941.613 8  -1946101.12645  24736756.906    24736757.2214   24736778.4604
        -0.000          -0.000
 -19920235.225 9 -13765935.89448  21487925.359    21487925.0194   21487934.8974
        -0.000          -0.000
  -8901705.114 9  -5333250.65446  23741916.871    23741917.1224   23741930.6644
        -0.000          -0.000
 99  4 10  1  0  0.0000000  0  7  6 26 17 22 21 23 30                0.000000031
 -18166374.547 9 -14143674.88449  20331325.831    20331325.8064   20331333.7824
        -0.000          -0.000
  -6819856.196 9  -4880149.23547  21927987.197    21927987.4504   21927997.0534
        -0.000          -0.000
 -23817559.079 9 -17520714.63948  21187191.928    21187191.5124   21187200.3234
        -0.000          -0.000
  -8389321.489 9  -6283485.86646  23407492.188    23407491.1914   23407502.8684
        -0.000          -0.000
  -3965907.513 8  -2017762.32745  24719256.029    24719256.2464   24719277.3424
        -0.000          -0.000
 -19978006.804 9 -13810952.59848  21476931.799    21476931.4104   21476941.2484
        -0.000          -0.000
  -8799866.146 9  -5253895.76446  23761296.407    23761296.5664   23761310.0454
        -0.000          -0.000
 99  4 10  1  0 30.0000000  0  7  6 26 17 22 21 23 30                0.000000034
 -18144598.804 9 -14126706.78449  20335469.651    20335469.6374   20335477.5894
        -0.000          -0.000
  -6850732.333 9  -4904208.44547  21922111.600    21922111.8084   21922121.3874
        -0.000          -0.000
 -23844511.000 9 -17541716.09248  21182063.144    21182062.6634   21182071.4464
        -0.000          -0.000
  -8409282.924 9  -6299040.19146  23403693.582    23403692.6814   23403704.2894
        -0.000          -0.000
  -4057711.245 8  -2089297.17345  24701786.477    24701786.3204   24701807.0034
        -0.000          -0.000
 -20035350.878 9 -13855636.19848  21466019.411    21466019.0244   21466028.7514
        -0.000          -0.000
  -8698015.344 9  -5174531.69846  23780677.776    23780678.0994   23780691.6974
        -0.000          -0.000
 99  4 10  1  1  0.0000000  0  7  6 26 17 22 21 23 30                0.000000035
 -18122315.533 9 -14109343.19849  20339709.984    20339709.9524   20339718.0014
        -0.000          -0.000
  -6881041.435 9  -4927825.82047  21916344.022    21916344.2214   21916353.7134
        -0.000          -0.000
 -23871311.714 9 -17562599.72048  21176963.019    21176962.5344   21176971.3854
        -0.000          -0.000
  -8428723.112 9  -6314188.33346  23399994.357    23399993.3124   23400004.9894
        -0.000          -0.000
  -4149351.222 8  -2160704.38745  24684347.727    24684347.4834   24684368.0424
        -0.000          -0.000
 -20092256.813 9 -13899978.39348  21455190.476    21455190.0714   21455199.6934
        -0.000          -0.000
  -8596157.548 9  -5095162.14746  23800060.723    23800061.1404   23800074.7544
        -0.000          -0.000
 99  4 10  1  1 30.0000000  0  7  6 26 17 22 21 23 30                0.000000033
 -18099529.709 9 -14091588.02249  20344045.827    20344045.8404   20344054.0024
        -0.000          -0.000
  -6910775.490 9  -4950995.13947  21910685.824    21910686.0374   21910695.4144
        -0.000          -0.000
 -23897958.769 9 -17583363.61748  21171892.120    21171891.6754   21171900.6264
        -0.000          -0.000
  -8447651.156 9  -6328937.43246  23396392.716    23396391.6544   23396403.2514
        -0.000          -0.000
  -4240825.535 8  -2231982.51645  24666940.665    24666940.3524   24666960.5924
        -0.000          -0.000
 -20148722.121 9 -13943977.25048  21444445.289    21444444.9004   21444454.6134
        -0.000          -0.000
  -8494302.159 9  -5015794.45746  23819443.201    23819443.6234   23819457.4824
        -0.000          -0.000
 99  4 10  1  2  0.0000000  0  7  6 26 17 22 21 23 30                0.000000017
 -18076243.512 9 -14073442.95149  20348477.023    20348477.0324   20348485.2394
        -0.000          -0.000
  -6939939.339 9  -4973720.16847  21905136.197    21905136.3504   21905145.6814
        -0.000          -0.000
 -23924457.892 9 -17604012.24848  21166849.399    21166848.9954   21166858.0514
        -0.000          -0.000
  -8466083.488 9  -6343300.26446  23392885.638    23392884.4024   23392895.6764
        -0.000          -0.000
  -4332148.430 9  -2303142.64445  24649562.623    24649562.2244   24649581.8684
        -0.000          -0.000
 -20204754.371 9 -13987638.65648  21433782.518    21433782.2314   21433792.0144
        -0.000          -0.000
  -8392459.550 9  -4936436.75646  23838823.019    23838823.6164   23838837.5734
        -0.000          -0.000
 99  4 10  1  2 30.0000000  0  7  6 26 17 22 21 23 30                0.000000010
 -18052414.459 9 -14054874.85849  20353011.591    20353011.6134   20353019.7884
        -0.000          -0.000
  -6968490.803 9  -4995967.99747  21899702.939    21899703.1114   21899712.4654
        -0.000          -0.000
 -23950759.163 9 -17624506.69148  21161844.473    21161844.0404   21161853.0754
        -0.000          -0.000
  -8483986.143 9  -6357250.36346  23389479.077    23389477.6324   23389488.6454
        -0.000          -0.000
  -4423280.735 9  -2374154.26445  24632220.636    24632220.0904   24632239.3474
        -0.000          -0.000
 -20260320.019 9 -14030936.45948  21423208.725    21423208.3624   21423218.1244
        -0.000          -0.000
  -8290571.765 9  -4857043.81746  23858211.741    23858212.3334   23858226.1164
        -0.000          -0.000
 99  4 10  1  3  0.0000000  0  7  6 26 17 22 21 23 30                0.000000022
 -18028061.791 9 -14035898.75949  20357645.827    20357645.8154   20357653.9304
        -0.000          -0.000
  -6996451.663 9  -5017755.60447  21894382.031    21894382.2454   21894391.6504
        -0.000          -0.000
 -23976844.532 9 -17644832.90448  21156880.626    21156880.1174   21156889.1774
        -0.000          -0.000
  -8501344.559 9  -6370776.35046  23386175.495    23386174.2684   23386185.1654
        -0.000          -0.000
  -4514223.420 8  -2445018.13445  24614914.347    24614913.7914   24614932.9144
        -0.000          -0.000
 -20315438.578 9 -14073885.90048  21412719.916    21412719.5634   21412729.2174
        -0.000          -0.000
  -8188623.836 9  -4777604.05446  23877611.938    23877612.4834   23877626.2234
        -0.000          -0.000
 99  4 10  1  3 30.0000000  0  7  6 26 17 22 21 23 30                0.000000014
 -18003268.442 9 -14016579.27449  20362363.794    20362363.8394   20362371.9094
        -0.000          -0.000
  -7023898.110 9  -5039142.36347  21889159.049    21889159.2414   21889168.7054
        -0.000          -0.000
 -24002787.499 9 -17665048.16548  21151943.872    21151943.3644   21151952.4014
        -0.000          -0.000
  -8518230.208 9  -6383933.98446  23382962.197    23382961.0534   23382971.6314
        -0.000          -0.000
  -4605053.630 9  -2515794.37945  24597629.340    24597628.9274   24597647.6944
        -0.000          -0.000
 -20370200.038 9 -14116557.07548  21402299.078    21402298.7574   21402308.3514
        -0.000          -0.000
  -8086699.021 9  -4698182.27646  23897007.655    23897008.2454   23897022.1514
        -0.000          -0.000
 99  4 10  1  4  0.0000000  0  7  6 26 17 22 21 23 30                0.000000021
 -17977989.177 9 -13996881.16849  20367174.236    20367174.2594   20367182.3414
        -0.000          -0.000
  -7050791.680 9  -5060098.33147  21884041.099    21884041.3934   21884050.9034
        -0.000          -0.000
 -24028543.556 9 -17685117.78848  21147042.745    21147042.1674   21147051.1194
        -0.000          -0.000
  -8534592.022 9  -6396683.40146  23379848.737    23379847.5284   23379857.8434
        -0.000          -0.000
  -4695716.715 8  -2586440.39045  24580375.948    24580375.4524   24580394.1884
        -0.000          -0.000
 -20424569.976 9 -14158923.16948  21391952.837    21391952.4694   21391961.9884
        -0.000          -0.000
  -7984739.324 9  -4618733.33646  23916410.048    23916410.6734   23916424.5244
        -0.000          -0.000
 99  4 10  1  4 30.0000000  0  7  6 26 17 22 21 23 30                0.000000020
 -17952265.671 9 -13976836.88949  20372069.227    20372069.2204   20372077.2844
        -0.000          -0.000
  -7077174.753 9  -5080656.50347  21879020.441    21879020.7104   21879030.2684
        -0.000          -0.000
 -24054151.218 9 -17705071.78248  21142169.692    21142169.1414   21142177.9954
        -0.000          -0.000
  -8550471.164 9  -6409056.72046  23376826.975    23376825.7414   23376836.1794
        -0.000          -0.000
  -4786248.513 8  -2656984.16445  24563147.590    24563147.3374   24563165.7424
        -0.000          -0.000
 -20478592.289 9 -14201018.37948  21381672.708    21381672.3374   21381681.7754
        -0.000          -0.000
  -7882781.564 9  -4539285.88846  23935812.328    23935812.6624   23935826.4194
        -0.000          -0.000
 99  4 10  1  5  0.0000000  0  7  6 26 17 22 21 23 30                0.000000021
 -17926099.093 9 -13956447.36849  20377048.509    20377048.5134   20377056.5924
        -0.000          -0.000
  -7103034.831 9  -5100807.17547  21874099.204    21874099.5664   21874109.2074
        -0.000          -0.000
 -24079621.456 9 -17724918.68748  21137322.778    21137322.2664   21137331.0874
        -0.000          -0.000
  -8565855.848 9  -6421044.73646  23373899.142    23373898.0374   23373908.6204
        -0.000          -0.000
  -4876629.407 9  -2727410.33445  24545948.366    24545948.1444   24545966.1374
        -0.000          -0.000
 -20532257.872 9 -14242835.62548  21371460.381    21371460.0164   21371469.4664
        -0.000          -0.000
  -7780837.253 9  -4459848.91546  23955211.905    23955212.1514   23955225.9124
        -0.000          -0.000
 99  4 10  1  5 30.0000000  0  7  6 26 17 22 21 23 30                0.000000027
 -17899448.352 9 -13935680.56949  20382120.079    20382120.0524   20382128.1144
        -0.000          -0.000
  -7128341.003 9  -5120526.20847  21869283.774    21869284.0594   21869293.5324
        -0.000          -0.000
 -24104945.815 9 -17744651.92448  21132503.628    21132503.1824   21132511.9714
        -0.000          -0.000
  -8580728.304 9  -6432633.63946  23371068.779    23371067.7974   23371078.4584
        -0.000          -0.000
  -4966830.412 9  -2797696.37145  24528783.610    24528783.3074   24528800.8674
        -0.000          -0.000
 -20585527.284 9 -14284344.18148  21361323.464    21361323.1344   21361332.6054
        -0.000          -0.000
  -7678906.164 9  -4380422.26946  23974608.935    23974609.0834   23974622.8644
        -0.000          -0.000
 99  4 10  1  6  0.0000000  0  7  6 26 17 22 21 23 30                0.000000028
 -17872310.499 9 -13914534.21449  20387284.296    20387284.2674   20387292.3564
        -0.000          -0.000
  -7153092.838 9  -5139813.29147  21864573.730    21864574.0004   21864583.3524
        -0.000          -0.000
 -24130128.671 9 -17764274.89648  21127711.475    21127711.0504   21127719.7404
        -0.000          -0.000
  -8595092.362 9  -6443826.34646  23368335.045    23368334.1504   23368345.1734
        -0.000          -0.000
  -5056851.796 9  -2867842.43046  24511653.170    24511652.6564   24511669.9034
        -0.000          -0.000
 -20638385.663 9 -14325532.42448  21351264.705    21351264.3874   21351273.9854
        -0.000          -0.000
  -7576992.456 9  -4301009.14346  23994002.588    23994002.7674   23994016.5314
        -0.000          -0.000
 99  4 10  1  6 30.0000000  0  7  6 26 17 22 21 23 30                0.000000022
 -17844674.443 9 -13892999.64549  20392543.270    20392543.2764   20392551.3534
        -0.000          -0.000
  -7177286.055 9  -5158665.07147  21859969.835    21859970.0884   21859979.4384
        -0.000          -0.000
 -24155172.451 9 -17783789.49448  21122945.953    21122945.4594   21122954.1544
        -0.000          -0.000
  -8608936.235 9  -6454613.73646  23365700.364    23365699.5034   23365710.5954
        -0.000          -0.000
  -5146700.479 9  -2937853.90946  24494555.080    24494554.5344   24494571.8664
        -0.000          -0.000
 -20690830.735 9 -14366398.61748  21341284.652    21341284.3074   21341293.9324
        -0.000          -0.000
  -7475109.245 9  -4221619.79246  24013390.641    24013390.8644   24013404.4024
        -0.000          -0.000
 99  4 10  1  7  0.0000000  0  7  6 26 17 22 21 23 30                0.000000026
 -17816526.089 9 -13871065.87449  20397899.769    20397899.7684   20397907.7484
        -0.000          -0.000
  -7200903.381 9  -5177068.13847  21855475.474    21855475.7694   21855485.0474
        -0.000          -0.000
 -24180067.481 9 -17803188.20148  21118208.472    21118207.9694   21118216.8594
        -0.000          -0.000
  -8622228.107 9  -6464971.00546  23363170.907    23363170.0944   23363180.9704
        -0.000          -0.000
  -5236372.797 9  -3007728.01246  24477490.869    24477490.2674   24477507.4464
        -0.000          -0.000
 -20742854.304 9 -14406936.37048  21331384.790    21331384.4404   21331394.0344
        -0.000          -0.000
  -7373246.275 9  -4142246.18946  24032774.996    24032775.0954   24032788.4464
        -0.000          -0.000
 99  4 10  1  7 30.0000000  0  7  6 26 17 22 21 23 30                0.000000022
 -17787878.525 9 -13848743.11949  20403351.344    20403351.3234   20403359.1554
        -0.000          -0.000
  -7223970.637 9  -5195042.56047  21851085.910    21851086.2384   21851095.4244
        -0.000          -0.000
 -24204804.911 9 -17822464.09048  21113500.950    21113500.4984   21113509.4354
        -0.000          -0.000
  -8634991.630 9  -6474916.59546  23360742.070    23360741.3854   23360752.0304
        -0.000          -0.000
  -5325908.239 9  -3077495.44745  24460452.351    24460451.7834   24460469.0134
        -0.000          -0.000
 -20794482.797 9 -14447166.28148  21321560.087    21321559.7424   21321569.2644
        -0.000          -0.000
  -7271415.100 9  -4062897.41046  24052153.212    24052153.2204   24052166.4094
        -0.000          -0.000
 99  4 10  1  8  0.0000000  0  7  6 26 17 22 21 23 30                0.000000023
 -17758738.797 9 -13826036.85749  20408896.628    20408896.5754   20408904.2784
        -0.000          -0.000
  -7246480.738 9  -5212582.83847  21846802.336    21846802.6334   21846811.8084
        -0.000          -0.000
 -24229367.604 9 -17841603.81948  21108826.778    21108826.3044   21108835.2104
        -0.000          -0.000
  -8647212.981 9  -6484439.69246  23358416.217    23358415.6454   23358426.2224
        -0.000          -0.000
  -5415305.246 8  -3147155.03845  24443439.689    24443439.3304   24443456.6914
        -0.000          -0.000
 -20845715.650 9 -14487087.90548  21311810.808    21311810.4414   21311819.9214
        -0.000          -0.000
  -7169591.310 9  -3983554.33946  24071529.869    24071529.8464   24071543.1084
        -0.000          -0.000
 99  4 10  1  8 30.0000000  0  7  6 26 17 22 21 23 30                0.000000035
 -17729112.488 9 -13802951.44149  20414534.427    20414534.3524   20414542.0784
        -0.000          -0.000
  -7268437.004 9  -5229691.55747  21842624.263    21842624.5464   21842633.6074
        -0.000          -0.000
 -24253758.458 9 -17860609.65948  21104185.272    21104184.8274   21104193.6584
        -0.000          -0.000
  -8658886.382 8  -6493535.81146  23356194.896    23356194.1544   23356204.8634
        -0.000          -0.000
  -5504566.618 8  -3216708.97045  24426452.975    24426452.8794   24426470.0344
        -0.000          -0.000
 -20896559.417 9 -14526706.34448  21302135.614    21302135.2294   21302144.6634
        -0.000          -0.000
  -7067782.508 9  -3904222.94246  24090903.449    24090903.3854   24090916.8384
        -0.000          -0.000
 99  4 10  1  9  0.0000000  0  7  6 26 17 22 21 23 30                0.000000043
 -17699023.151 9 -13779505.22349  20420260.302    20420260.2284   20420267.8984
        -0.000          -0.000
  -7289849.051 9  -5246376.18847  21838549.580    21838549.8474   21838559.0024
        -0.000          -0.000
 -24277992.764 9 -17879493.51248  21099573.699    21099573.2194   21099581.9164
        -0.000          -0.000
  -8670045.619 8  -6502231.24746  23354070.617    23354070.1344   23354081.5264
        -0.000          -0.000
  -5593690.856 8  -3286156.02245  24409492.795    24409492.8414   24409509.8064
        -0.000          -0.000
 -20947017.343 9 -14566024.11848  21292533.836    21292533.4064   21292542.8204
        -0.000          -0.000
  -6965999.307 9  -3824911.55146  24110271.968    24110272.0164   24110285.7554
        -0.000          -0.000
 99  4 10  1  9 30.0000000  0  7  6 26 17 22 21 23 30                0.000000048
 -17668459.330 9 -13755689.27049  20426076.411    20426076.3324   20426084.0514
        -0.000          -0.000
  -7310704.533 9  -5262627.12647  21834580.873    21834581.1354   21834590.2604
        -0.000          -0.000
 -24302063.927 9 -17898250.23848  21094993.229    21094992.7104   21095001.3394
        -0.000          -0.000
  -8680699.352 9  -6510532.81146  23352043.166    23352042.6384   23352054.2264
        -0.000          -0.000
  -5682645.868 8  -3355471.22445  24392564.548    24392564.6704   24392581.5674
        -0.000          -0.000
 -20997070.530 9 -14605026.51848  21283009.085    21283008.6104   21283018.0044
        -0.000          -0.000
  -6864238.316 8  -3745617.40545  24129636.392    24129636.4014   24129650.1954
        -0.000          -0.000
 99  4 10  1 10  0.0000000  0  7  6 26 17 22 21 23 30                0.000000047
 -17637416.160 9 -13731499.79949  20431983.615    20431983.5424   20431991.3324
        -0.000          -0.000
  -7330996.497 9  -5278438.94947  21830719.420    21830719.7274   21830728.7754
        -0.000          -0.000
 -24326000.740 9 -17916902.27748  21090438.222    21090437.7244   21090446.3794
        -0.000          -0.000
  -8690845.898 9  -6518439.19646  23350112.460    23350111.8534   23350123.1414
        -0.000          -0.000
  -5771419.052 8  -3424644.75445  24375671.149    24375671.3544   24375687.9334
        -0.000          -0.000
 -21046706.562 9 -14643703.85048  21273563.559    21273563.0994   21273572.4174
        -0.000          -0.000
  -6762516.820 8  -3666354.07245  24148993.050    24148993.1704   24149007.2004
        -0.000          -0.000
 99  4 10  1 10 30.0000000  0  7  6 26 17 22 21 23 30                0.000000035
 -17605876.141 9 -13706923.18249  20437985.326    20437985.3084   20437993.1224
        -0.000          -0.000
  -7350716.730 9  -5293805.27847  21826966.892    21826967.1654   21826976.1724
        -0.000          -0.000
 -24349802.383 9 -17935448.97948  21085908.958    21085908.4304   21085917.0944
        -0.000          -0.000
  -8700503.283 9  -6525964.41146  23348275.025    23348274.3164   23348285.0364
        -0.000          -0.000
  -5859998.759 9  -3493667.51946  24358815.095    24358815.1634   24358831.7104
        -0.000          -0.000
 -21095926.201 9 -14682056.74248  21264197.307    21264196.9034   21264206.0354
        -0.000          -0.000
  -6660829.647 8  -3587117.50745  24168343.065    24168343.4044   24168357.6904
        -0.000          -0.000
 99  4 10  1 11  0.0000000  0  7  6 26 17 22 21 23 30                0.000000027
 -17573812.944 9 -13681938.89749  20444086.704    20444086.7034   20444094.5784
        -0.000          -0.000
  -7369838.690 9  -5308705.43847  21823327.947    21823328.2144   21823337.3294
        -0.000          -0.000
 -24373440.286 9 -17953868.09148  21081410.759    21081410.2434   21081418.8924
        -0.000          -0.000
  -8709658.903 9  -6533098.61446  23346532.677    23346532.0824   23346542.3844
        -0.000          -0.000
  -5948360.603 9  -3562520.51246  24342000.873    24342000.4744   24342017.0994
        -0.000          -0.000
 -21144719.334 9 -14720077.26348  21254912.315    21254911.7914   21254920.8844
        -0.000          -0.000
  -6559148.555 8  -3507885.66345  24187691.973    24187692.4194   24187707.2894
        -0.000          -0.000
 99  4 10  1 11 30.0000000  0  7  6 26 17 22 21 23 30                0.000000032
 -17541216.883 9 -13656539.38449  20450289.612    20450289.5594   20450297.3714
        -0.000          -0.000
  -7388355.194 9  -5323133.79947  21819804.260    21819804.5744   21819813.7004
        -0.000          -0.000
 -24396897.610 9 -17972146.49548  21076946.966    21076946.4734   21076955.1004
        -0.000          -0.000
  -8718284.501 9  -6539819.84446  23344891.052    23344890.5894   23344900.9174
        -0.000          -0.000
  -6036513.018 9  -3631210.33946  24325225.910    24325225.4274   24325242.1394
        -0.000          -0.000
 -21193078.737 9 -14757759.83848  21245709.617    21245709.1924   21245718.3344
        -0.000          -0.000
  -6457478.180 8  -3428662.20345  24207038.600    24207039.4064   24207054.8644
        -0.000          -0.000
 99  4 10  1 12  0.0000000  0  7  6 26 17 22 21 23 30                0.000000031
 -17508122.517 9 -13630751.57949  20456587.253    20456587.1994   20456594.9454
        -0.000          -0.000
  -7406297.558 9  -5337114.79348  21816389.960    21816390.2874   21816399.2984
        -0.000          -0.000
 -24420210.105 9 -17990312.05248  21072510.744    21072510.2054   21072518.8854
        -0.000          -0.000
  -8726403.691 9  -6546146.47046  23343345.561    23343345.2594   23343356.2344
        -0.000          -0.000
  -6124507.353 9  -3699776.97746  24308480.918    24308480.5594   24308497.2364
        -0.000          -0.000
 -21241036.560 9 -14795129.50348  21236583.519    21236583.0704   21236592.1814
        -0.000          -0.000
  -6355849.482 8  -3349471.14045  24226377.870    24226378.6684   24226394.4454
        -0.000          -0.000
 99  4 10  1 12 30.0000000  0  7  6 26 17 22 21 23 30                0.000000038
 -17474546.574 9 -13604588.52249  20462976.659    20462976.5864   20462984.2514
        -0.000          -0.000
  -7423659.705 9  -5350643.65248  21813086.044    21813086.3354   21813095.3124
        -0.000          -0.000
 -24443367.317 9 -18008356.59948  21068103.993    21068103.4464   21068112.1854
        -0.000          -0.000
  -8734020.735 9  -6552081.78246  23341895.577    23341895.3234   23341907.0594
        -0.000          -0.000
  -6212338.840 9  -3768216.72946  24291766.684    24291766.3214   24291783.2984
        -0.000          -0.000
 -21288605.902 9 -14832196.45648  21227531.230    21227530.8364   21227539.8644
        -0.000          -0.000
  -6254253.762 8  -3270305.80545  24245710.827    24245711.5534   24245727.8404
        -0.000          -0.000
 99  4 10  1 13  0.0000000  0  7  6 26 17 22 21 23 30                0.000000054
 -17440516.330 9 -13578071.45049  20469452.385    20469452.3034   20469459.9954
        -0.000          -0.000
  -7440447.439 9  -5363724.91348  21809891.241    21809891.5174   21809900.6684
        -0.000          -0.000
 -24466378.078 9 -18026287.04148  21063725.105    21063724.5774   21063733.3214
        -0.000          -0.000
  -8741120.387 8  -6557613.96446  23340544.163    23340543.9684   23340556.1704
        -0.000          -0.000
  -6300018.639 8  -3836538.29446  24275081.308    24275081.0534   24275098.2234
        -0.000          -0.000
 -21335790.690 9 -14868963.73548  21218552.353    21218551.9124   21218560.7304
        -0.000          -0.000
  -6152727.999 9  -3191194.97746  24265030.967    24265031.6174   24265047.8914
        -0.000          -0.000
 99  4 10  1 13 30.0000000  0  7  6 26 17 22 21 23 30                0.000000066
 -17406053.613 9 -13551217.40249  20476010.374    20476010.3134   20476018.0384
        -0.000          -0.000
  -7456675.668 9  -5376370.21947  21806802.944    21806803.2944   21806812.4294
        -0.000          -0.000
 -24489250.763 9 -18044109.87548  21059372.734    21059372.2004   21059380.7244
        -0.000          -0.000
  -8747713.521 8  -6562751.44146  23339289.403    23339289.1474   23339301.6094
        -0.000          -0.000
  -6387568.191 8  -3904758.36945  24258420.492    24258420.3864   24258437.6054
        -0.000          -0.000
 -21382591.017 9 -14905431.44348  21209646.520    21209646.0284   21209654.8364
        -0.000          -0.000
  -6051289.225 9  -3112151.91046  24284334.629    24284335.1044   24284351.2814
        -0.000          -0.000
 99  4 10  1 14  0.0000000  0  7  6 26 17 22 21 23 30                0.000000078
 -17371148.856 9 -13524018.91649  20482652.541    20482652.4454   20482660.2124
        -0.000          -0.000
  -7472340.696 9  -5388576.65647  21803822.052    21803822.2884   21803831.2214
        -0.000          -0.000
 -24511986.363 9 -18061825.89148  21055046.514    21055045.7954   21055054.2694
        -0.000          -0.000
  -8753808.312 9  -6567500.60746  23338129.475    23338129.3794   23338141.7794
        -0.000          -0.000
  -6474968.059 8  -3972861.79045  24241788.712    24241788.5594   24241805.2354
        -0.000          -0.000
 -21429009.193 9 -14941601.37948  21200813.334    21200812.9024   21200821.6964
        -0.000          -0.000
  -5949921.545 9  -3033164.28946  24303624.674    24303625.1804   24303641.1614
        -0.000          -0.000
 99  4 10  1 14 30.0000000  0  7  6 26 17 22 21 23 30                0.000000094
 -17335788.010 9 -13496465.03049  20489381.463    20489381.4164   20489389.2104
        -0.000          -0.000
  -7487432.423 9  -5400336.36647  21800950.129    21800950.4064   21800959.1904
        -0.000          -0.000
 -24534567.293 9 -18079421.39448  21050749.295    21050748.7004   21050757.2184
        -0.000          -0.000
  -8759400.272 9  -6571857.97746  23337065.555    23337065.4064   23337077.5454
        -0.000          -0.000
  -6562206.384 8  -4040839.31145  24225187.455    24225187.1934   24225203.6234
        -0.000          -0.000
 -21475036.425 9 -14977466.67548  21192054.698    21192054.1674   21192063.0264
        -0.000          -0.000
  -5848617.093 9  -2954225.90646  24322902.431    24322902.7754   24322919.1634
        -0.000          -0.000
 99  4 10  1 15  0.0000000  0  7  6 26 17 22 21 23 30                0.000000091
 -17299963.538 9 -13468549.87349  20496198.595    20496198.5374   20496206.4204
        -0.000          -0.000
  -7501970.599 9  -5411664.74347  21798183.649    21798183.8414   21798192.4994
        -0.000          -0.000
 -24557000.023 9 -18096901.41048  21046480.546    21046479.9654   21046488.3494
        -0.000          -0.000
  -8764498.568 9  -6575830.69746  23336095.760    23336095.5764   23336107.3914
        -0.000          -0.000
  -6649307.493 8  -4108709.93045  24208612.018    24208611.8774   24208628.1744
        -0.000          -0.000
 -21520671.176 9 -15013026.15949  21183370.417    21183369.9984   21183378.9854
        -0.000          -0.000
  -5747392.785 9  -2875349.97546  24342164.692    24342165.0504   24342181.9174
        -0.000          -0.000
 99  4 10  1 15 30.0000000  0  7  6 26 17 22 21 23 30                0.000000086
 -17263616.018 9 -13440227.13349  20503115.135    20503115.1294   20503123.2514
        -0.000          -0.000
  -7515909.305 9  -5422526.01447  21795531.230    21795531.4274   21795539.9754
        -0.000          -0.000
 -24579254.284 9 -18114242.35948  21042245.732    21042245.1474   21042253.3864
        -0.000          -0.000
  -8769079.786 9  -6579400.47946  23335224.320    23335224.0014   23335235.6854
        -0.000          -0.000
  -6736224.807 9  -4176437.35145  24192072.231    24192072.0374   24192087.7414
        -0.000          -0.000
 -21565862.597 9 -15048240.17349  21174770.777    21174770.3324   21174779.3054
        -0.000          -0.000
  -5646194.902 8  -2796494.65245  24361421.982    24361422.3384   24361439.5624
        -0.000          -0.000
 99  4 10  1 16  0.0000000  0  7  6 26 17 22 21 23 30                0.000000072
 -17226750.887 9 -13411501.06849  20510130.357    20510130.3424   20510138.5864
        -0.000          -0.000
  -7529243.763 9  -5432916.45747  21792993.773    21792993.9244   21793002.5514
        -0.000          -0.000
 -24601358.396 9 -18131466.29948  21038039.523    21038038.9484   21038046.9994
        -0.000          -0.000
  -8773164.490 9  -6582583.35046  23334447.396    23334446.9184   23334458.4414
        -0.000          -0.000
  -6822940.936 9  -4244008.01246  24175570.782    24175570.6014   24175585.9804
        -0.000          -0.000
 -21610610.995 9 -15083108.98149  21166255.284    21166254.8874   21166263.8644
        -0.000          -0.000
  -5545041.291 9  -2717673.82245  24380671.391    24380671.8214   24380688.2414
        -0.000          -0.000
 99  4 10  1 16 30.0000000  0  7  6 26 17 22 21 23 30                0.000000050
 -17189385.635 9 -13382385.29449  20517240.746    20517240.7704   20517249.0434
        -0.000          -0.000
  -7541972.747 9  -5442835.06547  21790571.388    21790571.5524   21790580.2744
        -0.000          -0.000
 -24623303.096 9 -18148566.02448  21033863.589    21033862.9904   21033870.9644
        -0.000          -0.000
  -8776753.632 9  -6585380.07046  23333764.766    23333764.2814   23333775.2814
        -0.000          -0.000
  -6909462.919 9  -4311427.39846  24159106.492    24159106.0194   24159121.1514
        -0.000          -0.000
 -21654920.418 9 -15117635.73349  21157823.382    21157822.9744   21157831.9624
        -0.000          -0.000
  -5443950.348 9  -2638901.83245  24399908.649    24399909.0934   24399925.4224
        -0.000          -0.000
 99  4 10  1 17  0.0000000  0  7  6 26 17 22 21 23 30                0.000000042
 -17151487.740 9 -13352854.47349  20524452.499    20524452.5174   20524460.8274
        -0.000          -0.000
  -7554061.598 9  -5452254.90747  21788270.654    21788270.8844   21788279.7704
        -0.000          -0.000
 -24645052.991 9 -18165513.97348  21029724.533    21029723.9954   21029732.0404
        -0.000          -0.000
  -8779814.427 9  -6587765.09546  23333182.874    23333182.1734   23333192.5564
        -0.000          -0.000
  -6995735.783 9  -4378652.67146  24142689.186    24142688.7044   24142703.9154
        -0.000          -0.000
 -21698755.714 9 -15151793.03549  21149481.468    21149481.2094   21149490.3784
        -0.000          -0.000
  -5342894.951 9  -2560157.53445  24419139.489    24419139.8704   24419155.5814
        -0.000          -0.000
 99  4 10  1 17 30.0000000  0  7  6 26 17 22 21 23 30                0.000000039
 -17113079.766 9 -13322926.20449  20531761.344    20531761.3774   20531769.6504
        -0.000          -0.000
  -7565531.056 9  -5461192.10447  21786088.008    21786088.2654   21786097.2054
        -0.000          -0.000
 -24666635.493 9 -18182331.46248  21025617.563    21025617.0384   21025624.9774
        -0.000          -0.000
  -8782367.647 9  -6589754.60146  23332697.532    23332696.5604   23332706.5574
        -0.000          -0.000
  -7081766.269 9  -4445689.08746  24126318.099    24126317.4994   24126332.7154
        -0.000          -0.000
 -21742146.089 9 -15185603.63949  21141224.516    21141224.2654   21141233.5094
        -0.000          -0.000
  -5241898.228 9  -2481458.94445  24438358.974    24438359.2854   24438374.4434
        -0.000          -0.000
 99  4 10  1 18  0.0000000  0  7  6 26 17 22 21 23 30                0.000000025
 -17074191.953 9 -13292624.02749  20539161.618    20539161.6344   20539169.8374
        -0.000          -0.000
  -7576427.496 9  -5469682.79847  21784014.396    21784014.6514   21784023.6584
        -0.000          -0.000
 -24688062.777 9 -18199028.00148  21021540.049    21021539.4514   21021547.4584
        -0.000          -0.000
  -8784428.082 9  -6591360.12646  23332305.385    23332304.2934   23332314.3584
        -0.000          -0.000
  -7167599.086 9  -4512571.49746  24109984.463    24109983.6364   24109999.0134
        -0.000          -0.000
 -21785146.560 9 -15219110.43249  21133041.885    21133041.5204   21133050.7094
        -0.000          -0.000
  -5140999.764 9  -2402836.92745  24457559.339    24457559.7534   24457574.4284
        -0.000          -0.000
 99  4 10  1 18 30.0000000  0  7  6 26 17 22 21 23 30                0.000000024
 -17034787.878 9 -13261919.57249  20546660.053    20546660.0534   20546668.2024
        -0.000          -0.000
  -7586732.062 9  -5477712.30347  21782053.312    21782053.6184   21782062.8704
        -0.000          -0.000
 -24709295.182 9 -18215572.69949  21017499.573    21017498.9984   21017507.1494
        -0.000          -0.000
  -8785944.663 9  -6592541.85546  23332016.762    23332015.5914   23332025.6884
        -0.000          -0.000
  -7253228.065 9  -4579295.07146  24093689.411    24093688.7474   24093704.0474
        -0.000          -0.000
 -21827741.302 9 -15252301.08349  21124936.389    21124936.0114   21124945.0544
        -0.000          -0.000
  -5040175.452 8  -2324272.67845  24476745.989    24476746.3504   24476760.5534
        -0.000          -0.000
 99  4 10  1 19  0.0000000  0  7  6 26 17 22 21 23 30                0.000000008
 -16994889.405 9 -13230829.86649  20554252.434    20554252.4174   20554260.5394
        -0.000          -0.000
  -7596485.603 9  -5485312.40547  21780197.207    21780197.5234   21780206.8964
        -0.000          -0.000
 -24730393.679 9 -18232013.04849  21013484.692    21013484.1084   21013492.2534
        -0.000          -0.000
  -8786949.332 9  -6593324.73446  23331825.721    23331824.5634   23331834.3754
        -0.000          -0.000
  -7338681.656 9  -4645881.98646  24077427.827    24077427.3144   24077442.4344
        -0.000          -0.000
 -21869954.144 9 -15285194.13949  21116903.525    21116903.0634   21116912.0584
        -0.000          -0.000
  -4939456.741 8  -2245790.75545  24495912.582    24495912.6234   24495926.8664
        -0.000          -0.000
 99  4 10  1 19 30.0000000  0  7  6 26 17 22 21 23 30                0.000000001
 -16954470.168 9 -13199334.37649  20561943.925    20561943.9334   20561951.8634
        -0.000          -0.000
  -7605655.054 9  -5492457.39147  21778452.443    21778452.7214   21778461.8824
        -0.000          -0.000
 -24751339.018 9 -18248334.04549  21009498.938    21009498.3274   21009506.4434
        -0.000          -0.000
  -8787401.336 9  -6593676.94046  23331740.075    23331738.7944   23331748.3614
        -0.000          -0.000
  -7423944.486 9  -4712320.26746  24061202.970    24061202.3774   24061217.2144
        -0.000          -0.000
 -21911765.595 9 -15317774.41949  21108946.883    21108946.5104   21108955.5084
        -0.000          -0.000
  -4838819.197 8  -2167372.06745  24515063.276    24515063.3554   24515077.7674
        -0.000          -0.000
 99  4 10  1 20  0.0000000  0  7  6 26 17 22 21 23 30               -0.000000005
 -16913561.989 9 -13167457.89849  20569728.466    20569728.4834   20569736.3474
        -0.000          -0.000
  -7614246.446 9  -5499151.95147  21776817.791    21776817.9724   21776826.8654
        -0.000          -0.000
 -24772138.587 9 -18264541.48149  21005540.742    21005540.1474   21005548.4724
        -0.000          -0.000
  -8787321.362 9  -6593614.62646  23331755.255    23331754.0334   23331763.5374
        -0.000          -0.000
  -7509028.854 9  -4778619.46346  24045011.960    24045011.1274   24045026.0394
        -0.000          -0.000
 -21953177.398 9 -15350043.29249  21101066.467    21101066.0664   21101074.9204
        -0.000          -0.000
  -4738275.880 8  -2089026.77545  24534196.460    24534196.4584   24534210.8594
        -0.000          -0.000
 99  4 10  1 20 30.0000000  0  7  6 26 17 22 21 23 30               -0.000000005
 -16872160.907 9 -13135197.33849  20577606.847    20577606.8494   20577614.6914
        -0.000          -0.000
  -7622233.544 9  -5505375.62148  21775297.848    21775298.0154   21775306.8854
        -0.000          -0.000
 -24792787.812 9 -18280631.76649  21001611.220    21001610.6574   21001619.2504
        -0.000          -0.000
  -8786716.376 9  -6593143.21246  23331870.833    23331869.3534   23331878.6274
        -0.000          -0.000
  -7593894.631 8  -4844748.32246  24028861.533    24028860.9374   24028876.1864
        -0.000          -0.000
 -21994145.556 9 -15381966.47149  21093270.377    21093270.0234   21093278.8004
        -0.000          -0.000
  -4637799.953 8  -2010734.05545  24553316.595    24553316.3934   24553331.0134
        -0.000          -0.000
 99  4 10  1 21  0.0000000  0  7  6 26 17 22 21 23 30               -0.000000020
 -16830289.865 9 -13102570.56149  20585574.530    20585574.5044   20585582.5134
        -0.000          -0.000
  -7629634.799 9  -5511142.79748  21773889.374    21773889.5604   21773898.5154
        -0.000          -0.000
 -24813306.597 9 -18296620.40048  20997706.503    20997705.9714   20997714.6174
        -0.000          -0.000
  -8785636.263 9  -6592301.56146  23332076.129    23332074.8014   23332084.0994
        -0.000          -0.000
  -7678558.713 9  -4910720.01845  24012749.806    24012749.3004   24012764.6244
        -0.000          -0.000
 -22034698.363 9 -15413565.98949  21085553.389    21085553.0254   21085561.8394
        -0.000          -0.000
  -4537407.769 8  -1932506.52345  24572420.508    24572420.4364   24572435.2194
        -0.000          -0.000
 99  4 10  1 21 30.0000000  0  7  6 26 17 22 21 23 30               -0.000000034
 -16787937.161 9 -13069568.46749  20593633.843    20593633.8844   20593642.0704
        -0.000          -0.000
  -7636423.544 9  -5516432.68848  21772597.398    21772597.6544   21772606.6374
        -0.000          -0.000
 -24833652.073 9 -18312473.98048  20993834.756    20993834.2614   20993842.8894
        -0.000          -0.000
  -8784075.093 9  -6591085.03746  23332373.132    23332372.0144   23332381.4864
        -0.000          -0.000
  -7763018.685 9  -4976532.67645  23996677.420    23996676.7574   23996691.8514
        -0.000          -0.000
 -22074816.203 9 -15444826.57249  21077919.301    21077918.8604   21077927.7544
        -0.000          -0.000
  -4437079.817 8  -1854329.05545  24591512.352    24591512.4504   24591527.0944
        -0.000          -0.000
 99  4 10  1 22  0.0000000  0  7  6 26 17 22 21 23 30               -0.000000045
 -16745092.367 9 -13036182.93849  20601786.938    20601787.0004   20601795.2234
        -0.000          -0.000
  -7642595.263 9  -5521241.78548  21771423.052    21771423.2684   21771432.1724
        -0.000          -0.000
 -24853802.047 9 -18328175.23149  20990000.391    20989999.8364   20990008.5644
        -0.000          -0.000
  -8782032.459 9  -6589493.37646  23332762.093    23332760.9254   23332770.5834
        -0.000          -0.000
  -7847258.283 9  -5042173.59746  23980646.718    23980646.2154   23980661.1854
        -0.000          -0.000
 -22114476.889 9 -15475730.93649  21070372.084    21070371.6754   21070380.6354
        -0.000          -0.000
  -4336796.218 8  -1776186.17045  24610596.084    24610596.0884   24610610.4704
        -0.000          -0.000
 99  4 10  1 22 30.0000000  0  7  6 26 17 22 21 23 30               -0.000000055
 -16701733.312 9 -13002396.68449  20610037.972    20610038.0474   20610046.2924
        -0.000          -0.000
  -7648153.758 9  -5525573.02747  21770365.195    21770365.4294   21770374.3794
        -0.000          -0.000
 -24873759.300 9 -18343726.32649  20986202.614    20986202.0354   20986210.9594
        -0.000          -0.000
  -8779494.739 9  -6587515.94546  23333245.076    23333243.9214   23333253.6034
        -0.000          -0.000
  -7931283.550 9  -5107647.53546  23964656.771    23964656.4244   23964671.6314
        -0.000          -0.000
 -22153693.655 9 -15506289.39249  21062909.404    21062908.9224   21062917.9164
        -0.000          -0.000
  -4236561.230 8  -1698081.13245  24629670.416    24629670.4044   24629684.5584
        -0.000          -0.000
 99  4 10  1 23  0.0000000  0  7  6 26 17 22 21 23 30               -0.000000059
 -16657864.064 9 -12968212.88049  20618386.259    20618386.2584   20618394.4244
        -0.000          -0.000
  -7653107.673 9  -5529433.15247  21769422.426    21769422.6124   21769431.5064
        -0.000          -0.000
 -24893520.957 9 -18359125.00149  20982442.045    20982441.4984   20982450.3984
        -0.000          -0.000
  -8776444.405 9  -6585139.04846  23333825.125    23333824.1014   23333834.0004
        -0.000          -0.000
  -8015120.258 9  -5172974.51846  23948702.806    23948702.5984   23948717.7894
        -0.000          -0.000
 -22192489.308 9 -15536519.70549  21055526.689    21055526.2634   21055535.3414
        -0.000          -0.000
  -4136397.671 9  -1620031.77845  24648731.003    24648730.9884   24648745.4164
        -0.000          -0.000
 99  4 10  1 23 30.0000000  0  7  6 26 17 22 21 23 30               -0.000000056
 -16613500.648 9 -12933644.00349  20626828.372    20626828.3844   20626836.4954
        -0.000          -0.000
  -7657471.777 9  -5532833.67447  21768591.867    21768592.0474   21768600.8194
        -0.000          -0.000
 -24913099.497 9 -18374380.97148  20978716.274    20978715.7184   20978724.5584
        -0.000          -0.000
  -8772870.413 9  -6582354.12246  23334504.983    23334503.9794   23334513.8644
        -0.000          -0.000
  -8098775.065 9  -5238159.76246  23932783.634    23932783.4094   23932798.4084
        -0.000          -0.000
 -22230875.074 9 -15566430.63549  21048222.029    21048221.6494   21048230.7084
        -0.000          -0.000
  -4036323.370 8  -1542051.96945  24667774.396    24667774.5054   24667789.2244
        -0.000          -0.000
 99  4 10  1 24  0.0000000  0  7  6 26 17 22 21 23 30               -0.000000032
 -16568630.594 9 -12898680.34549  20635366.872    20635366.8834   20635374.9774
        -0.000          -0.000
  -7661240.948 9  -5535770.65047  21767874.597    21767874.7944   21767883.3714
        -0.000          -0.000
 -24932497.497 9 -18389496.28648  20975024.779    20975024.3234   20975033.1774
        -0.000          -0.000
  -8768746.085 9  -6579140.38846  23335289.667    23335288.7364   23335298.5614
        -0.000          -0.000
  -8182231.600 9  -5303190.49946  23916901.987    23916901.8844   23916916.8244
        -0.000          -0.000
 -22268855.843 9 -15596025.97449  21040994.568    21040994.1934   21041003.1194
        -0.000          -0.000
  -3936339.314 8  -1464142.44145  24686800.545    24686800.7844   24686815.5374
        -0.000          -0.000
 99  4 10  1 24 30.0000000  0  7  6 26 17 22 21 23 30               -0.000000006
 -16523285.581 9 -12863346.58949  20643995.791    20643995.7594   20644003.8324
        -0.000          -0.000
  -7664435.474 9  -5538259.86248  21767266.689    21767266.9444   21767275.5164
        -0.000          -0.000
 -24951759.205 9 -18404505.39148  20971359.519    20971359.0304   20971367.6344
        -0.000          -0.000
  -8764102.951 9  -6575522.36546  23336172.916    23336172.0154   23336182.5334
        -0.000          -0.000
  -8265527.900 9  -5368096.37146  23901051.277    23901051.1764   23901065.4414
        -0.000          -0.000
 -22306466.676 9 -15625333.05649  21033837.372    21033837.0384   21033845.8944
        -0.000          -0.000
  -3836490.195 8  -1386338.10245  24705801.251    24705801.4594   24705816.4264
        -0.000          -0.000
 99  4 10  1 25  0.0000000  0  7  6 26 17 22 21 23 30                0.000000021
 -16477475.424 9 -12827650.39349  20652713.087    20652713.0744   20652721.3404
        -0.000          -0.000
  -7667051.433 9  -5540298.22948  21766768.974    21766769.1904   21766777.8444
        -0.000          -0.000
 -24970893.057 9 -18419414.86049  20967718.635    20967718.0514   20967726.5784
        -0.000          -0.000
  -8758957.862 9  -6571513.20346  23337151.802    23337150.8764   23337161.8854
        -0.000          -0.000
  -8348665.615 9  -5432878.67946  23885230.918    23885230.5294   23885244.4044
        -0.000          -0.000
 -22343710.046 9 -15654353.79949  21026750.174    21026749.8944   21026758.6384
        -0.000          -0.000
  -3736780.743 8  -1308642.57645  24724775.587    24724775.6544   24724790.4724
        -0.000          -0.000
 99  4 10  1 25 30.0000000  0  7  6 26 17 22 21 23 30                0.000000051
 -16431189.760 9 -12791583.65949  20661520.877    20661520.9174   20661529.2214
        -0.000          -0.000
  -7669071.052 9  -5541871.92548  21766384.615    21766384.8354   21766393.5904
        -0.000          -0.000
 -24989904.097 9 -18434228.64149  20964100.937    20964100.3654   20964109.0134
        -0.000          -0.000
  -8753313.389 9  -6567114.91446  23338226.144    23338225.1234   23338236.4964
        -0.000          -0.000
  -8431610.571 9  -5497510.76446  23869446.571    23869446.1084   23869460.1434
        -0.000          -0.000
 -22380567.505 9 -15683073.81749  21019736.405    21019736.0404   21019744.7914
        -0.000          -0.000
  -3637197.826 8  -1231045.62345  24743725.514    24743725.5054   24743740.2364
        -0.000          -0.000
 99  4 10  1 26  0.0000000  0  7  6 26 17 22 21 23 30                0.000000068
 -16384435.362 9 -12755151.68549  20670417.996    20670418.0374   20670426.4274
        -0.000          -0.000
  -7670492.316 9  -5542979.35648  21766114.205    21766114.3834   21766123.0934
        -0.000          -0.000
 -25008803.964 9 -18448955.79549  20960504.421    20960503.9254   20960512.4554
        -0.000          -0.000
  -8747194.986 9  -6562347.32946  23339390.729    23339389.5664   23339401.0404
        -0.000          -0.000
  -8514352.641 9  -5561984.79846  23853700.641    23853700.4774   23853714.7074
        -0.000          -0.000
 -22417022.019 9 -15711479.87649  21012799.150    21012798.8224   21012807.6654
        -0.000          -0.000
  -3537752.341 8  -1153555.74545  24762649.136    24762649.2754   24762664.0894
        -0.000          -0.000
 99  4 10  1 26 30.0000000  0  7  6 26 17 22 21 23 30                0.000000081
 -16337197.813 9 -12718343.22049  20679407.032    20679407.0244   20679415.3824
        -0.000          -0.000
  -7671287.507 9  -5543598.94148  21765962.755    21765962.9874   21765971.7174
        -0.000          -0.000
 -25027563.578 9 -18463573.66349  20956934.661    20956934.0874   20956942.4884
        -0.000          -0.000
  -8740605.685 9  -6557212.83346  23340644.490    23340643.4694   23340654.8334
        -0.000          -0.000
  -8596854.101 9  -5626271.32346  23838001.017    23838000.7364   23838015.0954
        -0.000          -0.000
 -22453057.109 9 -15739559.10249  21005941.854    21005941.5694   21005950.3384
        -0.000          -0.000
  -3438430.163 8  -1076162.00545  24781549.621    24781549.9304   24781564.7294
        -0.000          -0.000
 99  4 10  1 27  0.0000000  0  7  6 26 17 22 21 23 30                0.000000075
 -16289490.123 9 -12681168.40649  20688485.528    20688485.5004   20688493.9464
        -0.000          -0.000
  -7671481.228 9  -5543749.83247  21765925.838    21765926.0434   21765934.8664
        -0.000          -0.000
 -25046191.840 9 -18478089.16848  20953389.759    20953389.2404   20953397.5464
        -0.000          -0.000
  -8733555.940 9  -6551719.54546  23341985.558    23341984.7714   23341996.2294
        -0.000          -0.000
  -8679114.502 9  -5690370.03546  23822346.961    23822346.8934   23822361.3084
        -0.000          -0.000
 -22488681.260 9 -15767318.11649  20999163.017    20999162.6124   20999171.2284
        -0.000          -0.000
  -3339251.286 8   -998879.90445  24800422.788    24800423.0344   24800437.8724
        -0.000          -0.000
 99  4 10  1 27 30.0000000  0  7  6 26 17 22 21 23 30               -0.000000018
 -16241244.380 9 -12643574.34648  20697666.312    20697666.2844   20697674.8044
        -0.000          -0.000
  -7670998.288 9  -5543373.48047  21766017.733    21766017.9504   21766026.7554
        -0.000          -0.000
 -25064599.788 9 -18492432.99548  20949886.973    20949886.3664   20949894.5774
        -0.000          -0.000
  -8725958.237 9  -6545799.29846  23343431.125    23343430.5004   23343441.9544
        -0.000          -0.000
  -8761048.467 9  -5754214.36646  23806755.138    23806755.0974   23806769.7314
        -0.000          -0.000
 -22523809.943 9 -15794691.04849  20992478.273    20992477.8404   20992486.4204
        -0.000          -0.000
  -3240142.287 8   -921652.28445  24819282.826    24819283.1464   24819297.6344
        -0.000          -0.000
 99  4 10  1 28  0.0000000  0  7  6 26 17 22 21 23 30                0.000000025
 -16192574.687 9 -12605649.93548  20706927.761    20706927.8124   20706936.3074
        -0.000          -0.000
  -7669955.794 9  -5542561.10547  21766216.026    21766216.2624   21766225.1194
        -0.000          -0.000
 -25082882.098 9 -18506678.92648  20946407.775    20946407.2144   20946415.4514
        -0.000          -0.000
  -8717929.321 9  -6539543.02846  23344958.976    23344958.2724   23344970.0424
        -0.000          -0.000
  -8842794.311 9  -5817912.13446  23791198.952    23791198.9764   23791213.9294
        -0.000          -0.000
 -22558560.895 9 -15821769.64549  20985865.279    20985864.8784   20985873.4604
        -0.000          -0.000
  -3141217.945 8   -844568.50845  24838107.863    24838107.8664   24838121.9064
        -0.000          -0.000
 99  4 10  1 28 30.0000000  0  7  6 26 17 22 21 23 30                0.000000039
 -16143472.953 9 -12567388.85348  20716271.550    20716271.5744   20716279.9464
        -0.000          -0.000
  -7668351.553 9  -5541310.98247  21766521.292    21766521.4914   21766530.2314
        -0.000          -0.000
 -25101022.095 9 -18520813.96648  20942955.720    20942955.2044   20942963.4964
        -0.000          -0.000
  -8709448.375 9  -6532934.51246  23346572.844    23346572.1054   23346584.0224
        -0.000          -0.000
  -8924369.696 9  -5881477.05846  23775675.325    23775675.3844   23775690.2874
        -0.000          -0.000
 -22592938.345 9 -15848557.20349  20979323.380    20979323.0174   20979331.5204
        -0.000          -0.000
  -3042467.766 8   -767620.47645  24856899.601    24856899.2264   24856913.5694
        -0.000          -0.000
 99  4 10  1 29  0.0000000  0  7  6 26 17 22 21 23 30                0.000000033
 -16093901.050 9 -12528761.42248  20725704.812    20725704.8434   20725713.0944
        -0.000          -0.000
  -7666152.884 9  -5539597.66147  21766939.518    21766939.7724   21766948.5254
        -0.000          -0.000
 -25118991.418 9 -18534816.00849  20939536.280    20939535.7814   20939544.1654
        -0.000          -0.000
  -8700468.590 9  -6525937.27746  23348281.817    23348280.8614   23348292.5584
        -0.000          -0.000
  -9005758.189 9  -5944896.38446  23760187.539    23760187.4154   23760202.1544
        -0.000          -0.000
 -22626893.313 9 -15875015.54849  20972861.753    20972861.4314   20972869.9424
        -0.000          -0.000
  -2943851.780 8   -690776.95345  24875665.687    24875665.7054   24875679.6284
        -0.000          -0.000
 99  4 10  1 29 30.0000000  0  7  6 26 17 22 21 23 30                0.000000024
 -16043850.798 9 -12489761.23648  20735229.052    20735229.0794   20735237.3014
        -0.000          -0.000
  -7663328.579 9  -5537396.86147  21767476.866    21767477.1004   21767485.9044
        -0.000          -0.000
 -25136761.303 9 -18548662.65049  20936154.760    20936154.2724   20936162.6614
        -0.000          -0.000
  -8690978.361 9  -6518542.34546  23350088.172    23350087.0604   23350098.0854
        -0.000          -0.000
  -9086956.697 9  -6008167.68546  23744735.895    23744735.7614   23744750.0974
        -0.000          -0.000
 -22660417.751 9 -15901138.43049  20966482.093    20966481.8174   20966490.3694
        -0.000          -0.000
  -2845346.285 8   -614019.54645  24894410.843    24894410.4494   24894425.1504
        -0.000          -0.000
 99  4 10  1 30  0.0000000  0  7  6 26 17 22 21 23 30                0.000000017
 -15993301.623 9 -12450372.27748  20744848.294    20744848.3404   20744856.5534
        -0.000          -0.000
  -7659860.525 9  -5534694.44347  21768136.816    21768137.0624   21768145.6854
        -0.000          -0.000
 -25154321.769 9 -18562346.09649  20932813.066    20932812.6054   20932820.8624
        -0.000          -0.000
  -8680964.825 9  -6510739.63246  23351994.215    23351992.8114   23352003.2614
        -0.000          -0.000
  -9167963.144 9  -6071289.30646  23729321.122    23729320.9124   23729334.8334
        -0.000          -0.000
 -22693499.619 9 -15926916.45549  20960186.858    20960186.5654   20960195.0684
        -0.000          -0.000
  -2746939.050 8   -537338.69945  24913136.849    24913136.8844   24913151.9584
        -0.000          -0.000
 99  4 10  1 30 30.0000000  0  7  6 26 17 22 21 23 30                0.000000010
 -15942288.027 9 -12410621.44048  20754555.801    20754555.8104   20754564.1514
        -0.000          -0.000
  -7655782.018 9  -5531516.33847  21768912.947    21768913.1654   21768921.6424
        -0.000          -0.000
 -25171724.548 9 -18575906.66649  20929501.326    20929500.9084   20929509.1314
        -0.000          -0.000
  -8670451.100 9  -6502547.16346  23353994.891    23353993.6564   23354003.9374
        -0.000          -0.000
  -9248792.165 9  -6134272.69646  23713939.995    23713939.6924   23713953.2894
        -0.000          -0.000
 -22726182.820 9 -15952383.83149  20953967.524    20953967.2004   20953975.6414
        -0.000          -0.000
  -2648664.552 8   -460761.29845  24931838.192    24931838.3874   24931853.4844
        -0.000          -0.000
 99  4 10  1 31  0.0000000  0  7  6 26 17 22 21 23 30                0.000000017
 -15890810.565 9 -12370509.16048  20764351.545    20764351.5884   20764359.8804
        -0.000          -0.000
  -7651088.339 9  -5527858.89047  21769805.971    21769806.2374   21769814.7904
        -0.000          -0.000
 -25188973.812 9 -18589347.61349  20926218.914    20926218.5004   20926226.7374
        -0.000          -0.000
  -8659438.167 9  -6493965.67446  23356090.525    23356089.3764   23356099.7624
        -0.000          -0.000
  -9329421.732 9  -6197100.69846  23698596.630    23698596.2934   23698609.6964
        -0.000          -0.000
 -22758469.812 9 -15977542.46349  20947823.494    20947823.2044   20947831.5904
        -0.000          -0.000
  -2550515.920 8   -384281.97745  24950515.697    24950515.8874   24950530.8304
        -0.000          -0.000
 99  4 10  1 31 30.0000000  0  7  6 26 17 22 21 23 30                0.000000035
 -15838876.787 9 -12330041.30948  20774234.240    20774234.2874   20774242.5264
        -0.000          -0.000
  -7645794.930 9  -5523734.11647  21770813.250    21770813.5194   21770822.0404
        -0.000          -0.000
 -25206085.942 9 -18602681.71449  20922962.671    20922962.1854   20922970.4124
        -0.000          -0.000
  -8647934.352 9  -6485001.68646  23358279.498    23358278.4104   23358288.7724
        -0.000          -0.000
  -9409853.396 9  -6259774.46546  23683290.959    23683290.5014   23683303.8704
        -0.000          -0.000
 -22790372.084 9 -16002401.31649  20941752.738    20941752.3874   20941760.7414
        -0.000          -0.000
  -2452500.927 8   -307906.79645  24969167.456    24969167.3654   24969182.4234
        -0.000          -0.000
 99  4 10  1 32  0.0000000  0  7  6 26 17 22 21 23 30                0.000000049
 -15786489.376 9 -12289219.96648  20784203.400    20784203.3954   20784211.5594
        -0.000          -0.000
  -7639931.987 9  -5519165.54447  21771929.046    21771929.3074   21771937.7584
        -0.000          -0.000
 -25223092.860 9 -18615933.82248  20919726.360    20919725.8554   20919733.9694
        -0.000          -0.000
  -8635966.502 9  -6475676.12246  23360556.961    23360555.8744   23360565.9754
        -0.000          -0.000
  -9490089.310 9  -6322295.74246  23668022.010    23668021.5814   23668035.1594
        -0.000          -0.000
 -22821907.041 9 -16026973.95649  20935751.744    20935751.4214   20935759.8084
        -0.000          -0.000
  -2354644.414 8   -231655.07945  24987789.764    24987789.4614   24987803.7264
        -0.000          -0.000
 99  4 10  1 32 30.0000000  0  7  6 26 17 22 21 23 30                0.000000068
 -15733639.150 9 -12248037.98748  20794260.496    20794260.4734   20794268.7194
        -0.000          -0.000
  -7633482.399 9  -5514139.84247  21773156.420    21773156.6974   21773165.0824
        -0.000          -0.000
 -25239985.485 9 -18629096.87649  20916511.752    20916511.2014   20916519.3424
        -0.000          -0.000
  -8623544.352 9  -6465996.56146  23362920.738    23362919.7084   23362929.5184
        -0.000          -0.000
  -9570093.986 9  -6384636.81546  23652797.117    23652796.8614   23652810.2524
        -0.000          -0.000
 -22853060.637 9 -16051249.42449  20929823.306    20929822.9954   20929831.4494
        -0.000          -0.000
  -2256929.905 8   -155514.03545  25006384.642    25006384.1314   25006397.8544
        -0.000          -0.000
 99  4 10  1 33  0.0000000  0  7  6 26 17 22 21 23 30                0.000000082
 -15680322.580 9 -12206492.63548  20804406.372    20804406.3594   20804414.6684
        -0.000          -0.000
  -7626439.697 9  -5508651.94647  21774496.545    21774496.7904   21774505.2454
        -0.000          -0.000
 -25256739.503 9 -18642151.91649  20913323.562    20913323.0684   20913331.2754
        -0.000          -0.000
  -8610676.220 9  -6455969.47346  23365369.006    23365368.2834   23365378.1084
        -0.000          -0.000
  -9649863.556 9  -6446794.67546  23637617.347    23637616.9804   23637630.1434
        -0.000          -0.000
 -22883815.994 9 -16075214.58149  20923970.681    20923970.3974   20923978.8744
        -0.000          -0.000
  -2159365.251 8    -79489.71045  25024950.752    25024950.5464   25024964.0074
        -0.000          -0.000
 99  4 10  1 33 30.0000000  0  7  6 26 17 22 21 23 30                0.000000084
 -15626521.398 9 -12164569.65948  20814644.507    20814644.5214   20814652.5784
        -0.000          -0.000
  -7618796.404 9  -5502696.07947  21775951.009    21775951.2434   21775959.6804
        -0.000          -0.000
 -25273344.883 9 -18655091.13649  20910163.770    20910163.2254   20910171.5144
        -0.000          -0.000
  -8597366.888 9  -6445598.58846  23367900.991    23367900.5494   23367910.7064
        -0.000          -0.000
  -9729394.432 9  -6508766.54646  23622482.318    23622482.3564   23622495.5384
        -0.000          -0.000
 -22914165.670 9 -16098863.62949  20918195.322    20918194.9954   20918203.5374
        -0.000          -0.000
  -2061960.073 8     -3589.67545  25043486.010    25043486.3954   25043499.5134
        -0.000          -0.000
 99  4 10  1 34  0.0000000  0  7  6 26 17 22 21 23 30                0.000000093
 -15572229.579 9 -12122264.35648  20824976.048    20824976.0194   20824983.9034
        -0.000          -0.000
  -7610529.770 9  -5496254.51447  21777524.067    21777524.2844   21777532.6294
        -0.000          -0.000
 -25289786.742 9 -18667902.95449  20907034.898    20907034.3524   20907042.7084
        -0.000          -0.000
  -8583614.238 9  -6434882.27246  23370517.906    23370517.4784   23370527.8804
        -0.000          -0.000
  -9808673.729 9  -6570542.34946  23607395.830    23607395.7504   23607408.9064
        -0.000          -0.000
 -22944102.817 9 -16122191.22149  20912498.456    20912498.1684   20912506.7044
        -0.000          -0.000
  -1964709.723 7     72189.74445  25061991.466    25061991.7164   25062005.5824
        -0.000          -0.000
 99  4 10  1 34 30.0000000  0  7  6 26 17 22 21 23 30                0.000000095
 -15517467.357 9 -12079592.51848  20835396.928    20835396.9054   20835404.7564
        -0.000          -0.000
  -7601655.431 9  -5489339.39747  21779212.797    21779213.0054   21779221.2074
        -0.000          -0.000
 -25306073.434 9 -18680593.85649  20903935.678    20903935.0874   20903943.4134
        -0.000          -0.000
  -8569419.354 9  -6423821.33546  23373219.103    23373218.6574   23373229.2354
        -0.000          -0.000
  -9887730.987 9  -6632145.15446  23592351.454    23592351.2464   23592364.7624
        -0.000          -0.000
 -22973643.775 9 -16145210.09449  20906877.210    20906876.8004   20906885.1584
        -0.000          -0.000
  -1867632.761 8    147833.99545  25080464.207    25080464.0184   25080479.2374
        -0.000          -0.000
 99  4 10  1 35  0.0000000  0  8  6  3 26 17 22 21 23 30             0.000000086
 -15462216.610 9 -12036540.00748  20845910.784    20845910.7864   20845918.6854
        -0.000          -0.000
   -589226.679 8   -443152.73352         0.000           0.0004          0.0005
        -0.000          -0.000
  -7592180.492 9  -5481956.28547  21781015.662    21781015.9174   21781024.0394
        -0.000          -0.000
 -25322196.420 9 -18693157.19449  20900867.612    20900866.9914   20900875.2714
        -0.000          -0.000
  -8554754.526 9  -6412394.23846  23376010.018    23376009.3954   23376020.0484
        -0.000          -0.000
  -9966584.535 9  -6693589.25746  23577345.475    23577345.4844   23577359.1634
        -0.000          -0.000
 -23002785.858 9 -16167918.17049  20901331.611    20901331.2104   20901339.4494
        -0.000          -0.000
  -1770741.275 8    223333.75645  25098902.313    25098901.8024   25098916.9334
        -0.000          -0.000
 99  4 10  1 35 30.0000000  0  8  6  3 26 17 22 21 23 30             0.000000072
 -15406465.150 9 -11993097.33048  20856520.085    20856520.0314   20856527.9404
        -0.000          -0.000
   -694679.76218   -242350.78652         0.000           0.0005          0.0005
        -0.000          -0.000
  -7582095.689 9  -5474097.96747  21782934.710    21782934.9884   21782943.1784
        -0.000          -0.000
 -25338159.490 9 -18705595.91849  20897829.859    20897829.2344   20897837.5264
        -0.000          -0.000
  -8539606.440 9  -6400590.57546  23378892.687    23378891.9704   23378902.6524
        -0.000          -0.000
 -10045241.676 9  -6754880.29046  23562377.193    23562377.3854   23562390.8814
        -0.000          -0.000
 -23031524.512 9 -16190311.86649  20895862.608    20895862.2164   20895870.5024
        -0.000          -0.000
  -1674015.230 8    298704.60845  25117308.692    25117308.0304   25117323.5124
        -0.000          -0.000
 99  4 10  1 36  0.0000000  0  8  6  3 26 17 22 21 23 30             0.000000070
 -15350210.824 9 -11949262.79848  20867225.035    20867224.9514   20867232.7314
        -0.000          -0.000
   -800086.720 8   -324485.96542         0.000           0.0004          0.0004
        -0.000          -0.000
  -7571378.323 9  -5465746.72547  21784973.872    21784974.2364   21784982.6154
        -0.000          -0.000
 -25353933.288 9 -18717887.16349  20894828.117    20894827.5324   20894835.7704
        -0.000          -0.000
  -8523941.159 9  -6388383.89446  23381873.936    23381873.0574   23381883.6794
        -0.000          -0.000
 -10123685.616 9  -6816005.21746  23547450.243    23547450.2884   23547463.1494
        -0.000          -0.000
 -23059832.692 9 -16212370.13849  20890475.508    20890475.1654   20890483.4824
        -0.000          -0.000
  -1577436.346 8    373960.76345  25135687.173    25135686.6764   25135701.3984
        -0.000          -0.000
 99  4 10  1 36 30.0000000  0  8  6  3 26 17 22 21 23 30             0.000000051
 -15293470.055 9 -11905049.24548  20878022.571    20878022.4764   20878030.1584
        -0.000          -0.000
   -905458.855 8   -406595.00352         0.000           0.0004          0.0005
        -0.000          -0.000
  -7560055.359 9  -5456923.59947  21787128.522    21787128.8954   21787137.2984
        -0.000          -0.000
 -25369511.165 9 -18730025.74349  20891863.843    20891863.1944   20891871.2924
        -0.000          -0.000
  -8507773.871 8  -6375786.01246  23384949.950    23384949.2174   23384960.4174
        -0.000          -0.000
 -10201933.655 9  -6876977.49346  23532560.708    23532560.5274   23532572.7024
        -0.000          -0.000
 -23087717.615 9 -16234098.59549  20885169.126    20885168.7694   20885177.0664
        -0.000          -0.000
  -1481022.743 8    449088.15345  25154033.583    25154033.6944   25154048.7454
        -0.000          -0.000
 99  4 10  1 37  0.0000000  0  8  6  3 26 17 22 21 23 30             0.000000048
 -15236200.112 9 -11860423.33948  20888920.633    20888920.5414   20888928.3314
        -0.000          -0.000
  -1010740.632 7   -488633.74052         0.000           0.0004          0.0005
        -0.000          -0.000
  -7548070.815 9  -5447584.97048  21789409.165    21789409.4954   21789417.8464
        -0.000          -0.000
 -25384842.283 9 -18741972.03249  20888946.411    20888945.7244   20888953.8064
        -0.000          -0.000
  -8491066.660 8  -6362767.43546  23388129.109    23388128.2764   23388139.7994
        -0.000          -0.000
 -10279924.624 9  -6937749.43546  23517719.618    23517719.2734   23517731.2864
        -0.000          -0.000
 -23115120.769 9 -16255451.64349  20879954.413    20879954.0194   20879962.3754
        -0.000          -0.000
  -1384714.833 8    524133.16745  25172359.642    25172360.1384   25172375.5284
        -0.000          -0.000
 99  4 10  1 37 30.0000000  0  8  6  3 26 17 22 21 23 30             0.000000024
 -15178473.468 9 -11815441.57048  20899905.554    20899905.4874   20899913.4374
        -0.000          -0.000
  -1115994.274 8   -286251.64342         0.000           0.0004          0.0004
        -0.000          -0.000
  -7535481.185 9  -5437774.82948  21791804.985    21791805.2874   21791813.7334
        -0.000          -0.000
 -25399982.937 9 -18753769.91348  20886064.971    20886064.3894   20886072.5464
        -0.000          -0.000
  -8473890.205 8  -6349383.21346  23391397.619    23391396.7634   23391408.5714
        -0.000          -0.000
 -10357697.891 9  -6998351.75546  23502919.454    23502919.0594   23502931.5114
        -0.000          -0.000
 -23142097.163 9 -16276472.17149  20874820.965    20874820.6124   20874828.9524
        -0.000          -0.000
  -1288555.508 8    599062.45945  25190657.755    25190658.4694   25190674.1174
        -0.000          -0.000
 99  4 10  1 38  0.0000000  0  8  6  3 26 17 22 21 23 30             0.000000003
 -15120256.429 9 -11770077.66548  20910983.720    20910983.6674   20910991.8034
        -0.000          -0.000
  -1221190.08218   -368222.56744         0.000           0.0005   25158170.4784
        -0.000          -0.000
  -7522258.525 9  -5427471.42348  21794321.205    21794321.4754   21794329.8604
        -0.000          -0.000
 -25414888.157 9 -18765384.35349  20883228.544    20883228.0124   20883236.2184
        -0.000          -0.000
  -8456212.042 9  -6335608.07746  23394761.696    23394760.9234   23394772.7344
        -0.000          -0.000
 -10435192.216 9  -7058736.72446  23488172.227    23488171.8794   23488184.9184
        -0.000          -0.000
 -23168608.449 9 -16297130.27549  20869776.114    20869775.7254   20869784.0104
        -0.000          -0.000
  -1192521.811 8    673893.82445  25208932.144    25208933.1884   25208949.0594
        -0.000          -0.000
 99  4 10  1 38 30.0000000  0  8  6  3 26 17 22 21 23 30            -0.000000011
 -15061551.373 9 -11724333.48948  20922154.828    20922154.8044   20922163.0674
        -0.000          -0.000
  -1326325.355 8   -450145.96145  25138153.962    25138152.5494   25138166.7474
        -0.000          -0.000
  -7508410.422 9  -5416680.65947  21796956.344    21796956.6114   21796965.1094
        -0.000          -0.000
 -25429585.188 9 -18776836.55249  20880431.802    20880431.2684   20880439.5504
        -0.000          -0.000
  -8438049.010 8  -6321455.07946  23398218.233    23398217.3814   23398229.3104
        -0.000          -0.000
 -10512415.633 9  -7118910.61146  23473476.859    23473476.5714   23473489.7124
        -0.000          -0.000
 -23194679.400 9 -16317445.25049  20864814.975    20864814.5604   20864822.8474
        -0.000          -0.000
  -1096621.316 8    748621.38545  25227181.635    25227182.5944   25227198.4664
        -0.000          -0.000
 99  4 10  1 39  0.0000000  0  8  6  3 26 17 22 21 23 30            -0.000000020
 -15002404.259 9 -11678244.86448  20933410.134    20933410.1124   20933418.4614
        -0.000          -0.000
  -1431433.685 8   -532048.41645  25118152.790    25118153.1844   25118168.0374
        -0.000          -0.000
  -7493966.259 9  -5405425.43747  21799704.867    21799705.1384   21799713.7314
        -0.000          -0.000
 -25444142.318 9 -18788179.74949  20877661.679    20877661.1064   20877669.4354
        -0.000          -0.000
  -8419441.530 9  -6306955.78646  23401759.519    23401758.6394   23401770.3324
        -0.000          -0.000
 -10589400.875 9  -7178898.89846  23458827.077    23458826.7924   23458839.8034
        -0.000          -0.000
 -23220364.098 9 -16337459.25649  20859927.257    20859926.8634   20859935.0954
        -0.000          -0.000
  -1000892.328 8    823215.33945  25245398.986    25245399.6534   25245415.5434
        -0.000          -0.000
 99  4 10  1 39 30.0000000  0  8  6  3 26 17 22 21 23 30            -0.000000014
 -14942811.236 9 -11631808.76448  20944750.339    20944750.3214   20944758.6404
        -0.000          -0.000
  -1536487.823 8   -613908.63045  25098161.869    25098160.7154   25098175.9034
        -0.000          -0.000
  -7478913.490 9  -5393695.95847  21802569.267    21802569.5454   21802578.0824
        -0.000          -0.000
 -25458550.984 9 -18799407.23549  20874919.857    20874919.2844   20874927.3804
        -0.000          -0.000
  -8400371.425 9  -6292095.99046  23405388.525    23405387.7974   23405399.3524
        -0.000          -0.000
 -10666137.602 9  -7238693.53846  23444224.619    23444224.2924   23444237.1514
        -0.000          -0.000
 -23245653.282 9 -16357165.06249  20855114.829    20855114.4754   20855122.6814
        -0.000          -0.000
   -905340.993 8    897670.88245  25263582.531    25263582.8454   25263598.9314
        -0.000          -0.000
 99  4 10  1 40  0.0000000  0  8  6  3 26 17 22 21 23 30             0.000000007
 -14882813.667 9 -11585057.44048  20956167.628    20956167.5874   20956175.8324
        -0.000          -0.000
  -1641513.222 8   -695746.47545  25078175.874    25078175.3804   25078189.7034
        -0.000          -0.000
  -7463276.130 9  -5381510.96947  21805544.955    21805545.2554   21805553.7434
        -0.000          -0.000
 -25472854.038 9 -18810552.44249  20872198.113    20872197.4894   20872205.5744
        -0.000          -0.000
  -8380858.024 8  -6276890.76546  23409101.740    23409101.0974   23409112.6674
        -0.000          -0.000
 -10742667.183 9  -7298326.78646  23429661.288    23429661.0644   23429673.9094
        -0.000          -0.000
 -23270587.451 9 -16376594.23049  20850369.934    20850369.5804   20850377.8704
        -0.000          -0.000
   -810018.543 8    971948.04245  25281722.227    25281722.3274   25281738.5034
        -0.000          -0.000
 99  4 10  1 40 30.0000000  0  8  6  3 26 17 22 21 23 30             0.000000031
 -14822421.967 9 -11537998.99848  20967659.724    20967659.7224   20967668.0484
        -0.000          -0.000
  -1746532.152 8   -777579.32545  25058191.347    25058191.0354   25058204.9844
        -0.000          -0.000
  -7447061.753 9  -5368876.36147  21808630.351    21808630.6394   21808639.0534
        -0.000          -0.000
 -25487076.666 9 -18821634.99049  20869491.529    20869490.9524   20869499.2094
        -0.000          -0.000
  -8360913.764 9  -6261349.81046  23412896.827    23412896.4084   23412907.7764
        -0.000          -0.000
 -10819018.748 9  -7357821.30646  23415131.864    23415131.7224   23415144.6424
        -0.000          -0.000
 -23295178.161 9 -16395755.78449  20845690.329    20845690.0194   20845698.4194
        -0.000          -0.000
   -714932.453 8   1046041.03645  25299816.828    25299816.7914   25299832.9524
        -0.000          -0.000
 99  4 10  1 41  0.0000000  0  8  6  3 26 17 22 21 23 30             0.000000062
 -14761598.571 9 -11490604.17448  20979233.850    20979233.9194   20979242.2434
        -0.000          -0.000
  -1851518.562 8   -859386.78545  25038213.340    25038212.8764   25038225.9694
        -0.000          -0.000
  -7430247.121 9  -5355774.03247  21811830.042    21811830.2944   21811838.7954
        -0.000          -0.000
 -25501169.258 9 -18832616.20349  20866809.717    20866809.2194   20866817.5614
        -0.000          -0.000
  -8340511.553 9  -6245451.98946  23416779.600    23416778.9614   23416789.9214
        -0.000          -0.000
 -10895156.511 9  -7417149.23046  23400643.377    23400643.0924   23400656.0794
        -0.000          -0.000
 -23319376.041 9 -16414611.23049  20841085.535    20841085.2474   20841093.6764
        -0.000          -0.000
   -620055.938 8   1119970.70945  25317871.280    25317871.3324   25317887.2724
        -0.000          -0.000
 99  4 10  1 41 30.0000000  0  8  6  3 26 17 22 21 23 30             0.000000079
 -14700343.297 9 -11442872.81848  20990890.273    20990890.3394   20990898.7604
        -0.000          -0.000
  -1956497.807 8   -941188.65545  25018236.724    25018236.0744   25018248.5974
        -0.000          -0.000
  -7412853.603 9  -5342220.61547  21815139.897    21815140.1234   21815148.6224
        -0.000          -0.000
 -25515129.412 9 -18843494.22049  20864153.174    20864152.6684   20864161.0774
        -0.000          -0.000
  -8319652.831 9  -6229198.44946  23420749.206    23420748.4834   23420758.9784
        -0.000          -0.000
 -10971110.965 9  -7476334.31846  23386189.843    23386189.4184   23386202.1534
        -0.000          -0.000
 -23343195.125 9 -16433171.51149  20836552.930    20836552.6254   20836560.9844
        -0.000          -0.000
   -525418.632 8   1193714.03045  25335880.390    25335880.4544   25335896.0564
        -0.000          -0.000
 99  4 10  1 42  0.0000000  0  8  6  3 26 17 22 21 23 30             0.000000100
 -14638594.493 9 -11394756.88248  21002640.692    21002640.7944   21002649.1614
        -0.000          -0.000
  -2061453.545 8  -1022972.23845  24998264.858    24998263.4934   24998275.8264
        -0.000          -0.000
  -7394841.178 9  -5328184.93648  21818567.538    21818567.7504   21818576.2704
        -0.000          -0.000
 -25528900.701 9 -18854225.07349  20861532.544    20861532.0024   20861540.5254
        -0.000          -0.000
  -8298308.407 9  -6212566.44246  23424810.892    23424810.2214   23424820.7344
        -0.000          -0.000
 -11046852.702 9  -7535353.65846  23371776.597    23371776.1764   23371788.6604
        -0.000          -0.000
 -23366604.920 9 -16451412.85549  20832098.281    20832097.8994   20832106.2124
        -0.000          -0.000
   -430969.647 8   1267310.59645  25353853.434    25353853.6334   25353869.5604
        -0.000          -0.000
 99  4 10  1 42 30.0000000  0  8  6  3 26 17 22 21 23 30             0.000000098
 -14576355.810 9 -11346259.22348  21014484.435    21014484.4654   21014492.8374
        -0.000          -0.000
  -2166394.049 8  -1104743.93045  24978295.494    24978294.4564   24978306.2444
        -0.000          -0.000
  -7376225.896 9  -5313679.47948  21822109.844    21822110.0684   21822118.6044
        -0.000          -0.000
 -25542474.836 9 -18864802.30149  20858949.388    20858948.8904   20858957.3984
        -0.000          -0.000
  -8276522.224 9  -6195590.20246  23428956.846    23428956.0914   23428966.7424
        -0.000          -0.000
 -11122390.077 9  -7594213.77546  23357402.052    23357401.7384   23357414.1474
        -0.000          -0.000
 -23389617.064 9 -16469344.35349  20827719.203    20827718.8004   20827727.0974
        -0.000          -0.000
   -336703.665 8   1340764.56345  25371791.596    25371791.8844   25371807.9984
        -0.000          -0.000
 99  4 10  1 43  0.0000000  0  8  6  3 26 17 22 21 23 30             0.000000088
 -14513629.050 9 -11297381.25048  21026420.936    21026421.0324   21026429.4344
        -0.000          -0.000
  -2271281.999 8  -1186474.66045  24958335.942    24958335.0254   24958347.1984
        -0.000          -0.000
  -7356993.082 9  -5298692.84948  21825769.771    21825770.0144   21825778.4754
        -0.000          -0.000
 -25555824.339 9 -18875204.47749  20856409.022    20856408.5094   20856416.9794
        -0.000          -0.000
  -8254282.458 9  -6178260.51646  23433188.960    23433188.2814   23433199.2844
        -0.000          -0.000
 -11197707.029 9  -7652902.10146  23343069.664    23343069.2304   23343081.4944
        -0.000          -0.000
 -23412229.621 9 -16486964.47949  20823416.124    20823415.7694   20823424.0974
        -0.000          -0.000
   -242609.826 8   1414084.42145  25389697.106    25389697.4284   25389713.7414
        -0.000          -0.000
 99  4 10  1 43 30.0000000  0  8  6  3 26 17 22 21 23 30             0.000000078
 -14450423.646 9 -11248130.31048  21038448.664    21038448.7254   21038456.9994
        -0.000          -0.000
  -2376107.108 8  -1268156.44645  24938387.798    24938387.0654   24938399.8954
        -0.000          -0.000
  -7337142.321 9  -5283224.69748  21829547.248    21829547.4594   21829556.0174
        -0.000          -0.000
 -25568960.733 9 -18885440.61749  20853909.262    20853908.7004   20853917.2694
        -0.000          -0.000
  -8231589.768 9  -6160577.90646  23437507.062    23437506.4324   23437517.7874
        -0.000          -0.000
 -11272789.000 9  -7711407.35846  23328781.956    23328781.4224   23328793.4974
        -0.000          -0.000
 -23434442.173 9 -16504272.92049  20819189.215    20819188.8364   20819197.2364
        -0.000          -0.000
   -148678.310 8   1487277.82745  25407571.809    25407571.8864   25407588.4714
        -0.000          -0.000
 99  4 10  1 44  0.0000000  0  8  6  3 26 17 22 21 23 30             0.000000059
 -14386750.837 9 -11198515.15648  21050565.239    21050565.3274   21050573.5414
        -0.000          -0.000
  -2480842.148 8  -1349768.04245  24918457.190    24918456.5714   24918469.3514
        -0.000          -0.000
  -7316668.451 9  -5267271.01248  21833443.235    21833443.4924   21833451.9904
        -0.000          -0.000
 -25581882.773 9 -18895509.73649  20851450.159    20851449.7224   20851458.2524
        -0.000          -0.000
  -8208468.075 9  -6142561.01346  23441906.842    23441906.2064   23441917.6624
        -0.000          -0.000
 -11347603.271 9  -7769703.98546  23314544.556    23314544.2874   23314556.5014
        -0.000          -0.000
 -23456235.066 9 -16521254.35249  20815042.090    20815041.7564   20815050.1754
        -0.000          -0.000
    -54894.967 8   1560355.70845  25425418.076    25425418.0904   25425434.8804
        -0.000          -0.000
 99  4 10  1 44 30.0000000  0  8  6  3 26 17 22 21 23 30             0.000000030
 -14322632.272 9 -11148552.65048  21062766.767    21062766.7904   21062774.9724
        -0.000          -0.000
  -2585471.607 8  -1431297.28245  24898547.142    24898546.2364   24898558.9994
        -0.000          -0.000
  -7295585.629 9  -5250842.83147  21837455.095    21837455.3544   21837463.8494
        -0.000          -0.000
 -25594620.569 9 -18905435.26749  20849026.386    20849025.8794   20849034.1844
        -0.000          -0.000
  -8184920.224 9  -6124212.05546  23446387.661    23446387.0054   23446398.4964
        -0.000          -0.000
 -11422140.077 9  -7827784.39146  23300360.451    23300360.2374   23300372.3774
        -0.000          -0.000
 -23477602.986 9 -16537904.62849  20810975.890    20810975.5224   20810983.8654
        -0.000          -0.000
     38719.486 8   1633302.02045  25443232.197    25443232.3564   25443248.9234
        -0.000          -0.000
 99  4 10  1 45  0.0000000  0  8  6  3 26 17 22 21 23 30             0.000000016
 -14258047.125 9 -11098226.57748  21075056.849    21075056.9024   21075065.2264
        -0.000          -0.000
  -2689981.441 8  -1512733.35745  24878659.502    24878658.6634   24878671.2244
        -0.000          -0.000
  -7273884.943 9  -5233933.20247  21841584.596    21841584.8264   21841593.3374
        -0.000          -0.000
 -25607180.642 9 -18915222.31349  20846636.422    20846635.8444   20846644.0914
        -0.000          -0.000
  -8160908.645 9  -6105501.75946  23450956.728    23450956.0614   23450967.5894
        -0.000          -0.000
 -11496375.307 9  -7885629.86046  23286234.031    23286233.7064   23286245.6894
        -0.000          -0.000
 -23498530.796 9 -16554211.96349  20806993.376    20806993.0394   20807001.2994
        -0.000          -0.000
    132158.022 8   1706111.27645  25461013.034    25461012.9694   25461029.6924
        -0.000          -0.000
 99  4 10  1 45 30.0000000  0  8  6  3 26 17 22 21 23 30             0.000000012
 -14193000.114 9 -11047540.62048  21087434.932    21087434.9724   21087443.3924
        -0.000          -0.000
  -2794404.361 8  -1594101.71345  24858788.386    24858787.6604   24858800.0774
        -0.000          -0.000
  -7251574.853 9  -5216548.68547  21845829.992    21845830.1974   21845838.7244
        -0.000          -0.000
 -25619591.538 9 -18924893.13349  20844274.679    20844274.1394   20844282.3184
        -0.000          -0.000
  -8136455.161 9  -6086447.12946  23455610.247    23455609.3294   23455620.6814
        -0.000          -0.000
 -11570320.023 9  -7943248.92746  23272162.669    23272162.3084   23272174.3274
        -0.000          -0.000
 -23519036.187 9 -16570190.14349  20803091.236    20803090.9204   20803099.1414
        -0.000          -0.000
    225399.918 8   1778767.22145  25478756.358    25478756.3134   25478773.4544
        -0.000          -0.000
 99  4 10  1 46  0.0000000  0  8  6  3 26 17 22 21 23 30             0.000000015
 -14127513.344 9 -10996511.99348  21099896.758    21099896.7254   21099905.1414
        -0.000          -0.000
  -2898770.218 8  -1675425.64645  24838928.222    24838927.6284   24838939.7074
        -0.000          -0.000
  -7228672.211 9  -5198702.41848  21850188.158    21850188.4294   21850196.9734
        -0.000          -0.000
 -25631865.940 9 -18934457.59949  20841938.924    20841938.3764   20841946.4974
        -0.000          -0.000
  -8111574.384 9  -6067059.53346  23460344.934    23460344.0124   23460355.0774
        -0.000          -0.000
 -11644024.993 9  -8000681.18146  23258136.801    23258136.3184   23258148.5154
        -0.000          -0.000
 -23539164.955 9 -16585874.84949  20799260.801    20799260.5124   20799268.6614
        -0.000          -0.000
    318413.247 8   1851245.11945  25496456.392    25496456.3814   25496473.6544
        -0.000          -0.000
 99  4 10  1 46 30.0000000  0  8  6  3 26 17 22 21 23 30             0.000000031
 -14061592.898 9 -10945145.44048  21112440.931    21112440.8714   21112449.2594
        -0.000          -0.000
  -3003099.615 8  -1756721.12445  24819074.817    24819074.2244   24819086.3224
        -0.000          -0.000
  -7205185.235 9  -5180400.83348  21854657.752    21854657.9654   21854666.5094
        -0.000          -0.000
 -25644015.517 9 -18943924.78149  20839626.855    20839626.3674   20839634.5014
        -0.000          -0.000
  -8086257.447 9  -6047332.08846  23465162.488    23465161.7464   23465172.6464
        -0.000          -0.000
 -11717517.669 9  -8057948.00846  23244151.140    23244150.7814   23244163.1884
        -0.000          -0.000
 -23558942.837 9 -16601286.14149  20795497.165    20795496.8474   20795504.9734
        -0.000          -0.000
    411186.591 7   1923536.04644  25514110.359    25514110.6084   25514128.4174
        -0.000          -0.000
 99  4 10  1 47  0.0000000  0  8  6  3 26 17 22 21 23 30             0.000000052
 -13995266.113 9 -10893462.24948  21125062.268    21125062.2744   21125070.8534
        -0.000          -0.000
  -3107414.547 8  -1838005.30645  24799224.527    24799223.8344   24799235.5154
        -0.000          -0.000
  -7181133.757 9  -5161659.39548  21859234.656    21859234.8464   21859243.3024
        -0.000          -0.000
 -25656037.021 9 -18953292.17249  20837339.240    20837338.7614   20837346.8844
        -0.000          -0.000
  -8060521.838 9  -6027278.37246  23470059.850    23470059.0264   23470069.8364
        -0.000          -0.000
 -11790826.731 9  -8115071.76846  23230200.519    23230200.1584   23230212.8334
        -0.000          -0.000
 -23578402.295 9 -16616449.31749  20791793.980    20791793.7014   20791801.8664
        -0.000          -0.000
    503698.37416   1995623.18854  25531714.379    25531715.0135          0.0005
        -0.000          -0.000
 99  4 10  1 47 30.0000000  0  7  6  3 26 17 22 21 23                0.000000063
 -13928546.002 9 -10841472.57148  21137758.646    21137758.6744   21137767.3304
        -0.000          -0.000
  -3211707.411 8  -1919272.32345  24779378.259    24779377.6044   24779389.2654
        -0.000          -0.000
  -7156509.928 9  -5142471.97148  21863920.429    21863920.6234   21863929.0504
        -0.000          -0.000
 -25667908.654 9 -18962542.77849  20835080.202    20835079.6744   20835087.7584
        -0.000          -0.000
  -8034365.149 9  -6006896.56646  23475037.125    23475036.4704   23475047.1094
        -0.000          -0.000
 -11863964.411 9  -8172061.98446  23216282.587    23216282.1924   23216294.8774
        -0.000          -0.000
 -23597525.210 9 -16631350.23849  20788155.102    20788154.8404   20788162.9314
        -0.000          -0.000
 99  4 10  1 48  0.0000000  0  7  6  3 26 17 22 21 23                0.000000068
 -13861408.307 9 -10789157.52148  21150534.622    21150534.6494   21150543.3054
        -0.000          -0.000
  -3315935.758 8  -2000489.12045  24759544.187    24759543.4364   24759554.9784
        -0.000          -0.000
  -7131303.060 9  -5122830.25648  21868717.127    21868717.3524   21868725.6974
        -0.000          -0.000
 -25679584.715 9 -18971640.98449  20832858.344    20832857.8134   20832865.7894
        -0.000          -0.000
  -8007745.397 9  -5986153.91646  23480102.671    23480101.9044   23480112.6194
        -0.000          -0.000
 -11936898.245 9  -8228893.35046  23202403.880    23202403.3714   23202415.6024
        -0.000          -0.000
 -23616265.799 9 -16645953.24149  20784589.008    20784588.6984   20784596.7684
        -0.000          -0.000
 99  4 10  1 48 30.0000000  0  7  6  3 26 17 22 21 23                0.000000053
 -13793851.918 9 -10736516.20448  21163390.167    21163390.1604   21163398.8884
        -0.000          -0.000
  -3420083.632 9  -2081643.15845  24739725.570    24739724.5954   24739735.8984
        -0.000          -0.000
  -7105521.621 9  -5102740.79948  21873623.171    21873623.4364   21873631.6774
        -0.000          -0.000
 -25691072.837 9 -18980592.74749  20830672.207    20830671.6764   20830679.5294
        -0.000          -0.000
  -7980670.379 9  -5965056.53246  23485254.829    23485254.0774   23485265.0934
        -0.000          -0.000
 -12009611.699 9  -8285553.00346  23188567.052    23188566.4694   23188578.3734
        -0.000          -0.000
 -23634602.013 9 -16660241.15049  20781099.872    20781099.5144   20781107.5724
        -0.000          -0.000
 99  4 10  1 49  0.0000000  0  7  6  3 26 17 22 21 23                0.000000033
 -13725845.515 9 -10683524.22148  21176331.433    21176331.4014   21176340.0594
        -0.000          -0.000
  -3524114.970 8  -2162706.43145  24719928.889    24719927.8314   24719939.2844
        -0.000          -0.000
  -7079132.932 9  -5082178.13848  21878644.668    21878644.9294   21878653.3194
        -0.000          -0.000
 -25702353.163 9 -18989382.59849  20828525.563    20828525.0524   20828532.9954
        -0.000          -0.000
  -7953117.691 9  -5943586.90946  23490497.993    23490497.3774   23490508.2014
        -0.000          -0.000
 -12082078.066 9  -8342020.13746  23174777.098    23174776.5874   23174788.2894
        -0.000          -0.000
 -23652496.436 9 -16674184.80449  20777694.548    20777694.2124   20777702.3384
        -0.000          -0.000
 99  4 10  1 49 30.0000000  0  7  6  3 26 17 22 21 23                0.000000017
 -13657360.315 9 -10630159.14948  21189363.735    21189363.6794   21189372.4054
        -0.000          -0.000
  -3628019.246 8  -2243670.70945  24700156.403    24700155.4484   24700166.5954
        -0.000          -0.000
  -7052118.283 9  -5061127.74548  21883785.393    21883785.6314   21883794.1084
        -0.000          -0.000
 -25713430.510 9 -18998014.27849  20826417.592    20826417.1014   20826425.0654
        -0.000          -0.000
  -7925082.122 8  -5921741.03746  23495833.420    23495832.6234   23495843.0324
        -0.000          -0.000
 -12154272.181 9  -8398275.13346  23161039.085    23161038.5874   23161049.8264
        -0.000          -0.000
 -23669920.772 9 -16687762.15549  20774378.664    20774378.3374   20774386.4674
        -0.000          -0.000
 99  4 10  1 50  0.0000000  0  7  6  3 26 17 22 21 23               -0.000000004
 -13588391.673 9 -10576417.38948  21202488.045    21202488.0134   21202496.8114
        -0.000          -0.000
  -3731801.219 8  -2324539.65545  24680407.261    24680406.4204   24680417.1154
        -0.000          -0.000
  -7024495.424 9  -5039603.41348  21889041.790    21889042.0724   21889050.5584
        -0.000          -0.000
 -25724334.687 9 -19006511.01249  20824342.493    20824342.0484   20824349.9234
        -0.000          -0.000
  -7896598.577 8  -5899546.06246  23501253.692    23501252.9114   23501263.3114
        -0.000          -0.000
 -12226198.114 9  -8454321.13047  23147351.940    23147351.5124   23147362.3874
        -0.000          -0.000
 -23686902.792 9 -16700994.84449  20771147.026    20771146.6654   20771154.8614
        -0.000          -0.000
 99  4 10  1 50 30.0000000  0  7  6  3 26 17 22 21 23               -0.000000011
 -13518915.544 9 -10522280.17148  21215708.928    21215708.8804   21215717.7104
        -0.000          -0.000
  -3835438.932 8  -2405296.20145  24660685.406    24660684.8334   24660695.1714
        -0.000          -0.000
  -6996234.031 9  -5017581.51647  21894419.767    21894420.0484   21894428.4904
        -0.000          -0.000
 -25735059.347 9 -19014867.86149  20822301.671    20822301.2114   20822308.9474
        -0.000          -0.000
  -7867676.742 9  -5877009.58146  23506757.424    23506756.6114   23506767.1204
        -0.000          -0.000
 -12297844.997 9  -8510149.69647  23133717.856    23133717.5014   23133728.3794
        -0.000          -0.000
 -23703441.255 9 -16713881.90949  20767999.752    20767999.4134   20768007.6714
        -0.000          -0.000
 99  4 10  1 51  0.0000000  0  7  6  3 26 17 22 21 23               -0.000000005
 -13448945.113 9 -10467757.79248  21229023.828    21229023.8334   21229032.7714
        -0.000          -0.000
  -3938960.617 8  -2485962.33845  24640985.994    24640985.4814   24640995.5794
        -0.000          -0.000
  -6967341.820 9  -4995068.07847  21899917.880    21899918.1324   21899926.5064
        -0.000          -0.000
 -25745604.302 9 -19023084.68349  20820295.083    20820294.6104   20820302.3654
        -0.000          -0.000
  -7838330.310 9  -5854142.24446  23512342.060    23512341.2354   23512351.6524
        -0.000          -0.000
 -12369225.996 9  -8565771.07947  23120134.560    23120134.0654   23120145.0504
        -0.000          -0.000
 -23719559.005 9 -16726441.14549  20764932.620    20764932.2574   20764940.5114
        -0.000          -0.000
 99  4 10  1 51 30.0000000  0  7  6  3 26 17 22 21 23               -0.000000029
 -13378501.320 9 -10412866.54848  21242428.736    21242428.7634   21242437.7974
        -0.000          -0.000
  -4042383.223 8  -2566551.26445  24621305.193    24621304.7564   24621314.7994
        -0.000          -0.000
  -6937841.848 9  -4972081.06247  21905531.657    21905531.8764   21905540.1564
        -0.000          -0.000
 -25755960.957 9 -19031154.78649  20818324.328    20818323.7644   20818331.5384
        -0.000          -0.000
  -7808582.314 8  -5830962.03146  23518002.566    23518001.9274   23518012.8834
        -0.000          -0.000
 -12440341.933 9  -8621185.91247  23106601.477    23106600.9834   23106612.0034
        -0.000          -0.000
 -23735280.849 9 -16738691.88949  20761940.762    20761940.4584   20761948.6994
        -0.000          -0.000
 99  4 10  1 52  0.0000000  0  7  6  3 26 17 22 21 23                0.000000017
 -13307637.270 9 -10357647.84148  21255913.663    21255913.6974   21255922.6494
        -0.000          -0.000
  -4145751.280 9  -2647097.71345  24601634.712    24601634.2434   24601644.4864
        -0.000          -0.000
  -6907772.706 9  -4948650.53947  21911253.588    21911253.8254   21911262.1084
        -0.000          -0.000
 -25766157.615 9 -19039100.20349  20816383.942    20816383.4084   20816391.1224
        -0.000          -0.000
  -7778469.314 8  -5807497.38946  23523731.973    23523731.7504   23523743.5444
        -0.000          -0.000
 -12511254.902 9  -8676442.60247  23093106.947    23093106.5064   23093117.5864
        -0.000          -0.000
 -23750673.073 9 -16750685.78349  20759011.781    20759011.4554   20759019.5694
        -0.000          -0.000
 99  4 10  1 52 30.0000000  0  7  6  3 26 17 22 21 23                0.000000048
 -13236363.554 9 -10302109.91248  21269476.695    21269476.6584   21269485.4684
        -0.000          -0.000
  -4249072.884 8  -2727607.96445  24581973.174    24581972.6554   24581982.9794
        -0.000          -0.000
  -6877116.587 9  -4924762.62447  21917087.078    21917087.3274   21917095.5964
        -0.000          -0.000
 -25776171.812 9 -19046903.45049  20814478.350    20814477.7974   20814485.5044
        -0.000          -0.000
  -7747965.092 8  -5783727.87745  23529536.508    23529536.2914   23529548.3504
        -0.000          -0.000
 -12581952.306 9  -8731531.30947  23079653.396    23079653.0694   23079664.0524
        -0.000          -0.000
 -23765731.074 9 -16762419.24149  20756146.299    20756145.9494   20756154.0044
        -0.000          -0.000
 99  4 10  1 53  0.0000000  0  7  6  3 26 17 22 21 23                0.000000058
 -13164690.116 9 -10246260.52148  21283115.728    21283115.7154   21283124.3754
        -0.000          -0.000
  -4352348.403 8  -2808082.24945  24562320.162    24562319.7104   24562330.3314
        -0.000          -0.000
  -6845867.066 9  -4900412.33947  21923033.504    21923033.8094   21923042.0794
        -0.000          -0.000
 -25785993.291 9 -19054556.53949  20812609.315    20812608.7514   20812616.6934
        -0.000          -0.000
  -7717050.958 9  -5759638.99245  23535419.490    23535419.1794   23535430.8564
        -0.000          -0.000
 -12652423.628 9  -8786443.86447  23066242.869    23066242.6334   23066253.4574
        -0.000          -0.000
 -23780433.655 9 -16773875.74849  20753348.440    20753348.0864   20753356.1304
        -0.000          -0.000
 99  4 10  1 53 30.0000000  0  7  6  3 26 17 22 21 23                0.000000058
 -13092607.714 9 -10190092.46648  21296832.753    21296832.6994   21296841.1244
        -0.000          -0.000
  -4455555.325 9  -2888503.11545  24542680.410    24542679.9864   24542690.4154
        -0.000          -0.000
  -6814015.002 9  -4875592.51247  21929094.832    21929095.1034   21929103.2414
        -0.000          -0.000
 -25795626.953 9 -19062063.26949  20810775.986    20810775.4704   20810783.4914
        -0.000          -0.000
  -7685724.378 9  -5735228.71945  23541380.843    23541380.5014   23541391.8654
        -0.000          -0.000
 -12722662.114 9  -8841174.97147  23052876.734    23052876.5164   23052887.2454
        -0.000          -0.000
 -23794765.403 9 -16785043.29949  20750621.196    20750620.8244   20750628.9004
        -0.000          -0.000
 99  4 10  1 54  0.0000000  0  7  6  3 26 17 22 21 23                0.000000053
 -13020117.213 9 -10133606.39048  21310627.351    21310627.2694   21310635.5794
        -0.000          -0.000
  -4558685.808 9  -2968864.42445  24523055.341    24523054.8734   24523065.1784
        -0.000          -0.000
  -6781550.419 9  -4850295.40848  21935272.742    21935272.9864   21935281.0444
        -0.000          -0.000
 -25805087.721 9 -19069435.26949  20808975.631    20808975.1264   20808983.1594
        -0.000          -0.000
  -7653987.299 9  -5710498.58045  23547420.523    23547420.1504   23547431.3504
        -0.000          -0.000
 -12792666.772 9  -8895723.89347  23039555.159    23039554.8994   23039565.6154
        -0.000          -0.000
 -23808711.722 9 -16795910.52349  20747967.339    20747966.9614   20747975.0154
        -0.000          -0.000
 99  4 10  1 54 30.0000000  0  7  6  3 26 17 22 21 23                0.000000037
 -12947227.701 9 -10076809.39048  21324497.860    21324497.7674   21324506.0054
        -0.000          -0.000
  -4661721.582 8  -3049151.87845  24503447.996    24503447.4174   24503457.9484
        -0.000          -0.000
  -6748479.685 9  -4824525.97848  21941565.926    21941566.1304   21941574.1044
        -0.000          -0.000
 -25814376.620 9 -19076673.34549  20807208.133    20807207.5604   20807215.6504
        -0.000          -0.000
  -7621855.275 9  -5685460.66045  23553535.092    23553534.7074   23553546.4984
        -0.000          -0.000
 -12862408.253 9  -8950067.76247  23026283.549    23026283.2964   23026294.1584
        -0.000          -0.000
 -23822254.275 9 -16806463.12449  20745390.333    20745389.9454   20745397.9324
        -0.000          -0.000
 99  4 10  1 55  0.0000000  0  7  6  3 26 17 22 21 23                0.000000018
 -12873920.530 9 -10019686.94448  21338447.748    21338447.7004   21338456.1034
        -0.000          -0.000
  -4764622.991 8  -3129334.65245  24483866.146    24483865.5734   24483876.4484
        -0.000          -0.000
  -6714800.492 9  -4798282.42347  21947974.699    21947974.9244   21947983.0424
        -0.000          -0.000
 -25823479.265 9 -19083766.31049  20805475.798    20805475.2704   20805483.4664
        -0.000          -0.000
  -7589328.966 8  -5660115.52045  23559724.595    23559724.1834   23559736.4374
        -0.000          -0.000
 -12931876.374 9  -9004198.61447  23013064.130    23013063.8494   23013074.7834
        -0.000          -0.000
 -23835368.098 9 -16816681.64549  20742894.845    20742894.4334   20742902.3704
        -0.000          -0.000
 99  4 10  1 55 30.0000000  0  7  6  3 26 17 22 21 23                0.000000007
 -12800176.291 9  -9962223.92448  21352480.942    21352480.9254   21352489.2984
        -0.000          -0.000
  -4867372.732 8  -3209399.23445  24464312.981    24464312.7394   24464323.7414
        -0.000          -0.000
  -6680502.759 9  -4771556.88747  21954501.265    21954501.4754   21954509.6494
        -0.000          -0.000
 -25832372.192 9 -19090695.84849  20803783.387    20803782.9214   20803791.0704
        -0.000          -0.000
  -7556388.443 8  -5634447.56245  23565992.697    23565992.3244   23566005.1294
        -0.000          -0.000
 -13001054.850 9  -9058103.75447  22999899.643    22999899.3414   22999910.4514
        -0.000          -0.000
 -23848049.140 9 -16826562.93149  20740481.718    20740481.3244   20740489.1624
        -0.000          -0.000
 99  4 10  1 56  0.0000000  0  7  6  3 26 17 22 21 23               -0.000000008
 -12726022.282 9  -9904441.62148  21366592.074    21366592.0464   21366600.3014
        -0.000          -0.000
  -4969986.951 9  -3289358.20545  24444785.964    24444785.8464   24444796.8724
        -0.000          -0.000
  -6645616.079 9  -4744372.41847  21961139.873    21961140.0594   21961148.3764
        -0.000          -0.000
 -25841065.797 9 -19097470.06349  20802129.051    20802128.5464   20802136.6384
        -0.000          -0.000
  -7523044.590 9  -5608465.38545  23572337.381    23572337.0324   23572350.3214
        -0.000          -0.000
 -13069960.905 9  -9111796.63347  22986787.142    22986786.8984   22986797.9084
        -0.000          -0.000
 -23860332.937 9 -16836134.68249  20738144.134    20738143.7324   20738151.6484
        -0.000          -0.000
 99  4 10  1 56 30.0000000  0  7  6  3 26 17 22 21 23               -0.000000014
 -12651438.466 9  -9846324.39648  21380784.833    21380784.8914   21380793.0894
        -0.000          -0.000
  -5072441.539 9  -3369192.78146  24425289.744    24425289.6234   24425300.4544
        -0.000          -0.000
  -6610132.554 9  -4716722.88447  21967891.978    21967892.2144   21967900.7494
        -0.000          -0.000
 -25849530.694 9 -19104066.06849  20800518.160    20800517.7414   20800525.8044
        -0.000          -0.000
  -7489265.979 8  -5582144.42945  23578765.087    23578764.8514   23578778.1354
        -0.000          -0.000
 -13138588.384 9  -9165272.46347  22973727.813    22973727.5704   22973738.3684
        -0.000          -0.000
 -23872212.128 9 -16845391.15749  20735883.424    20735883.0574   20735891.2164
        -0.000          -0.000
 99  4 10  1 57  0.0000000  0  7  6  3 26 17 22 21 23               -0.000000017
 -12576439.166 9  -9787883.40448  21395056.819    21395056.8104   21395065.0434
        -0.000          -0.000
  -5174767.662 9  -3448927.24346  24405817.712    24405817.6644   24405828.3604
        -0.000          -0.000
  -6574078.221 9  -4688628.58247  21974753.057    21974753.2744   21974761.7224
        -0.000          -0.000
 -25857802.318 9 -19110511.46649  20798944.198    20798943.7414   20798951.7724
        -0.000          -0.000
  -7455053.735 8  -5555485.54845  23585275.706    23585275.3434   23585288.2734
        -0.000          -0.000
 -13206982.693 9  -9218566.58647  22960712.599    22960712.4404   22960723.1984
        -0.000          -0.000
 -23883721.168 9 -16854359.19949  20733693.082    20733692.7834   20733701.1624
        -0.000          -0.000
 99  4 10  1 57 30.0000000  0  7  6  3 26 17 22 21 23               -0.000000013
 -12501043.166 9  -9729133.30048  21409404.175    21409404.1784   21409412.4454
        -0.000          -0.000
  -5276999.422 9  -3528588.19146  24386363.744    24386363.5824   24386374.2084
        -0.000          -0.000
  -6537465.536 9  -4660099.21547  21981720.550    21981720.6614   21981728.9104
        -0.000          -0.000
 -25865916.453 9 -19116834.15049  20797400.065    20797399.5904   20797407.6694
        -0.000          -0.000
  -7420423.599 8  -5528501.07545  23591866.173    23591865.5894   23591877.9924
        -0.000          -0.000
 -13275158.328 9  -9271690.33147  22947738.924    22947738.8814   22947749.4844
        -0.000          -0.000
 -23894906.413 9 -16863074.92949  20731564.461    20731564.2074   20731572.6324
        -0.000          -0.000
 99  4 10  1 58  0.0000000  0  7  6  3 26 17 22 21 23                0.000000002
 -12425254.340 9  -9670077.09548  21423826.261    21423826.2844   21423834.4914
        -0.000          -0.000
  -5379127.497 9  -3608168.35146  24366929.519    24366929.1964   24366939.8094
        -0.000          -0.000
  -6500294.519 9  -4631134.77247  21988794.082    21988794.1354   21988802.2934
        -0.000          -0.000
 -25873883.788 9 -19123042.45249  20795883.892    20795883.3904   20795891.5434
        -0.000          -0.000
  -7385391.020 8  -5501202.98445  23598533.341    23598532.3364   23598544.5084
        -0.000          -0.000
 -13343116.596 9  -9324644.71147  22934806.598    22934806.7044   22934817.2654
        -0.000          -0.000
 -23905774.441 9 -16871543.47349  20729496.244    20729496.0094   20729504.3534
        -0.000          -0.000
 99  4 10  1 58 30.0000000  0  7  6  3 26 17 22 21 23                0.000000032
 -12349071.443 9  -9610713.83948  21438323.326    21438323.3784   21438331.5204
        -0.000          -0.000
  -5481153.553 9  -3687669.01045  24347514.266    24347514.0374   24347524.7854
        -0.000          -0.000
  -6462553.126 9  -4601725.87447  21995975.864    21995975.9634   21995984.0254
        -0.000          -0.000
 -25881716.637 9 -19129145.95149  20794393.349    20794392.8614   20794401.0304
        -0.000          -0.000
  -7349963.779 8  -5473597.37245  23605274.855    23605274.0894   23605286.1264
        -0.000          -0.000
 -13410853.848 9  -9377426.86647  22921916.479    22921916.6974   22921927.1104
        -0.000          -0.000
 -23916316.110 9 -16879757.72049  20727490.241    20727489.9974   20727498.1914
        -0.000          -0.000
 99  4 10  1 59  0.0000000  0  7  6  3 26 17 22 21 23                0.000000046
 -12272543.396 9  -9551081.64348  21452886.146    21452886.1664   21452894.3684
        -0.000          -0.000
  -5583126.231 9  -3767128.12745  24328109.084    24328109.0814   24328119.9264
        -0.000          -0.000
  -6424286.997 9  -4571908.07847  22003257.497    22003257.6524   22003265.6934
        -0.000          -0.000
 -25889460.975 9 -19135180.47749  20792919.648    20792919.1524   20792927.2794
        -0.000          -0.000
  -7314207.026 8  -5445734.94645  23612079.393    23612078.5784   23612090.3724
        -0.000          -0.000
 -13478408.561 9  -9430066.78247  22909061.423    22909061.5464   22909071.7194
        -0.000          -0.000
 -23926579.698 9 -16887755.28049  20725537.298    20725536.9594   20725544.9694
        -0.000          -0.000
 99  4 10  1 59 30.0000000  0  7  6  3 26 17 22 21 23                0.000000047
 -12195637.865 9  -9491155.29048  21467520.801    21467520.7954   21467529.1154
        -0.000          -0.000
  -5685006.430 9  -3846515.17446  24308721.818    24308721.8914   24308732.6964
        -0.000          -0.000
  -6385469.635 9  -4541660.75147  22010644.096    22010644.2994   22010652.3104
        -0.000          -0.000
 -25897055.198 9 -19141098.02349  20791474.520    20791474.0124   20791482.0524
        -0.000          -0.000
  -7278118.789 8  -5417614.26545  23618946.686    23618945.9344   23618957.9394
        -0.000          -0.000
 -13545737.903 9  -9482531.08547  22896249.498    22896249.2574   22896259.4084
        -0.000          -0.000
 -23936521.799 9 -16895502.32949  20723645.431    20723645.0594   20723652.9424
        -0.000          -0.000
 99  4 10  2  0  0.0000000  0  7  6  3 26 17 22 21 23                0.000000035
 -12118321.749 9  -9430908.99148  21482233.528    21482233.5394   21482242.0844
        -0.000          -0.000
  -5786746.384 9  -3925792.95245  24289361.552    24289361.5054   24289371.9724
        -0.000          -0.000
  -6346076.674 9  -4510964.89947  22018140.305    22018140.5694   22018148.5534
        -0.000          -0.000
 -25904443.824 9 -19146855.36749  20790068.510    20790068.0054   20790075.9974
        -0.000          -0.000
  -7241672.239 8  -5389214.41045  23625882.300    23625881.6134   23625893.4544
        -0.000          -0.000
 -13612814.897 9  -9534798.75247  22883485.017    22883484.6734   22883495.2004
        -0.000          -0.000
 -23946079.773 9 -16902950.05849  20721826.670    20721826.2884   20721834.0114
        -0.000          -0.000
 99  4 10  2  0 30.0000000  0  7  6  3 26 17 22 21 23                0.000000003
 -12040586.716 9  -9370336.26048  21497026.015    21497026.0294   21497034.6724
        -0.000          -0.000
  -5888339.222 9  -4004956.09845  24270029.284    24270029.0784   24270039.2364
        -0.000          -0.000
  -6306112.497 9  -4479823.95647  22025745.172    22025745.4344   22025753.3704
        -0.000          -0.000
 -25911618.667 9 -19152446.13549  20788703.127    20788702.6714   20788710.6984
        -0.000          -0.000
  -7204863.048 9  -5360531.96446  23632886.593    23632886.0034   23632897.8654
        -0.000          -0.000
 -13679643.582 9  -9586872.92747  22870767.663    22870767.3884   22870777.8854
        -0.000          -0.000
 -23955235.350 9 -16910084.22949  20720084.432    20720084.0054   20720091.6934
        -0.000          -0.000
 99  4 10  2  1  0.0000000  0  7  6  3 26 17 22 21 23               -0.000000039
 -11962400.309 9  -9309411.81848  21511904.464    21511904.4984   21511913.0364
        -0.000          -0.000
  -5989741.488 9  -4083970.73645  24250733.315    24250732.8074   24250742.8674
        -0.000          -0.000
  -6265559.287 9  -4448224.01347  22033462.282    22033462.5224   22033470.4194
        -0.000          -0.000
 -25918533.538 9 -19157834.31949  20787387.158    20787386.7324   20787394.7954
        -0.000          -0.000
  -7167662.442 9  -5331544.51446  23639965.321    23639964.8734   23639976.8644
        -0.000          -0.000
 -13746189.967 9  -9638727.13747  22858104.166    22858103.8544   22858114.2804
        -0.000          -0.000
 -23963943.455 9 -16916869.72649  20718427.256    20718426.8124   20718434.5314
        -0.000          -0.000
 99  4 10  2  1 30.0000000  0  7  6  3 26 17 22 21 23               -0.000000073
 -11883738.408 9  -9248116.86648  21526873.478    21526873.4464   21526881.8794
        -0.000          -0.000
  -6090929.355 9  -4162818.31845  24231477.636    24231477.2474   24231487.4244
        -0.000          -0.000
  -6224390.265 9  -4416144.24747  22041296.407    22041296.6584   22041304.4624
        -0.000          -0.000
 -25925173.733 9 -19163008.46649  20786123.539    20786123.1064   20786131.1124
        -0.000          -0.000
  -7130032.933 9  -5302222.89246  23647125.700    23647125.4064   23647137.3844
        -0.000          -0.000
 -13812436.195 9  -9690347.45947  22845498.009    22845497.7014   22845508.0144
        -0.000          -0.000
 -23972176.277 9 -16923284.87049  20716860.446    20716860.0574   20716867.8074
        -0.000          -0.000
 99  4 10  2  2  0.0000000  0  7  6  3 26 17 22 21 23               -0.000000085
 -11804613.152 9  -9186460.85048  21541930.452    21541930.4724   21541938.9794
        -0.000          -0.000
  -6191905.611 8  -4241501.04545  24212261.935    24212261.6914   24212272.0804
        -0.000          -0.000
  -6182600.826 9  -4383581.04847  22049248.634    22049248.8534   22049256.6844
        -0.000          -0.000
 -25931569.642 9 -19167992.26449  20784906.575    20784906.0894   20784914.0634
        -0.000          -0.000
  -7091965.111 9  -5272559.70146  23654369.715    23654369.5704   23654381.1384
        -0.000          -0.000
 -13878386.492 9  -9741737.18347  22832948.326    22832947.9394   22832958.1764
        -0.000          -0.000
 -23979948.532 9 -16929341.12949  20715381.367    20715381.0304   20715388.7454
        -0.000          -0.000
 99  4 10  2  2 30.0000000  0  7  6  3 26 17 22 21 23               -0.000000082
 -11725068.428 9  -9124477.97748  21557067.105    21557067.1734   21557075.9324
        -0.000          -0.000
  -6292711.491 8  -4320050.99245  24193078.631    24193078.6204   24193089.1964
        -0.000          -0.000
  -6140229.987 9  -4350564.79347  22057311.488    22057311.6224   22057319.4714
        -0.000          -0.000
 -25937775.781 9 -19172828.20349  20783725.545    20783725.0474   20783733.1224
        -0.000          -0.000
  -7053493.924 9  -5242582.23946  23661690.921    23661690.7714   23661701.8244
        -0.000          -0.000
 -13944069.899 9  -9792918.93247  22820449.122    22820448.5934   22820458.9064
        -0.000          -0.000
 -23987323.306 9 -16935087.66449  20713978.036    20713977.6324   20713985.3984
        -0.000          -0.000
 99  4 10  2  3  0.0000000  0  7  6  3 26 17 22 21 23               -0.000000063
 -11645120.410 9  -9062180.85648  21572280.703    21572280.8404   21572289.6344
        -0.000          -0.000
  -6393367.113 8  -4398483.86545  24173924.073    24173924.1614   24173935.0734
        -0.000          -0.000
  -6097282.355 9  -4317099.08746  22065483.917    22065484.0544   22065492.0274
        -0.000          -0.000
 -25943803.073 9 -19177524.77649  20782578.562    20782578.0714   20782586.1494
        -0.000          -0.000
  -7014629.958 9  -5212298.65346  23669087.064    23669086.6424   23669097.5904
        -0.000          -0.000
 -14009490.185 9  -9843895.66447  22807999.437    22807999.0714   22808009.5284
        -0.000          -0.000
 -23994332.962 9 -16940549.69449  20712644.060    20712643.6554   20712651.5004
        -0.000          -0.000
 99  4 10  2  3 30.0000000  0  7  6  3 26 17 22 21 23               -0.000000034
 -11564798.512 9  -8999592.39348  21587565.769    21587565.8284   21587574.4484
        -0.000          -0.000
  -6493916.459 8  -4476833.91145  24154789.932    24154790.0184   24154800.9544
        -0.000          -0.000
  -6053773.020 9  -4283195.71246  22073763.262    22073763.4614   22073771.4954
        -0.000          -0.000
 -25949684.777 9 -19182107.89349  20781459.325    20781458.7954   20781466.8724
        -0.000          -0.000
  -6975406.429 9  -5181734.88946  23676551.151    23676550.6754   23676561.6764
        -0.000          -0.000
 -14074679.097 9  -9894692.10247  22795594.022    22795593.7594   22795604.3454
        -0.000          -0.000
 -24001034.966 9 -16945771.99949  20711368.723    20711368.3384   20711376.1424
        -0.000          -0.000
 99  4 10  2  4  0.0000000  0  7  6  3 26 17 22 21 23               -0.000000002
 -11484116.929 9  -8936723.65948  21602919.216    21602919.2404   21602927.7184
        -0.000          -0.000
  -6594364.268 9  -4555104.81445  24135674.703    24135674.9414   24135686.3754
        -0.000          -0.000
  -6009719.957 9  -4248868.63646  22082146.254    22082146.4084   22082154.4234
        -0.000          -0.000
 -25955433.523 9 -19186587.41149  20780365.392    20780364.8734   20780372.9614
        -0.000          -0.000
  -6935848.785 9  -5150910.76846  23684078.496    23684078.1444   23684089.0744
        -0.000          -0.000
 -14139640.104 9  -9945310.94347  22783232.235    22783232.0274   22783242.6164
        -0.000          -0.000
 -24007448.867 9 -16950769.80449  20710148.356    20710147.8934   20710155.5604
        -0.000          -0.000
 99  4 10  2  4 30.0000000  0  7  6  3 26 17 22 21 23                0.000000017
 -11403091.592 9  -8873587.04848  21618338.004    21618337.9864   21618346.3844
        -0.000          -0.000
  -6694723.800 9  -4633306.92446  24116576.780    24116577.0524   24116588.7324
        -0.000          -0.000
  -5965143.502 9  -4214133.70047  22090628.867    22090629.0564   22090637.0414
        -0.000          -0.000
 -25961055.951 9 -19190968.49549  20779295.532    20779294.9534   20779303.1144
        -0.000          -0.000
  -6895971.919 9  -5119837.93146  23691667.134    23691666.5804   23691677.3674
        -0.000          -0.000
 -14204396.484 9  -9995770.32847  22770909.520    22770909.2884   22770919.9034
        -0.000          -0.000
 -24013581.238 9 -16955548.23449  20708981.435    20708980.9814   20708988.6214
        -0.000          -0.000
 99  4 10  2  5  0.0000000  0  7  6  3 26 17 22 21 23                0.000000022
 -11321708.659 9  -8810171.79848  21633824.612    21633824.6154   21633833.0274
        -0.000          -0.000
  -6794970.714 8  -4711421.27046  24097500.351    24097500.6484   24097512.5354
        -0.000          -0.000
  -5920022.478 9  -4178974.43047  22099215.163    22099215.4024   22099223.4984
        -0.000          -0.000
 -25966513.040 9 -19195220.74749  20778256.979    20778256.4534   20778264.5604
        -0.000          -0.000
  -6855748.308 9  -5088494.88746  23699321.605    23699320.9324   23699331.7884
        -0.000          -0.000
 -14268931.280 9 -10046057.07647  22758628.892    22758628.6994   22758639.1294
        -0.000          -0.000
 -24019389.801 9 -16960074.34449  20707876.050    20707875.6064   20707883.2014
        -0.000          -0.000
 99  4 10  2  5 30.0000000  0  7  6  3 26 17 22 21 23                0.000000021
 -11239944.064 9  -8746459.15248  21649383.904    21649383.9234   21649392.2924
        -0.000          -0.000
  -6895056.588 9  -4789410.11546  24078454.486    24078454.8034   24078466.9094
        -0.000          -0.000
  -5874333.086 9  -4143372.28247  22107909.705    22107909.9524   22107918.1854
        -0.000          -0.000
 -25971767.381 9 -19199315.01849  20777257.102    20777256.5354   20777264.6234
        -0.000          -0.000
  -6815154.471 9  -5056863.36846  23707046.338    23707045.6244   23707056.8624
        -0.000          -0.000
 -14333216.853 9 -10096149.62347  22746395.672    22746395.5884   22746405.7834
        -0.000          -0.000
 -24024823.485 9 -16964308.35049  20706841.931    20706841.4824   20706849.0964
        -0.000          -0.000
 99  4 10  2  6  0.0000000  0  7  6  3 26 17 22 21 23                0.000000001
 -11157814.814 9  -8682462.38148  21665012.547    21665012.5244   21665020.8314
        -0.000          -0.000
  -6994969.247 9  -4867263.98746  24059441.741    24059441.9264   24059454.0434
        -0.000          -0.000
  -5828101.524 9  -4107347.67247  22116707.397    22116707.6724   22116715.7364
        -0.000          -0.000
 -25976826.089 9 -19203256.84849  20776294.397    20776293.9114   20776301.9324
        -0.000          -0.000
  -6774194.346 9  -5024946.40846  23714840.618    23714839.7884   23714851.7584
        -0.000          -0.000
 -14397267.344 9 -10146058.98947  22734207.478    22734207.3254   22734217.2984
        -0.000          -0.000
 -24029875.913 9 -16968245.27149  20705880.437    20705879.9684   20705887.5814
        -0.000          -0.000
 99  4 10  2  6 30.0000000  0  7  6  3 26 17 22 21 23               -0.000000021
 -11075274.419 9  -8618145.24248  21680719.261    21680719.2314   21680727.7574
        -0.000          -0.000
  -7094654.993 9  -4944941.01946  24040472.145    24040472.1474   24040484.2104
        -0.000          -0.000
  -5781292.605 9  -4070873.19247  22125614.886    22125615.1454   22125623.0844
        -0.000          -0.000
 -25981630.745 9 -19207000.70549  20775380.127    20775379.6244   20775387.5414
        -0.000          -0.000
  -6732810.702 9  -4992699.45246  23722715.433    23722714.7874   23722727.0814
        -0.000          -0.000
 -14461044.272 9 -10195755.19147  22722071.195    22722070.9184   22722080.9454
        -0.000          -0.000
 -24034481.858 9 -16971834.28949  20705003.944    20705003.5044   20705011.1264
        -0.000          -0.000
 99  4 10  2  7  0.0000000  0  7  6  3 26 17 22 21 23               -0.000000034
 -10992304.841 9  -8553493.64548  21696507.717    21696507.6814   21696516.4564
        -0.000          -0.000
  -7194109.410 8  -5022437.80046  24021546.341    24021546.4004   24021558.2094
        -0.000          -0.000
  -5733891.788 9  -4033937.51047  22134634.813    22134635.0714   22134643.0374
        -0.000          -0.000
 -25986166.916 9 -19210535.35649  20774516.828    20774516.3824   20774524.2584
        -0.000          -0.000
  -6691004.893 9  -4960123.52546  23730670.615    23730670.1094   23730682.3204
        -0.000          -0.000
 -14524527.363 9 -10245222.41347  22709990.541    22709990.2824   22710000.4974
        -0.000          -0.000
 -24038639.213 9 -16975073.75149  20704212.803    20704212.3424   20704219.9514
        -0.000          -0.000
 99  4 10  2  7 30.0000000  0  7  6  3 26 17 22 21 23               -0.000000033
 -10908915.319 9  -8488514.82648  21712376.395    21712376.2844   21712385.1554
        -0.000          -0.000
  -7293354.038 9  -5099771.10146  24002660.562    24002660.7844   24002672.3814
        -0.000          -0.000
  -5685914.059 9  -3996552.24347  22143764.695    22143764.8914   22143772.8264
        -0.000          -0.000
 -25990468.149 9 -19213886.94249  20773698.345    20773697.8984   20773705.7664
        -0.000          -0.000
  -6648812.562 9  -4927246.41946  23738699.458    23738699.0404   23738711.2634
        -0.000          -0.000
 -14587736.313 9 -10294476.02747  22697961.952    22697961.8084   22697972.1674
        -0.000          -0.000
 -24042389.780 9 -16977996.23449  20703498.950    20703498.5564   20703506.1754
        -0.000          -0.000
 99  4 10  2  8  0.0000000  0  7  6  3 26 17 22 21 23               -0.000000019
 -10825114.485 9  -8423215.49948  21728323.345    21728323.2444   21728332.0474
        -0.000          -0.000
  -7392423.309 9  -5176967.75946  23983808.206    23983808.3354   23983819.9014
        -0.000          -0.000
  -5637375.740 9  -3958730.18447  22153001.212    22153001.5064   22153009.2574
        -0.000          -0.000
 -25994559.168 9 -19217074.72049  20772919.835    20772919.3874   20772927.2374
        -0.000          -0.000
  -6606249.355 9  -4894080.34246  23746799.173    23746798.7834   23746810.8354
        -0.000          -0.000
 -14650688.050 9 -10343529.21447  22685982.564    22685982.4114   22685992.6104
        -0.000          -0.000
 -24045774.605 9 -16980633.71949  20702854.862    20702854.4724   20702861.9584
        -0.000          -0.000
 99  4 10  2  8 30.0000000  0  7  6  3 26 17 22 21 23               -0.000000002
 -10740920.493 9  -8357609.83348  21744345.120    21744344.9734   21744353.4754
        -0.000          -0.000
  -7491352.032 9  -5254054.90146  23964982.671    23964982.8084   23964994.5644
        -0.000          -0.000
  -5588276.572 9  -3920471.08547  22162344.584    22162344.8784   22162352.3184
        -0.000          -0.000
 -25998453.742 9 -19220109.42549  20772178.761    20772178.3304   20772186.0444
        -0.000          -0.000
  -6563359.087 9  -4860659.40146  23754961.098    23754960.6744   23754972.9134
        -0.000          -0.000
 -14713383.609 9 -10392382.79147  22674052.078    22674051.8304   22674061.8634
        -0.000          -0.000
 -24048826.133 9 -16983011.49949  20702274.277    20702273.8844   20702281.3144
        -0.000          -0.000
 99  4 10  2  9  0.0000000  0  7  6  3 26 17 22 21 23                0.000000026
 -10656351.637 9  -8291712.06448  21760437.928    21760437.8634   21760446.2804
        -0.000          -0.000
  -7590160.559 9  -5331048.40546  23946179.921    23946179.9954   23946191.8354
        -0.000          -0.000
  -5538605.459 9  -3881766.30847  22171796.614    22171796.9354   22171804.3924
        -0.000          -0.000
 -26002162.746 9 -19222999.53249  20771472.987    20771472.4794   20771480.1954
        -0.000          -0.000
  -6520171.610 9  -4827006.83746  23763179.221    23763178.8844   23763191.4424
        -0.000          -0.000
 -14775822.398 9 -10441036.30047  22662170.560    22662170.2264   22662179.9954
        -0.000          -0.000
 -24051592.543 9 -16985167.11349  20701747.884    20701747.4784   20701754.9224
        -0.000          -0.000
 99  4 10  2  9 30.0000000  0  7  6  3 26 17 22 21 23                0.000000047
 -10571453.320 9  -8225557.57748  21776593.401    21776593.3884   21776601.8844
        -0.000          -0.000
  -7688868.724 9  -5407963.70346  23927396.238    23927396.2494   23927408.1894
        -0.000          -0.000
  -5488409.526 9  -3842652.55847  22181348.708    22181348.9914   22181356.3904
        -0.000          -0.000
 -26005734.069 9 -19225782.36949  20770793.222    20770792.7494   20770800.6874
        -0.000          -0.000
  -6476721.590 9  -4793149.69346  23771447.318    23771446.9804   23771459.6654
        -0.000          -0.000
 -14838047.268 9 -10489523.11047  22650329.756    22650329.4034   22650339.0794
        -0.000          -0.000
 -24054117.538 9 -16987134.60249  20701267.292    20701266.9414   20701274.4454
        -0.000          -0.000
 99  4 10  2 10  0.0000000  0  7  6  3 26 17 22 21 23                0.000000062
 -10486221.922 9  -8159143.54948  21792812.422    21792812.4104   21792821.0844
        -0.000          -0.000
  -7787454.645 9  -5484783.76346  23908635.742    23908635.7974   23908647.7264
        -0.000          -0.000
  -5437679.874 9  -3803122.94747  22191002.283    22191002.5094   22191009.8894
        -0.000          -0.000
 -26009147.396 9 -19228442.06949  20770143.752    20770143.2994   20770151.1994
        -0.000          -0.000
  -6432993.361 9  -4759075.79446  23779768.614    23779768.3594   23779780.3964
        -0.000          -0.000
 -14900040.139 9 -10537829.13647  22638532.889    22638532.5304   22638542.2104
        -0.000          -0.000
 -24056375.367 9 -16988893.91349  20700837.515    20700837.1694   20700844.7744
        -0.000          -0.000
 99  4 10  2 10 30.0000000  0  7  6  3 26 17 22 21 23                0.000000071
 -10400670.272 9  -8092479.97448  21809092.454    21809092.4294   21809101.2354
        -0.000          -0.000
  -7885888.287 9  -5561485.14346  23889904.007    23889904.3234   23889916.0244
        -0.000          -0.000
  -5386418.724 9  -3763179.16147  22200756.948    22200757.1174   22200764.5484
        -0.000          -0.000
 -26012401.861 9 -19230977.99149  20769524.552    20769524.0684   20769531.8424
        -0.000          -0.000
  -6388975.386 9  -4724776.11446  23788145.547    23788144.9194   23788156.2314
        -0.000          -0.000
 -14961798.443 9 -10585952.39147  22626780.411    22626780.0874   22626789.9244
        -0.000          -0.000
 -24058347.168 9 -16990430.34549  20700462.166    20700461.8194   20700469.4744
        -0.000          -0.000
 99  4 10  2 11  0.0000000  0  7  6  3 26 17 22 21 23                0.000000062
 -10314810.007 9  -8025575.90748  21825431.196    21825431.1384   21825440.0434
        -0.000          -0.000
  -7984168.010 9  -5638066.64046  23871201.757    23871202.1414   23871213.7264
        -0.000          -0.000
  -5334654.197 9  -3722843.14047  22210607.417    22210607.5864   22210615.1614
        -0.000          -0.000
 -26015518.863 9 -19233406.80849  20768931.295    20768930.7994   20768938.5434
        -0.000          -0.000
  -6344650.261 9  -4690237.09846  23796580.440    23796580.0004   23796590.8834
        -0.000          -0.000
 -15023352.797 9 -10633916.71247  22615066.742    22615066.4364   22615076.4584
        -0.000          -0.000
 -24060022.758 9 -16991735.96449  20700143.327    20700142.9694   20700150.5234
        -0.000          -0.000
 99  4 10  2 11 30.0000000  0  7  6  3 26 17 22 21 23                0.000000042
 -10228601.816 9  -7958400.71948  21841836.025    21841836.0024   21841845.0314
        -0.000          -0.000
  -8082253.599 9  -5714496.84646  23852536.488    23852536.8934   23852548.3954
        -0.000          -0.000
  -5282378.524 9  -3682108.83347  22220555.276    22220555.3204   22220563.1054
        -0.000          -0.000
 -26018474.354 9 -19235709.77349  20768368.792    20768368.3584   20768376.1024
        -0.000          -0.000
  -6299978.075 9  -4655427.64646  23805081.081    23805080.7664   23805091.7994
        -0.000          -0.000
 -15084686.399 9 -10681709.03647  22603395.313    22603395.0254   22603404.9674
        -0.000          -0.000
 -24061335.312 9 -16992758.70149  20699893.566    20699893.2124   20699900.7064
        -0.000          -0.000
 99  4 10  2 12  0.0000000  0  7  6  3 26 17 22 21 23                0.000000026
 -10142005.188 9  -7890922.85148  21858314.685    21858314.7334   21858323.8114
        -0.000          -0.000
  -8180099.165 9  -5790740.02246  23833917.221    23833917.4424   23833928.8034
        -0.000          -0.000
  -5229548.714 9  -3640942.72646  22230608.110    22230608.2514   22230616.4454
        -0.000          -0.000
 -26021204.964 9 -19237837.50249  20767849.213    20767848.7384   20767856.5604
        -0.000          -0.000
  -6254918.655 9  -4620316.46946  23813655.392    23813655.1094   23813666.6814
        -0.000          -0.000
 -15145760.981 9 -10729299.52047  22591773.216    22591772.8514   22591782.5714
        -0.000          -0.000
 -24062225.815 9 -16993452.56949  20699724.057    20699723.7004   20699731.2894
        -0.000          -0.000
 99  4 10  2 12 30.0000000  0  7  6  3 26 17 22 21 23                0.000000008
 -10055021.872 9  -7823143.67347  21874867.156    21874867.2044   21874876.1004
        -0.000          -0.000
  -8277707.159 9  -5866798.10946  23815343.328    23815343.3514   23815354.4664
        -0.000          -0.000
  -5176174.958 9  -3599352.78446  22240764.505    22240764.7394   22240773.2274
        -0.000          -0.000
 -26023703.894 9 -19239784.70349  20767373.628    20767373.1574   20767381.0244
        -0.000          -0.000
  -6209492.168 9  -4584919.28246  23822299.687    23822299.5254   23822311.2864
        -0.000          -0.000
 -15206578.239 9 -10776689.48547  22580199.860    22580199.5044   22580209.2644
        -0.000          -0.000
 -24062697.949 9 -16993820.43749  20699634.202    20699633.8624   20699641.4564
        -0.000          -0.000
 99  4 10  2 13  0.0000000  0  7  6  3 26 17 22 21 23               -0.000000004
  -9967611.153 9  -7755031.47347  21891501.070    21891501.0194   21891509.7024
        -0.000          -0.000
  -8375066.749 9  -5942662.61746  23796816.572    23796816.4374   23796827.5174
        -0.000          -0.000
  -5122238.206 9  -3557324.15446  22251028.089    22251028.4244   22251036.9984
        -0.000          -0.000
 -26025934.093 9 -19241522.50549  20766949.245    20766948.7904   20766956.6074
        -0.000          -0.000
  -6163696.368 9  -4549234.32746  23831014.695    23831014.3624   23831025.9144
        -0.000          -0.000
 -15267107.853 9 -10823855.31047  22568681.056    22568680.8774   22568690.7114
        -0.000          -0.000
 -24062733.955 9 -16993848.45349  20699627.263    20699626.8874   20699634.5574
        -0.000          -0.000
 99  4 10  2 13 30.0000000  0  7  6  3 26 17 22 21 23               -0.000000012
  -9879788.647 9  -7686598.38547  21908213.308    21908213.1494   21908221.6794
        -0.000          -0.000
  -8472175.753 9  -6018331.87946  23778337.131    23778337.1604   23778348.2254
        -0.000          -0.000
  -5067738.791 9  -3514857.03846  22261398.951    22261399.2144   22261407.9904
        -0.000          -0.000
 -26027886.547 9 -19243043.88049  20766577.751    20766577.2684   20766585.0964
        -0.000          -0.000
  -6117553.365 9  -4513278.80646  23839795.520    23839795.0834   23839806.6254
        -0.000          -0.000
 -15327338.826 9 -10870788.42047  22557219.554    22557219.2624   22557228.9044
        -0.000          -0.000
 -24062359.975 9 -16993557.00149  20699698.302    20699697.9674   20699705.7394
        -0.000          -0.000
 99  4 10  2 14  0.0000000  0  7  6  3 26 17 22 21 23               -0.000000018
  -9791584.055 9  -7617867.57647  21924997.833    21924997.7204   21925006.5254
        -0.000          -0.000
  -8569053.609 9  -6093821.03046  23759901.880    23759902.0824   23759913.0114
        -0.000          -0.000
  -5012675.809 9  -3471950.79246  22271877.292    22271877.5504   22271886.1714
        -0.000          -0.000
 -26029559.577 9 -19244347.53249  20766259.333    20766258.8684   20766266.7584
        -0.000          -0.000
  -6071080.453 9  -4477066.20346  23848638.829    23848638.4524   23848650.3084
        -0.000          -0.000
 -15387264.352 9 -10917483.53747  22545816.026    22545815.6574   22545825.2504
        -0.000          -0.000
 -24061612.441 9 -16992974.48549  20699840.512    20699840.1994   20699848.0224
        -0.000          -0.000
 99  4 10  2 14 30.0000000  0  7  6  3 26 17 22 21 23               -0.000000025
  -9703021.722 9  -7548857.99347  21941850.523    21941850.4434   21941859.4454
        -0.000          -0.000
  -8665739.963 9  -6169160.92446  23741503.443    23741503.4294   23741514.2284
        -0.000          -0.000
  -4957070.382 9  -3428621.88346  22282459.049    22282459.2034   22282467.5154
        -0.000          -0.000
 -26030996.476 9 -19245467.18849  20765985.793    20765985.3584   20765993.3764
        -0.000          -0.000
  -6024290.413 8  -4440606.49646  23857542.510    23857542.0174   23857554.3294
        -0.000          -0.000
 -15446900.136 9 -10963952.88647  22534467.438    22534467.2534   22534476.8274
        -0.000          -0.000
 -24060531.782 9 -16992132.38549  20700046.203    20700045.8864   20700053.7114
        -0.000          -0.000
 99  4 10  2 15  0.0000000  0  7  6  3 26 17 22 21 23               -0.000000025
  -9614119.872 9  -7479583.85647  21958767.978    21958767.8814   21958776.8774
        -0.000          -0.000
  -8762245.195 9  -6244359.68846  23723139.354    23723139.1624   23723149.8264
        -0.000          -0.000
  -4900932.090 9  -3384877.73046  22293142.003    22293142.1684   22293150.2334
        -0.000          -0.000
 -26032233.666 9 -19246431.22049  20765750.312    20765749.9104   20765757.8964
        -0.000          -0.000
  -5977174.172 9  -4403892.59746  23866508.405    23866507.8904   23866520.4024
        -0.000          -0.000
 -15506272.021 9 -11010216.57947  22523169.455    22523169.2844   22523178.6854
        -0.000          -0.000
 -24059142.223 9 -16991049.58249  20700310.680    20700310.3534   20700318.1004
        -0.000          -0.000
 99  4 10  2 15 30.0000000  0  8  6  3 26 17 22 21 23 29            -0.000000023
  -9524913.528 9  -7410072.44847  21975743.452    21975743.3194   21975752.3124
        -0.000          -0.000
  -8858576.022 9  -6319422.54946  23704808.321    23704808.0634   23704818.6724
        -0.000          -0.000
  -4844266.471 9  -3340722.69246  22303925.074    22303925.2344   22303933.3084
        -0.000          -0.000
 -26033298.134 9 -19247260.65149  20765547.831    20765547.4114   20765555.1104
        -0.000          -0.000
  -5929736.684 9  -4366928.36946  23875535.862    23875535.1304   23875547.6884
        -0.000          -0.000
 -15565395.843 9 -11056286.98447  22511918.692    22511918.4334   22511927.8144
        -0.000          -0.000
 -24057453.808 9 -16989733.91149  20700632.034    20700631.6714   20700639.3264
        -0.000          -0.000
  -1196227.617 8   -918133.18443         0.000           0.0004   25026208.2514
        -0.000          -0.000
 99  4 10  2 16  0.0000000  0  8  6  3 26 17 22 21 23 29            -0.000000016
  -9435391.365 9  -7340314.94147  21992779.006    21992778.9264   21992787.8204
        -0.000          -0.000
  -8954720.325 9  -6394340.06046  23686512.566    23686512.3794   23686523.0314
        -0.000          -0.000
  -4787082.475 9  -3296163.72846  22314806.726    22314806.9814   22314814.8784
        -0.000          -0.000
 -26034195.587 9 -19247959.94449  20765377.169    20765376.6594   20765384.2494
        -0.000          -0.000
  -5881976.439 9  -4329712.66846  23884624.668    23884623.9494   23884636.3354
        -0.000          -0.000
 -15624281.663 9 -11102171.93147  22500713.132    22500712.7914   22500722.3124
        -0.000          -0.000
 -24055461.723 9 -16988181.60949  20701011.127    20701010.7194   20701018.3164
        -0.000          -0.000
  -1304313.375 8  -1002355.36545  25005622.604    25005624.8564   25005641.2364
        -0.000          -0.000
 99  4 10  2 16 30.0000000  0  8  6  3 26 17 22 21 23 29            -0.000000004
  -9345545.301 9  -7270305.05347  22009876.162    22009876.1494   22009884.9834
        -0.000          -0.000
  -9050657.014 9  -6469095.80046  23668256.275    23668256.1074   23668266.7724
        -0.000          -0.000
  -4729391.060 9  -3251209.36546  22325784.990    22325785.2014   22325792.9474
        -0.000          -0.000
 -26034932.190 9 -19248533.91249  20765236.963    20765236.4664   20765244.1304
        -0.000          -0.000
  -5833903.291 9  -4292253.09446  23893772.806    23893771.9264   23893784.4194
        -0.000          -0.000
 -15682941.321 9 -11147880.65847  22489550.376    22489550.0394   22489559.7774
        -0.000          -0.000
 -24053153.936 9 -16986383.31349  20701450.185    20701449.8054   20701457.4634
        -0.000          -0.000
  -1412474.679 8  -1086636.44845  24985041.404    24985042.1854   24985058.7164
        -0.000          -0.000
 99  4 10  2 17  0.0000000  0  8  6  3 26 17 22 21 23 29             0.000000006
  -9255374.434 9  -7200042.08047  22027035.268    22027035.2404   22027043.9144
        -0.000          -0.000
  -9146356.341 9  -6543666.56746  23650045.122    23650044.9854   23650055.6394
        -0.000          -0.000
  -4671194.532 9  -3205861.40546  22336859.147    22336859.5344   22336867.2244
        -0.000          -0.000
 -26035488.855 9 -19248967.65749  20765131.047    20765130.5594   20765138.1664
        -0.000          -0.000
  -5785534.872 9  -4254563.47546  23902977.167    23902976.2334   23902988.5664
        -0.000          -0.000
 -15741373.116 9 -11193411.81447  22478431.191    22478430.7674   22478440.4604
        -0.000          -0.000
 -24050515.540 9 -16984327.39549  20701952.265    20701951.8974   20701959.5274
        -0.000          -0.000
  -1520716.010 8  -1170979.83645  24964444.296    24964446.4034   24964460.8714
        -0.000          -0.000
 99  4 10  2 17 30.0000000  0  8  6  3 26 17 22 21 23 29             0.000000011
  -9164878.740 9  -7129525.99147  22044256.201    22044256.1294   22044264.5934
        -0.000          -0.000
  -9241803.031 9  -6618040.46746  23631882.036    23631881.9094   23631892.5754
        -0.000          -0.000
  -4612488.384 9  -3160116.32246  22348030.573    22348030.7704   22348038.5114
        -0.000          -0.000
 -26035836.921 9 -19249238.84849  20765064.865    20765064.3254   20765071.8834
        -0.000          -0.000
  -5736881.567 9  -4216651.88746  23912235.652    23912234.8344   23912246.8044
        -0.000          -0.000
 -15799565.345 9 -11238756.29147  22467357.500    22467357.0334   22467366.6374
        -0.000          -0.000
 -24047539.166 9 -16982008.11849  20702518.598    20702518.2654   20702525.8714
        -0.000          -0.000
  -1629021.578 8  -1255373.28345  24943835.383    24943837.1504   24943849.7464
        -0.000          -0.000
 99  4 10  2 18  0.0000000  0  8  6  3 26 17 22 21 23 29             0.000000022
  -9074025.678 9  -7058731.43147  22061545.023    22061544.8914   22061553.3624
        -0.000          -0.000
  -9336983.547 9  -6692206.96346  23613769.731    23613769.4884   23613780.1284
        -0.000          -0.000
  -4553257.576 9  -3113962.41946  22359301.591    22359301.6784   22359309.8194
        -0.000          -0.000
 -26035949.601 9 -19249326.63649  20765043.333    20765042.8404   20765050.4824
        -0.000          -0.000
  -5687935.627 9  -4178512.27246  23921550.039    23921549.1854   23921560.8264
        -0.000          -0.000
 -15857497.876 9 -11283898.42447  22456333.108    22456332.6654   22456342.1464
        -0.000          -0.000
 -24044211.578 9 -16979415.16649  20703151.804    20703151.4764   20703159.0024
        -0.000          -0.000
  -1737354.541 8  -1339788.06345  24923220.809    24923221.9634   24923234.3954
        -0.000          -0.000
 99  4 10  2 18 30.0000000  0  8  6  3 26 17 22 21 23 29             0.000000020
  -8982839.013 9  -6987676.89747  22078896.925    22078896.9084   22078905.7324
        -0.000          -0.000
  -9431930.268 9  -6766191.25546  23595701.909    23595701.5964   23595712.2044
        -0.000          -0.000
  -4493513.969 9  -3067408.95046  22370670.487    22370670.5774   22370678.4924
        -0.000          -0.000
 -26035839.367 9 -19249240.70949  20765064.407    20765063.8554   20765071.5014
        -0.000          -0.000
  -5638711.094 9  -4140155.54446  23930917.497    23930916.6014   23930928.3304
        -0.000          -0.000
 -15915177.539 9 -11328843.51147  22445356.838    22445356.4534   22445365.6634
        -0.000          -0.000
 -24040542.418 9 -16976556.05449  20703849.955    20703849.6634   20703857.1374
        -0.000          -0.000
  -1845719.292 8  -1424227.67045  24902599.603    24902600.0104   24902612.8844
        -0.000          -0.000
 99  4 10  2 19  0.0000000  0  8  6  3 26 17 22 21 23 29             0.000000020
  -8891317.469 9  -6916361.45247  22096312.857    22096312.8804   22096321.8364
        -0.000          -0.000
  -9526642.076 9  -6839992.49946  23577678.573    23577678.2534   23577688.8664
        -0.000          -0.000
  -4433237.926 9  -3020440.63346  22382140.782    22382140.8864   22382148.5834
        -0.000          -0.000
 -26035492.383 9 -19248970.31049  20765130.407    20765129.8604   20765137.5174
        -0.000          -0.000
  -5589185.258 9  -4101564.02146  23940341.603    23940340.7874   23940353.2064
        -0.000          -0.000
 -15972595.013 9 -11373584.29047  22434430.438    22434430.0974   22434439.3624
        -0.000          -0.000
 -24036533.505 9 -16973432.20749  20704612.885    20704612.5654   20704620.0664
        -0.000          -0.000
  -1954101.942 8  -1508681.22845  24881974.952    24881974.8584   24881988.0804
        -0.000          -0.000
 99  4 10  2 19 30.0000000  0  8  6  3 26 17 22 21 23 29             0.000000023
  -8799459.397 9  -6844783.77147  22113793.106    22113793.0094   22113801.9064
        -0.000          -0.000
  -9621140.715 9  -6913627.64446  23559695.745    23559695.4234   23559706.0914
        -0.000          -0.000
  -4372437.006 9  -2973063.30146  22393710.955    22393711.0564   22393718.7854
        -0.000          -0.000
 -26034911.968 9 -19248518.01449  20765240.829    20765240.2534   20765247.9974
        -0.000          -0.000
  -5539348.052 9  -4062729.93646  23949825.011    23949824.2924   23949836.9814
        -0.000          -0.000
 -16029746.466 9 -11418117.77847  22423554.800    22423554.4964   22423563.9674
        -0.000          -0.000
 -24032196.567 9 -16970052.76049  20705438.252    20705437.8844   20705445.3524
        -0.000          -0.000
  -2062487.617 7  -1593137.19845  24861348.900    24861349.0174   24861363.3154
        -0.000          -0.000
 99  4 10  2 20  0.0000000  0  8  6  3 26 17 22 21 23 29             0.000000016
  -8707274.646 9  -6772951.53347  22131335.391    22131335.2654   22131344.2124
        -0.000          -0.000
  -9715448.659 9  -6987114.18846  23541748.914    23541748.7574   23541759.5584
        -0.000          -0.000
  -4311136.018 9  -2925296.25746  22405376.305    22405376.2914   22405384.1504
        -0.000          -0.000
 -26034114.327 9 -19247896.44249  20765392.547    20765391.9884   20765399.7374
        -0.000          -0.000
  -5489213.901 9  -4023664.40446  23959365.213    23959364.4274   23959377.0024
        -0.000          -0.000
 -16086639.627 9 -11462450.00147  22412728.309    22412728.1014   22412737.6804
        -0.000          -0.000
 -24027546.998 9 -16966429.68649  20706323.086    20706322.6914   20706330.1194
        -0.000          -0.000
  -2170902.784 7  -1677616.22845  24840717.983    24840718.0784   24840732.1954
        -0.000          -0.000
 99  4 10  2 20 30.0000000  0  8  6  3 26 17 22 21 23 29             0.000000014
  -8614761.907 9  -6700863.73047  22148939.936    22148939.9084   22148948.9174
        -0.000          -0.000
  -9809538.813 9  -7060431.03246  23523843.606    23523843.5834   23523854.4784
        -0.000          -0.000
  -4249318.468 9  -2877126.72946  22417139.608    22417139.7074   22417147.7864
        -0.000          -0.000
 -26033086.495 9 -19247095.50549  20765588.023    20765587.5534   20765595.2964
        -0.000          -0.000
  -5438763.383 9  -3984352.39946  23968965.560    23968964.9204   23968976.9964
        -0.000          -0.000
 -16143266.705 9 -11506574.90247  22401952.469    22401952.2524   22401961.7954
        -0.000          -0.000
 -24022574.312 9 -16962554.83949  20707269.278    20707268.8964   20707276.3304
        -0.000          -0.000
  -2279348.096 7  -1762118.69545  24820081.449    24820081.0184   24820095.4564
        -0.000          -0.000
 99  4 10  2 21  0.0000000  0  8  6  3 26 17 22 21 23 29             0.000000018
  -8521919.998 9  -6628519.41747  22166607.113    22166607.1274   22166616.1204
        -0.000          -0.000
  -9903414.151 9  -7133580.50346  23505979.147    23505979.3604   23505990.3634
        -0.000          -0.000
  -4187001.243 9  -2828567.82046  22428998.212    22428998.3584   22429006.2624
        -0.000          -0.000
 -26031843.674 9 -19246127.05449  20765824.541    20765824.0494   20765831.8074
        -0.000          -0.000
  -5388017.036 9  -3944809.85746  23978622.248    23978621.7754   23978633.3624
        -0.000          -0.000
 -16199631.462 9 -11550495.38347  22391226.449    22391226.3474   22391235.7514
        -0.000          -0.000
 -24017304.903 9 -16958448.78649  20708271.923    20708271.5324   20708279.0224
        -0.000          -0.000
  -2387840.993 7  -1846658.23245  24799435.601    24799434.9284   24799450.0784
        -0.000          -0.000
 99  4 10  2 21 30.0000000  0  8  6  3 26 17 22 21 23 29             0.000000021
  -8428750.963 9  -6555920.20247  22184336.581    22184336.5244   22184345.5854
        -0.000          -0.000
  -9997067.618 9  -7206557.06046  23488157.099    23488157.3484   23488168.5714
        -0.000          -0.000
  -4124198.592 9  -2779630.67146  22440949.267    22440949.4144   22440957.1704
        -0.000          -0.000
 -26030400.612 9 -19245002.56149  20766099.068    20766098.6294   20766106.4234
        -0.000          -0.000
  -5337000.423 9  -3905056.74946  23988330.366    23988329.9254   23988341.8044
        -0.000          -0.000
 -16255734.778 9 -11594212.13447  22380550.454    22380550.2084   22380559.4954
        -0.000          -0.000
 -24011740.215 9 -16954112.64649  20709330.849    20709330.4694   20709337.9614
        -0.000          -0.000
  -2496395.521 8  -1931245.86045  24778778.099    24778777.4504   24778792.7664
        -0.000          -0.000
 99  4 10  2 22  0.0000000  0  8  6  3 26 17 22 21 23 29             0.000000018
  -8335273.717 9  -6483080.83247  22202124.442    22202124.4804   22202133.7414
        -0.000          -0.000
 -10090487.845 9  -7279351.89446  23470379.945    23470380.1544   23470391.1064
        -0.000          -0.000
  -4060909.181 9  -2730314.23246  22452992.762    22452992.8874   22453000.9034
        -0.000          -0.000
 -26028771.311 9 -19243732.93349  20766409.150    20766408.6744   20766416.4314
        -0.000          -0.000
  -5285745.564 9  -3865117.92246  23998083.943    23998083.5434   23998095.4944
        -0.000          -0.000
 -16311590.839 9 -11637736.22747  22369921.273    22369921.0364   22369930.3624
        -0.000          -0.000
 -24005885.966 9 -16949550.86549  20710444.895    20710444.4984   20710451.9054
        -0.000          -0.000
  -2605035.086 7  -2015899.76345  24758103.859    24758103.5734   24758118.7874
        -0.000          -0.000
 99  4 10  2 22 30.0000000  0  8  6  3 26 17 22 21 23 29             0.000000011
  -8241485.158 9  -6409998.86747  22219971.810    22219971.9234   22219981.1624
        -0.000          -0.000
 -10183663.084 9  -7351955.85046  23452649.342    23452649.5484   23452660.1524
        -0.000          -0.000
  -3997135.280 9  -2680620.27446  22465128.456    22465128.5554   22465136.6894
        -0.000          -0.000
 -26026962.286 9 -19242323.27549  20766753.381    20766752.9164   20766760.6024
        -0.000          -0.000
  -5234249.685 8  -3824991.35245  24007883.296    24007882.8094   24007894.7754
        -0.000          -0.000
 -16367205.751 9 -11681072.42547  22359337.995    22359337.7734   22359347.2544
        -0.000          -0.000
 -23999736.968 9 -16944759.40349  20711614.979    20711614.5784   20711621.9404
        -0.000          -0.000
  -2713747.150 7  -2100610.11744  24737416.250    24737416.0844   24737431.2244
        -0.000          -0.000
 99  4 10  2 23  0.0000000  0  8  6  3 26 17 22 21 23 29            -0.000000004
  -8147369.645 9  -6336662.14347  22237881.783    22237881.8344   22237890.8514
        -0.000          -0.000
 -10276589.943 9  -7424366.26546  23434966.288    23434966.3594   23434976.4994
        -0.000          -0.000
  -3932886.372 9  -2630556.19646  22477354.717    22477354.7414   22477362.6644
        -0.000          -0.000
 -26024951.880 9 -19240756.69649  20767136.013    20767135.5414   20767143.1964
        -0.000          -0.000
  -5182509.753 8  -3784674.58645  24017729.418    24017728.6324   24017740.5854
        -0.000          -0.000
 -16422570.729 9 -11724213.86747  22348802.426    22348802.2464   22348811.7104
        -0.000          -0.000
 -23993276.191 9 -16939725.00849  20712844.376    20712843.9674   20712851.4464
        -0.000          -0.000
  -2822512.960 8  -2185362.43044  24716719.423    24716718.5734   24716733.5114
        -0.000          -0.000
 99  4 10  2 23 30.0000000  0  8  6  3 26 17 22 21 23 29            -0.000000023
  -8052923.771 9  -6263068.00547  22255854.522    22255854.4724   22255863.2564
        -0.000          -0.000
 -10369241.449 9  -7496562.10246  23417335.809    23417335.4964   23417345.3274
        -0.000          -0.000
  -3868133.598 9  -2580099.49046  22489676.739    22489676.8104   22489684.5244
        -0.000          -0.000
 -26022709.188 9 -19239009.11849  20767562.761    20767562.2564   20767570.0164
        -0.000          -0.000
  -5130513.342 9  -3744157.92246  24027624.333    24027623.4914   24027635.3714
        -0.000          -0.000
 -16477683.422 9 -11767158.71247  22338315.001    22338314.7074   22338324.0384
        -0.000          -0.000
 -23986470.975 9 -16934422.22449  20714139.326    20714138.9304   20714146.5104
        -0.000          -0.000
  -2931295.254 8  -2270127.49644  24696018.938    24696018.1024   24696032.7164
        -0.000          -0.000
 99  4 10  2 24  0.0000000  0  8  6  3 26 17 22 21 23 29            -0.000000044
  -7958142.073 9  -6189212.17347  22273890.845    22273890.7674   22273899.6944
        -0.000          -0.000
 -10461619.683 9  -7568545.02046  23399756.950    23399756.5854   23399766.1374
        -0.000          -0.000
  -3802877.717 9  -2529250.76346  22502094.603    22502094.7734   22502102.2664
        -0.000          -0.000
 -26020216.707 9 -19237066.88949  20768036.937    20768036.4384   20768044.2864
        -0.000          -0.000
  -5078234.241 9  -3703421.01046  24037573.182    24037572.1554   24037583.9154
        -0.000          -0.000
 -16532542.182 9 -11809905.68347  22327875.554    22327875.3044   22327884.6494
        -0.000          -0.000
 -23979307.148 9 -16928839.99449  20715502.572    20715502.1564   20715509.6964
        -0.000          -0.000
  -3040073.137 8  -2354889.20045  24675319.017    24675318.1934   24675332.9194
        -0.000          -0.000
 99  4 10  2 24 30.0000000  0  8  6  3 26 17 22 21 23 29            -0.000000062
  -7863022.510 9  -6115093.06147  22291991.462    22291991.3864   22292000.3114
        -0.000          -0.000
 -10553731.563 9  -7640320.40646  23382228.506    23382228.3104   23382237.6224
        -0.000          -0.000
  -3737124.595 9  -2478014.55746  22514607.010    22514607.1934   22514614.7104
        -0.000          -0.000
 -26017473.772 9 -19234929.51949  20768558.859    20768558.3664   20768566.2014
        -0.000          -0.000
  -5025646.939 9  -3662443.98746  24047580.004    24047579.0874   24047591.3524
        -0.000          -0.000
 -16587145.688 9 -11852453.76247  22317484.717    22317484.4474   22317493.7074
        -0.000          -0.000
 -23971785.400 9 -16922978.85949  20716933.943    20716933.5054   20716940.9314
        -0.000          -0.000
  -3148830.178 8  -2439634.68645  24654623.036    24654622.2604   24654637.1264
        -0.000          -0.000
 99  4 10  2 25  0.0000000  0  8  6  3 26 17 22 21 23 29            -0.000000062
  -7767564.067 9  -6040709.89447  22310156.806    22310156.6994   22310165.4684
        -0.000          -0.000
 -10645553.958 9  -7711870.21846  23364755.233    23364755.1264   23364764.2694
        -0.000          -0.000
  -3670837.805 9  -2426362.51946  22527220.661    22527220.9294   22527228.8484
        -0.000          -0.000
 -26014456.826 9 -19232578.62049  20769133.052    20769132.5294   20769140.2614
        -0.000          -0.000
  -4972743.070 9  -3621220.24646  24057647.274    24057646.3584   24057658.9634
        -0.000          -0.000
 -16641472.502 9 -11894786.23247  22307146.581    22307146.2444   22307155.4344
        -0.000          -0.000
 -23963890.298 9 -16916826.80649  20718436.327    20718435.8764   20718443.3044
        -0.000          -0.000
  -3257542.911 8  -2524345.62645  24633935.415    24633934.6934   24633949.9584
        -0.000          -0.000
 99  4 10  2 25 30.0000000  0  8  6  3 26 17 22 21 23 29            -0.000000059
  -7671823.470 9  -5966106.87047  22328375.933    22328375.7374   22328384.2394
        -0.000          -0.000
 -10737126.101 9  -7783225.05946  23347329.676    23347329.6194   23347338.4854
        -0.000          -0.000
  -3604058.785 9  -2374326.92846  22539928.468    22539928.7214   22539936.5134
        -0.000          -0.000
 -26011237.372 9 -19230069.92949  20769745.677    20769745.1654   20769752.8544
        -0.000          -0.000
  -4919572.677 9  -3579788.85046  24067765.328    24067764.4434   24067777.0064
        -0.000          -0.000
 -16695574.082 9 -11936943.21547  22296851.074    22296850.8424   22296860.1124
        -0.000          -0.000
 -23955683.729 9 -16910432.05849  20719997.857    20719997.4554   20720005.0514
        -0.000          -0.000
  -3366266.838 8  -2609065.27645  24613245.397    24613244.9054   24613260.4954
        -0.000          -0.000
 99  4 10  2 26  0.0000000  0  8  6  3 26 17 22 21 23 29            -0.000000046
  -7575780.115 9  -5891267.92747  22346652.402    22346652.1954   22346660.5874
        -0.000          -0.000
 -10828436.819 9  -7854376.18146  23329953.744    23329953.8084   23329962.3994
        -0.000          -0.000
  -3536784.950 9  -2321905.76946  22552730.339    22552730.5104   22552738.3204
        -0.000          -0.000
 -26007808.189 9 -19227397.82149  20770398.297    20770397.7634   20770405.4074
        -0.000          -0.000
  -4866118.937 9  -3538136.64746  24077937.445    24077936.3724   24077948.8734
        -0.000          -0.000
 -16749419.930 9 -11978900.92048  22286604.504    22286604.3654   22286613.6144
        -0.000          -0.000
 -23947159.955 9 -16903790.13349  20721619.729    20721619.4114   20721627.0304
        -0.000          -0.000
  -3474997.969 8  -2693790.57845  24592554.463    24592553.8704   24592569.4014
        -0.000          -0.000
 99  4 10  2 26 30.0000000  0  8  6  3 26 17 22 21 23 29            -0.000000025
  -7479444.625 9  -5816201.35047  22364984.226    22364984.0644   22364992.5574
        -0.000          -0.000
 -10919487.723 9  -7925324.84046  23312627.354    23312627.3344   23312635.7774
        -0.000          -0.000
  -3469026.346 9  -2269106.83546  22565624.066    22565624.3734   22565632.1944
        -0.000          -0.000
 -26004177.745 9 -19224568.87549  20771089.242    20771088.6654   20771096.2184
        -0.000          -0.000
  -4812414.965 9  -3496289.46246  24088156.899    24088155.9074   24088168.5464
        -0.000          -0.000
 -16803013.118 9 -12020661.73648  22276406.206    22276405.8664   22276415.1584
        -0.000          -0.000
 -23938355.416 9 -16896929.42649  20723295.242    20723294.8814   20723302.3954
        -0.000          -0.000
  -3583751.232 8  -2778533.14145  24571859.461    24571859.0644   24571874.1824
        -0.000          -0.000
 99  4 10  2 27  0.0000000  0  8  6  3 26 17 22 21 23 29            -0.000000006
  -7382815.624 9  -5740906.06647  22383372.043    22383371.9144   22383380.3754
        -0.000          -0.000
 -11010282.483 9  -7996073.90846  23295349.559    23295349.4654   23295357.9424
        -0.000          -0.000
  -3400794.204 9  -2215938.92245  22578608.068    22578608.4744   22578616.5884
        -0.000          -0.000
 -26000333.613 9 -19221573.41949  20771820.766    20771820.1484   20771827.6264
        -0.000          -0.000
  -4758490.714 9  -3454270.68046  24098418.466    24098417.4334   24098430.1554
        -0.000          -0.000
 -16856356.782 9 -12062228.13547  22266254.920    22266254.6434   22266264.0354
        -0.000          -0.000
 -23929278.793 9 -16889856.69849  20725022.571    20725022.1764   20725029.5444
        -0.000          -0.000
  -3692530.170 8  -2863295.70045  24551159.728    24551159.5064   24551173.7424
        -0.000          -0.000
 99  4 10  2 27 30.0000000  0  8  6  3 26 17 22 21 23 29             0.000000006
  -7285882.367 9  -5665373.70447  22401817.806    22401817.7444   22401826.2374
        -0.000          -0.000
 -11100833.020 9  -8066632.66946  23278117.945    23278117.9954   23278126.6134
        -0.000          -0.000
  -3332115.427 9  -2162422.97945  22591677.352    22591677.7264   22591685.7594
        -0.000          -0.000
 -25996276.981 9 -19218412.38749  20772592.561    20772591.9644   20772599.5704
        -0.000          -0.000
  -4704340.702 9  -3412075.92946  24108723.172    24108722.0494   24108734.5384
        -0.000          -0.000
 -16909449.626 9 -12103599.09847  22256151.642    22256151.3374   22256160.5794
        -0.000          -0.000
 -23919937.302 9 -16882577.58749  20726800.183    20726799.8254   20726807.1714
        -0.000          -0.000
  -3801334.895 8  -2948078.34745  24530454.729    24530454.6794   24530468.7204
        -0.000          -0.000
 99  4 10  2 28  0.0000000  0  8  6  3 26 17 22 21 23 29            -0.000000027
  -7188622.737 9  -5589587.01147  22420325.665    22420325.6524   22420334.3964
        -0.000          -0.000
 -11191113.342 9  -8136980.86546  23260937.785    23260937.8694   23260946.6824
        -0.000          -0.000
  -3262968.240 9  -2108541.99345  22604835.716    22604836.0284   22604843.9874
        -0.000          -0.000
 -25991963.853 9 -19215051.49949  20773413.219    20773412.6964   20773420.3964
        -0.000          -0.000
  -4649927.351 9  -3369676.04846  24119078.093    24119076.7714   24119089.0004
        -0.000          -0.000
 -16962248.071 9 -12144740.66748  22246104.394    22246104.1134   22246113.2094
        -0.000          -0.000
 -23910298.523 9 -16875066.81949  20728634.461    20728634.0754   20728641.3854
        -0.000          -0.000
  -3910127.098 8  -3032851.20945  24509752.310    24509752.3114   24509766.2664
        -0.000          -0.000
 99  4 10  2 28 30.0000000  0  8  6  3 26 17 22 21 23 29            -0.000000051
  -7091066.336 9  -5513569.05247  22438889.900    22438889.8904   22438899.0424
        -0.000          -0.000
 -11281133.207 9  -8207126.12446  23243807.337    23243807.4074   23243816.3324
        -0.000          -0.000
  -3193376.349 8  -2054314.56745  22618078.489    22618078.6804   22618086.7284
        -0.000          -0.000
 -25987408.665 9 -19211501.97349  20774280.104    20774279.5754   20774287.1584
        -0.000          -0.000
  -4595271.686 9  -3327087.29946  24129479.000    24129477.6504   24129489.5024
        -0.000          -0.000
 -17014795.544 9 -12185686.65948  22236105.040    22236104.7354   22236113.7454
        -0.000          -0.000
 -23900379.391 9 -16867337.59549  20730522.096    20730521.6784   20730528.9464
        -0.000          -0.000
  -4018917.544 8  -3117622.71545  24489050.308    24489049.9844   24489064.0514
        -0.000          -0.000
 99  4 10  2 29  0.0000000  0  8  6  3 26 17 22 21 23 29            -0.000000081
  -6993219.967 9  -5437325.17547  22457509.384    22457509.3004   22457518.7244
        -0.000          -0.000
 -11370890.772 9  -8277066.98946  23226727.003    23226727.0624   23226736.0324
        -0.000          -0.000
  -3123331.323 8  -1999733.98945  22631407.303    22631407.6344   22631415.9794
        -0.000          -0.000
 -25982621.696 9 -19207771.84149  20775191.061    20775190.4954   20775197.9474
        -0.000          -0.000
  -4540360.048 9  -3284299.05946  24139928.596    24139927.2464   24139938.7644
        -0.000          -0.000
 -17067099.135 9 -12226442.62248  22226151.974    22226151.6264   22226160.6384
        -0.000          -0.000
 -23890153.157 9 -16859369.07249  20732468.131    20732467.6714   20732474.8754
        -0.000          -0.000
  -4127694.433 8  -3202383.63245  24468350.874    24468350.3944   24468364.2694
        -0.000          -0.000
 99  4 10  2 29 30.0000000  0  8  6  3 26 17 22 21 23 29            -0.000000100
  -6895081.895 9  -5360853.97547  22476184.220    22476184.2214   22476193.8284
        -0.000          -0.000
 -11460349.561 9  -8346775.04446  23209703.777    23209703.7364   23209712.7214
        -0.000          -0.000
  -3052815.782 8  -1944786.81045  22644825.848    22644826.3034   22644835.0194
        -0.000          -0.000
 -25977604.769 9 -19203862.52349  20776145.719    20776145.1944   20776152.5024
        -0.000          -0.000
  -4485162.747 9  -3241288.24046  24150432.639    24150431.0954   24150442.6054
        -0.000          -0.000
 -17119141.811 9 -12266995.28248  22216248.525    22216248.2314   22216257.0784
        -0.000          -0.000
 -23879603.351 9 -16851148.40949  20734475.638    20734475.1524   20734482.4144
        -0.000          -0.000
  -4236446.350 8  -3287125.10145  24447655.532    24447655.0324   24447669.1254
        -0.000          -0.000
 99  4 10  2 30  0.0000000  0  8  6  3 26 17 22 21 23 29            -0.000000110
  -6796680.999 9  -5284178.00347  22494909.387    22494909.3584   22494918.9534
        -0.000          -0.000
 -11549509.877 9  -8416250.52246  23192737.334    23192737.3224   23192746.1634
        -0.000          -0.000
  -2981824.083 8  -1889468.56245  22658335.115    22658335.4704   22658344.5184
        -0.000          -0.000
 -25972363.984 9 -19199778.76049  20777142.985    20777142.4444   20777149.7784
        -0.000          -0.000
  -4429706.895 9  -3198075.99546  24160985.206    24160983.7704   24160995.6674
        -0.000          -0.000
 -17170950.771 9 -12307365.82748  22206389.601    22206389.2374   22206397.9154
        -0.000          -0.000
 -23868739.272 9 -16842682.86149  20736542.789    20736542.3314   20736549.6794
        -0.000          -0.000
  -4345184.144 8  -3371855.55545  24426962.562    24426962.5074   24426977.0494
        -0.000          -0.000
 99  4 10  2 30 30.0000000  0  8  6  3 26 17 22 21 23 29            -0.000000110
  -6698029.840 9  -5207307.01247  22513682.460    22513682.3124   22513691.6724
        -0.000          -0.000
 -11638380.678 9  -8485500.40746  23175825.717    23175825.7704   23175834.7954
        -0.000          -0.000
  -2910357.050 8  -1833779.92545  22671934.564    22671934.9654   22671944.6644
        -0.000          -0.000
 -25966907.181 9 -19195526.68249  20778181.276    20778180.7254   20778188.1774
        -0.000          -0.000
  -4374015.452 9  -3154680.10646  24171582.503    24171581.2634   24171593.5914
        -0.000          -0.000
 -17222549.650 9 -12347572.64848  22196570.583    22196570.1554   22196578.7754
        -0.000          -0.000
 -23857566.146 9 -16833976.49549  20738668.795    20738668.3694   20738675.7614
        -0.000          -0.000
  -4453904.848 8  -3456572.69845  24406273.657    24406273.6784   24406287.9454
        -0.000          -0.000
 99  4 10  2 31  0.0000000  0  8  6  3 26 17 22 21 23 29            -0.000000097
  -6599119.183 9  -5130233.79347  22532504.516    22532504.4524   22532513.7184
        -0.000          -0.000
 -11726946.446 9  -8554512.61146  23158972.171    23158972.2074   23158981.5064
        -0.000          -0.000
  -2838403.795 9  -1777712.46745  22685627.152    22685627.3264   22685636.6744
        -0.000          -0.000
 -25961217.803 9 -19191093.38949  20779263.907    20779263.3454   20779270.8444
        -0.000          -0.000
  -4318079.332 9  -3111093.60846  24182226.011    24182225.2144   24182237.8814
        -0.000          -0.000
 -17273896.612 9 -12387583.18848  22186799.215    22186798.9194   22186807.6154
        -0.000          -0.000
 -23846063.523 9 -16825013.37649  20740857.531    20740857.1634   20740864.5524
        -0.000          -0.000
  -4562590.454 8  -3541262.43045  24385591.778    24385591.3274   24385605.3264
        -0.000          -0.000
 99  4 10  2 31 30.0000000  0  8  6  3 26 17 22 21 23 29            -0.000000080
  -6499954.737 9  -5052962.83447  22551374.793    22551374.7884   22551383.9784
        -0.000          -0.000
 -11815195.667 9  -8623278.15346  23142178.892    23142178.9234   23142188.2574
        -0.000          -0.000
  -2765975.936 8  -1721275.19845  22699409.800    22699410.1254   22699418.9014
        -0.000          -0.000
 -25955282.380 9 -19186468.35449  20780393.188    20780392.6944   20780400.3234
        -0.000          -0.000
  -4261912.502 9  -3067327.34046  24192913.938    24192913.3544   24192925.9964
        -0.000          -0.000
 -17324979.873 9 -12427388.24248  22177078.186    22177077.9584   22177086.6724
        -0.000          -0.000
 -23834239.159 9 -16815799.55849  20743107.525    20743107.2264   20743114.6674
        -0.000          -0.000
  -4671240.702 8  -3625924.61045  24364915.305    24364915.0824   24364929.3314
        -0.000          -0.000
 99  4 10  2 32  0.0000000  0  8  6  3 26 17 22 21 23 29            -0.000000066
  -6400540.562 9  -4975497.27647  22570292.689    22570292.7014   22570301.6184
        -0.000          -0.000
 -11903146.779 9  -8691811.39446  23125442.145    23125442.2104   23125451.8354
        -0.000          -0.000
  -2693082.090 8  -1664474.85745  22713281.197    22713281.3734   22713289.9474
        -0.000          -0.000
 -25949087.646 9 -19181641.24749  20781571.937    20781571.4384   20781579.0864
        -0.000          -0.000
  -4205533.672 9  -3023395.87646  24203642.720    24203642.1564   24203654.3254
        -0.000          -0.000
 -17375806.708 9 -12466993.49748  22167406.148    22167405.9244   22167414.6134
        -0.000          -0.000
 -23822098.596 9 -16806339.35249  20745417.745    20745417.4764   20745424.9024
        -0.000          -0.000
  -4779849.092 8  -3710554.19545  24344246.780    24344246.9294   24344260.9014
        -0.000          -0.000
 99  4 10  2 32 30.0000000  0  8  6  3 26 17 22 21 23 29            -0.000000049
  -6300858.100 9  -4897822.65147  22589261.730    22589261.6604   22589270.3484
        -0.000          -0.000
 -11990773.097 9  -8760091.55546  23108767.130    23108767.2944   23108777.1644
        -0.000          -0.000
  -2619725.359 8  -1607313.81645  22727240.784    22727240.9484   22727249.2554
        -0.000          -0.000
 -25942624.642 9 -19176605.11349  20782801.679    20782801.2364   20782808.9564
        -0.000          -0.000
  -4148931.224 9  -2979290.14746  24214414.177    24214413.6594   24214425.3574
        -0.000          -0.000
 -17426339.792 9 -12506369.86848  22157789.732    22157789.6324   22157798.4274
        -0.000          -0.000
 -23809633.130 9 -16796625.97349  20747789.879    20747789.5844   20747796.9064
        -0.000          -0.000
  -4888399.442 8  -3795138.53045  24323590.330    24323590.4994   24323603.7604
        -0.000          -0.000
 99  4 10  2 33  0.0000000  0  8  6  3 26 17 22 21 23 29            -0.000000035
  -6200897.587 9  -4819931.38947  22608283.758    22608283.7204   22608292.1364
        -0.000          -0.000
 -12078062.068 9  -8828108.82746  23092156.375    23092156.4534   23092166.6584
        -0.000          -0.000
  -2545915.092 8  -1549799.35945  22741286.499    22741286.8944   22741294.3964
        -0.000          -0.000
 -25935887.865 9 -19171355.65549  20784083.669    20784083.2394   20784090.9924
        -0.000          -0.000
  -4092106.607 9  -2935011.33146  24225227.672    24225226.9654   24225238.8764
        -0.000          -0.000
 -17476566.166 9 -12545507.23748  22148231.924    22148231.7784   22148240.5714
        -0.000          -0.000
 -23796854.661 9 -16786668.69949  20750221.608    20750221.2914   20750228.4654
        -0.000          -0.000
  -4996903.280 8  -3879686.60945  24302943.108    24302942.8824   24302955.8154
        -0.000          -0.000
 99  4 10  2 33 30.0000000  0  8  6  3 26 17 22 21 23 29            -0.000000024
  -6100670.077 9  -4741832.05247  22627356.544    22627356.5174   22627364.9254
        -0.000          -0.000
 -12165035.785 9  -8895880.46046  23075605.371    23075605.7014   23075616.1104
        -0.000          -0.000
  -2471659.492 8  -1491937.85045  22755416.717    22755416.9134   22755424.4264
        -0.000          -0.000
 -25928893.525 9 -19165905.48649  20785414.658    20785414.2174   20785421.9694
        -0.000          -0.000
  -4035076.368 9  -2890572.26346  24236080.130    24236079.2924   24236091.6734
        -0.000          -0.000
 -17526522.236 9 -12584433.97548  22138725.545    22138725.3704   22138734.0334
        -0.000          -0.000
 -23783805.777 9 -16776500.70949  20752704.743    20752704.3924   20752711.4914
        -0.000          -0.000
  -5105381.374 8  -3964214.61345  24282300.307    24282300.1544   24282312.7904
        -0.000          -0.000
 99  4 10  2 34  0.0000000  0  8  6  3 26 17 22 21 23 29            -0.000000014
  -6000169.812 9  -4663520.17947  22646481.083    22646481.1774   22646489.8124
        -0.000          -0.000
 -12251699.464 9  -8963410.49746  23059113.720    23059113.9484   23059124.4534
        -0.000          -0.000
  -2396964.640 8  -1433734.09345  22769631.284    22769631.4914   22769638.4704
        -0.000          -0.000
 -25921648.147 9 -19160259.69249  20786793.524    20786793.0534   20786800.7524
        -0.000          -0.000
  -3977841.300 9  -2845973.59846  24246971.681    24246970.7524   24246983.1884
        -0.000          -0.000
 -17576220.815 9 -12623160.08248  22129268.104    22129267.9564   22129276.5414
        -0.000          -0.000
 -23770491.521 9 -16766125.93349  20755238.367    20755238.0084   20755245.0724
        -0.000          -0.000
  -5213836.732 8  -4048724.93145  24261661.655    24261661.6214   24261673.9324
        -0.000          -0.000
 99  4 10  2 34 30.0000000  0  8  6  3 26 17 22 21 23 29            -0.000000009
  -5899392.126 9  -4584992.14647  22665658.658    22665658.6714   22665667.3504
        -0.000          -0.000
 -12338056.125 9  -9030701.30946  23042680.296    23042680.6644   23042691.2194
        -0.000          -0.000
  -2321843.07217  -1375197.81444  22783926.105    22783926.7075   22783933.3614
        -0.000          -0.000
 -25914178.659 9 -19154439.28149  20788214.992    20788214.4794   20788222.1184
        -0.000          -0.000
  -3920399.141 9  -2801213.56446  24257902.287    24257901.6044   24257913.9934
        -0.000          -0.000
 -17625668.611 9 -12661690.76748  22119858.527    22119858.3614   22119866.8764
        -0.000          -0.000
 -23756917.569 9 -16755548.80349  20757821.386    20757821.0204   20757828.1994
        -0.000          -0.000
  -5322275.264 8  -4133222.12845  24241026.241    24241026.2884   24241038.2114
        -0.000          -0.000
 99  4 10  2 35  0.0000000  0  7  6  3 17 22 21 23 29               -0.000000100
  -5798286.133 9  -4506208.27647  22684898.502    22684898.5114   22684907.1734
        -0.000          -0.000
 -12424078.492 9  -9097731.64046  23026310.601    23026310.9974   23026321.5854
        -0.000          -0.000
 -25906441.423 9 -19148410.23249  20789687.290    20789686.7894   20789694.3224
        -0.000          -0.000
  -3862694.998 9  -2756249.34646  24268883.109    24268882.3724   24268894.9044
        -0.000          -0.000
 -17674840.624 9 -12700006.55948  22110501.623    22110501.2784   22110509.7514
        -0.000          -0.000
 -23743036.710 9 -16744732.52149  20760462.818    20760462.4414   20760469.7174
        -0.000          -0.000
  -5430654.418 9  -4217673.10645  24220402.190    24220402.3244   24220413.6894
        -0.000          -0.000
 99  4 10  2 35 30.0000000  0  7  6  3 17 22 21 23 29               -0.000000072
  -5696922.844 9  -4427223.92247  22704187.121    22704187.2584   22704195.9624
        -0.000          -0.000
 -12509839.787 9  -9164558.52247  23009990.505    23009991.0754   23010001.6404
        -0.000          -0.000
 -25898513.094 9 -19142232.28449  20791196.061    20791195.5354   20791202.9784
        -0.000          -0.000
  -3804797.476 9  -2711134.47046  24279900.607    24279899.9554   24279912.5014
        -0.000          -0.000
 -17723826.136 9 -12738177.03548  22101180.049    22101179.6324   22101188.1654
        -0.000          -0.000
 -23728900.090 9 -16733716.93849  20763152.939    20763152.5394   20763159.8384
        -0.000          -0.000
  -5539028.400 9  -4302120.03645  24199779.230    24199779.3834   24199790.1104
        -0.000          -0.000
 99  4 10  2 36  0.0000000  0  7  6  3 17 22 21 23 29               -0.000000056
  -5595294.425 9  -4348032.96147  22723526.515    22723526.5504   22723535.3254
        -0.000          -0.000
 -12595325.158 9  -9231170.39947  22993723.397    22993723.7864   22993734.2094
        -0.000          -0.000
 -25890385.280 9 -19135898.90049  20792742.664    20792742.1154   20792749.5864
        -0.000          -0.000
  -3746695.509 9  -2665860.27545  24290956.952    24290956.3914   24290968.8654
        -0.000          -0.000
 -17772608.659 9 -12776189.33848  22091896.801    22091896.4594   22091905.1714
        -0.000          -0.000
 -23714482.233 9 -16722482.21549  20765896.559    20765896.1394   20765903.4604
        -0.000          -0.000
  -5647377.630 9  -4386547.68145  24179160.926    24179160.8664   24179171.4934
        -0.000          -0.000
 99  4 10  2 36 30.0000000  0  8  6  3 26 17 22 21 23 29             0.000000034
  -5493395.520 9  -4268631.24547  22742917.412    22742917.3154   22742926.3144
        -0.000          -0.000
 -12680522.879 9  -9297558.12647  22977511.003    22977511.2504   22977521.4784
        -0.000          -0.000
   -296318.638 8   -252289.56242         0.000           0.0004          0.0004
        -0.000          -0.000
 -25882038.716 9 -19129395.05849  20794330.688    20794330.2554   20794337.8274
        -0.000          -0.000
  -3688380.385 9  -2620420.01645  24302053.875    24302053.4184   24302065.7254
        -0.000          -0.000
 -17821167.854 9 -12814027.60948  22082656.071    22082655.8464   22082664.6844
        -0.000          -0.000
 -23699779.413 9 -16711025.44649  20768694.336    20768693.9234   20768701.2374
        -0.000          -0.000
  -5755679.325 9  -4470938.30745  24158551.838    24158551.7534   24158562.3174
        -0.000          -0.000
 99  4 10  2 37  0.0000000  0  8  6  3 26 17 22 21 23 29             0.000000050
  -5391226.174 9  -4189018.77947  22762359.649    22762359.5564   22762368.6294
        -0.000          -0.000
 -12765401.823 9  -9363697.45047  22961359.089    22961359.3324   22961369.4774
        -0.000          -0.000
   -219036.122 8   -192069.52442         0.000           0.0004          0.0004
        -0.000          -0.000
 -25873431.530 9 -19122688.13149  20795968.590    20795968.1414   20795975.6124
        -0.000          -0.000
  -3629852.635 9  -2574814.06645  24313191.061    24313190.8984   24313203.2294
        -0.000          -0.000
 -17869480.265 9 -12851673.57948  22073462.474    22073462.3104   22073471.1114
        -0.000          -0.000
 -23684783.765 9 -16699340.50849  20771547.897    20771547.4774   20771554.7044
        -0.000          -0.000
  -5863912.265 9  -4555275.37745  24137955.579    24137955.4824   24137966.4314
        -0.000          -0.000
 99  4 10  2 37 30.0000000  0  8  6  3 26 17 22 21 23 29             0.000000068
  -5288822.815 9  -4109223.99047  22781846.267    22781846.2064   22781855.3564
        -0.000          -0.000
 -12849971.783 9  -9429595.99547  22945266.098    22945266.2434   22945276.2014
        -0.000          -0.000
   -141315.61118   -131508.16345         0.000           0.0005   22871435.6584
        -0.000          -0.000
 -25864585.968 9 -19115795.45349  20797651.875    20797651.3764   20797658.8124
        -0.000          -0.000
  -3571155.414 8  -2529076.04745  24324360.708    24324360.5064   24324373.2024
        -0.000          -0.000
 -17917565.750 9 -12889142.72348  22064312.281    22064312.0344   22064320.6674
        -0.000          -0.000
 -23669539.988 9 -16687462.20749  20774448.604    20774448.1994   20774455.3054
        -0.000          -0.000
  -5972095.216 9  -4639573.51245  24117368.095    24117368.1454   24117380.1784
        -0.000          -0.000
 99  4 10  2 38  0.0000000  0  8  6  3 26 17 22 21 23 29             0.000000078
  -5186199.557 9  -4029257.82647  22801374.739    22801374.7474   22801383.8154
        -0.000          -0.000
 -12934228.299 9  -9495250.30647  22929232.709    22929232.7734   22929242.4524
        -0.000          -0.000
    -63183.146 8    -70625.68745  22886289.710    22886293.0394   22886302.4384
        -0.000          -0.000
 -25855497.571 9 -19108713.55849  20799381.389    20799380.8784   20799388.2894
        -0.000          -0.000
  -3512304.079 9  -2483217.95445  24335559.738    24335559.3724   24335572.5554
        -0.000          -0.000
 -17965411.118 9 -12926424.77848  22055207.735    22055207.4474   22055215.8094
        -0.000          -0.000
 -23654083.190 9 -16675417.92349  20777389.878    20777389.4834   20777396.5684
        -0.000          -0.000
  -6080240.342 8  -4723842.19045  24096787.560    24096787.9724   24096800.9624
        -0.000          -0.000
 99  4 10  2 38 30.0000000  0  8  6  3 26 17 22 21 23 29             0.000000076
  -5083381.387 9  -3949139.79447  22820940.264    22820940.3424   22820949.4394
        -0.000          -0.000
 -13018188.182 9  -9560673.48247  22913255.734    22913255.7234   22913265.2894
        -0.000          -0.000
     15338.772 8     -9439.72145  22901231.877    22901233.0864   22901244.0474
        -0.000          -0.000
 -25846188.538 9 -19101459.73049  20801152.731    20801152.2224   20801159.6874
        -0.000          -0.000
  -3453335.316 9  -2437268.31746  24346781.539    24346781.1044   24346794.0604
        -0.000          -0.000
 -18013045.642 9 -12963542.54148  22046143.281    22046143.0234   22046151.0864
        -0.000          -0.000
 -23638449.239 9 -16663235.60049  20780364.912    20780364.5534   20780371.6754
        -0.000          -0.000
  -6188380.805 8  -4808107.23045  24076208.075    24076208.6794   24076222.4084
        -0.000          -0.000
 99  4 10  2 39  0.0000000  0  8  6  3 26 17 22 21 23 29             0.000000064
  -4980342.228 9  -3868849.56046  22840547.796    22840547.8684   22840556.9944
        -0.000          -0.000
 -13101827.565 9  -9625846.90047  22897339.441    22897339.5024   22897349.0114
        -0.000          -0.000
     94258.665 8     52056.28145  22916250.275    22916251.8984   22916262.1004
        -0.000          -0.000
 -25836640.521 9 -19094019.69649  20802969.451    20802969.0244   20802976.6514
        -0.000          -0.000
  -3394228.990 9  -2391211.51246  24358029.541    24358029.0674   24358041.6184
        -0.000          -0.000
 -18060453.239 9 -13000483.45648  22037121.950    22037121.6084   22037129.5964
        -0.000          -0.000
 -23622604.978 9 -16650889.39449  20783380.043    20783379.6754   20783386.7974
        -0.000          -0.000
  -6296500.837 8  -4892356.33745  24055633.037    24055633.6524   24055647.3724
        -0.000          -0.000
 99  4 10  2 39 30.0000000  0  8  6  3 26 17 22 21 23 29             0.000000043
  -4877059.595 9  -3788369.61246  22860201.639    22860201.7224   22860210.9524
        -0.000          -0.000
 -13185130.243 9  -9690757.97347  22881487.267    22881487.4764   22881496.8734
        -0.000          -0.000
    173571.206 8    113858.23445  22931344.025    22931345.6584   22931354.4834
        -0.000          -0.000
 -25826843.367 9 -19086385.52549  20804833.822    20804833.3544   20804841.0464
        -0.000          -0.000
  -3334949.010 9  -2345019.38246  24369310.605    24369309.9184   24369322.3534
        -0.000          -0.000
 -18107608.841 9 -13037228.01748  22028148.357    22028148.0014   22028156.1194
        -0.000          -0.000
 -23606507.245 9 -16638345.68449  20786443.404    20786443.0154   20786450.1484
        -0.000          -0.000
  -6404576.282 8  -4976570.70045  24035067.111    24035067.5194   24035080.8504
        -0.000          -0.000
 99  4 10  2 40  0.0000000  0  8  6  3 26 17 22 21 23 29             0.000000016
  -4773514.026 9  -3707684.76046  22879905.819    22879905.8214   22879915.0524
        -0.000          -0.000
 -13268075.649 9  -9755390.65447  22865703.416    22865703.4934   22865712.8124
        -0.000          -0.000
    253297.000 8    175982.17145  22946516.364    22946516.9184   22946525.6194
        -0.000          -0.000
 -25816771.150 9 -19078537.02149  20806750.441    20806749.9574   20806757.7994
        -0.000          -0.000
  -3275457.250 9  -2298662.25146  24380631.720    24380630.9904   24380643.3824
        -0.000          -0.000
 -18154479.056 9 -13073750.19548  22019229.151    22019228.8254   22019237.0294
        -0.000          -0.000
 -23590093.816 9 -16625555.97849  20789566.800    20789566.4034   20789573.5004
        -0.000          -0.000
  -6512582.702 9  -5060731.24045  24014514.487    24014514.5884   24014527.6144
        -0.000          -0.000
 99  4 10  2 40 30.0000000  0  8  6  3 26 17 22 21 23 29            -0.000000021
  -4669719.637 9  -3626806.05346  22899657.168    22899657.2074   22899666.5664
        -0.000          -0.000
 -13350671.693 9  -9819751.09247  22849985.934    22849985.9244   22849995.2184
        -0.000          -0.000
    333440.800 8    238431.80145  22961767.182    22961767.6594   22961776.6874
        -0.000          -0.000
 -25806444.229 9 -19070490.04749  20808715.537    20808715.1064   20808722.8754
        -0.000          -0.000
  -3215754.155 9  -2252140.46746  24391992.741    24391992.2654   24392004.6154
        -0.000          -0.000
 -18201079.786 9 -13110062.38448  22010361.444    22010361.0744   22010369.3094
        -0.000          -0.000
 -23573350.135 9 -16612508.92849  20792753.015    20792752.5674   20792759.6624
        -0.000          -0.000
  -6620522.483 9  -5144839.85545  23993974.418    23993974.3874   23993987.2234
        -0.000          -0.000
 99  4 10  2 41  0.0000000  0  8  6  3 26 17 22 21 23 29            -0.000000045
  -4565666.815 9  -3545725.94746  22919457.621    22919457.7294   22919467.1374
        -0.000          -0.000
 -13432886.089 9  -9883814.15547  22834341.105    22834340.9754   22834350.3564
        -0.000          -0.000
    414026.695 8    301226.03745  22977102.171    22977102.6434   22977111.3714
        -0.000          -0.000
 -25795841.651 9 -19062228.26849  20810733.319    20810732.8094   20810740.4134
        -0.000          -0.000
  -3155805.882 9  -2205427.63846  24403400.672    24403400.1484   24403412.5274
        -0.000          -0.000
 -18247380.894 9 -13146141.12448  22001550.637    22001550.2344   22001558.6214
        -0.000          -0.000
 -23556235.584 9 -16599172.88249  20796009.656    20796009.2624   20796016.3834
        -0.000          -0.000
  -6728347.230 8  -5228858.84545  23973456.024    23973455.9024   23973468.5954
        -0.000          -0.000
 99  4 10  2 41 30.0000000  0  8  6  3 26 17 22 21 23 29            -0.000000064
  -4461395.386 9  -3464475.50546  22939300.002    22939300.0034   22939309.2134
        -0.000          -0.000
 -13514721.705 9  -9947582.06247  22818768.262    22818768.1254   22818777.5724
        -0.000          -0.000
    495036.738 7    364350.81145  22992517.889    22992518.2114   22992527.0554
        -0.000          -0.000
 -25784987.256 9 -19053770.27549  20812798.872    20812798.3404   20812805.9274
        -0.000          -0.000
  -3095631.681 9  -2158538.77846  24414851.634    24414851.1794   24414863.3754
        -0.000          -0.000
 -18293405.993 9 -13182004.78448  21992792.244    21992791.8674   21992800.3394
        -0.000          -0.000
 -23538772.065 9 -16585564.92249  20799332.750    20799332.3724   20799339.5744
        -0.000          -0.000
  -6836068.770 8  -5312797.41746  23952956.978    23952957.0044   23952969.5494
        -0.000          -0.000
 99  4 10  2 42  0.0000000  0  8  6  3 26 17 22 21 23 29            -0.000000059
  -4356898.157 9  -3383049.11846  22959185.306    22959185.1774   22959194.2294
        -0.000          -0.000
 -13596169.302 9 -10011047.62147  22803269.398    22803269.1854   22803278.5824
        -0.000          -0.000
    576491.095 8    427821.71545  23008017.524    23008018.3314   23008027.3774
        -0.000          -0.000
 -25773880.610 9 -19045115.72049  20814912.293    20814911.7874   20814919.4294
        -0.000          -0.000
  -3035245.970 9  -2111485.04246  24426342.994    24426342.2964   24426354.7194
        -0.000          -0.000
 -18339162.583 9 -13217659.21148  21984084.874    21984084.5454   21984093.0804
        -0.000          -0.000
 -23520989.016 9 -16571707.98049  20802716.658    20802716.2794   20802723.5914
        -0.000          -0.000
  -6943680.651 8  -5396650.54846  23932478.944    23932478.9804   23932491.5224
        -0.000          -0.000
 99  4 10  2 42 30.0000000  0  8  6  3 26 17 22 21 23 29            -0.000000035
  -4252205.417 9  -3301470.38246  22979107.841    22979107.7444   22979116.6694
        -0.000          -0.000
 -13677253.964 9 -10074230.37547  22787839.547    22787839.1984   22787848.6544
        -0.000          -0.000
    658370.289 8    491623.62745  23023598.878    23023599.6224   23023608.7254
        -0.000          -0.000
 -25762546.598 9 -19036283.99849  20817068.976    20817068.4944   20817076.1654
        -0.000          -0.000
  -2974695.718 9  -2064303.08846  24437864.837    24437864.2194   24437877.0874
        -0.000          -0.000
 -18384691.194 9 -13253135.97948  21975421.069    21975420.6634   21975429.1614
        -0.000          -0.000
 -23502947.174 9 -16557649.37849  20806149.847    20806149.5024   20806156.7554
        -0.000          -0.000
  -7051201.395 8  -5480432.66046  23912018.444    23912018.3654   23912030.5624
        -0.000          -0.000
 99  4 10  2 43  0.0000000  0  8  6  3 26 17 22 21 23 29            -0.000000008
  -4147327.919 9  -3219747.66546  22999065.501    22999065.4884   22999074.2904
        -0.000          -0.000
 -13758001.194 9 -10137150.19747  22772473.865    22772473.5754   22772482.9834
        -0.000          -0.000
    740650.993 8    555738.47145  23039257.027    23039257.6134   23039266.3474
        -0.000          -0.000
 -25750986.464 9 -19027276.08149  20819268.831    20819268.3404   20819276.0784
        -0.000          -0.000
  -2914004.442 8  -2017011.29245  24449413.443    24449412.9744   24449426.4054
        -0.000          -0.000
 -18430005.484 9 -13288445.74848  21966797.958    21966797.5734   21966806.1244
        -0.000          -0.000
 -23484674.770 9 -16543411.10149  20809626.991    20809626.6954   20809633.7644
        -0.000          -0.000
  -7158647.874 9  -5564156.89946  23891571.811    23891571.7594   23891583.6254
        -0.000          -0.000
 99  4 10  2 43 30.0000000  0  8  6  3 26 17 22 21 23 29             0.000000021
  -4042235.338 9  -3137857.37146  23019064.193    23019064.1834   23019072.9304
        -0.000          -0.000
 -13838410.175 9 -10199806.47747  22757172.581    22757172.2784   22757181.4604
        -0.000          -0.000
    823335.709 7    620168.15745  23054991.253    23054991.9324   23055000.7204
        -0.000          -0.000
 -25739181.277 9 -19018077.21849  20821515.431    20821514.9154   20821522.6324
        -0.000          -0.000
  -2853169.735 9  -1969607.70145  24460989.818    24460989.3194   24461002.8444
        -0.000          -0.000
 -18475085.059 9 -13323572.62048  21958219.541    21958219.2014   21958227.7394
        -0.000          -0.000
 -23466178.098 9 -16528998.07249  20813146.882    20813146.5684   20813153.4614
        -0.000          -0.000
  -7266033.992 9  -5647834.10746  23871136.718    23871136.8364   23871148.1734
        -0.000          -0.000
 99  4 10  2 44  0.0000000  0  8  6  3 26 17 22 21 23 29             0.000000036
  -3936932.736 9  -3055803.40746  23039102.550    23039102.5424   23039111.3424
        -0.000          -0.000
 -13918512.183 9 -10262223.52947  22741929.580    22741929.3414   22741938.3474
        -0.000          -0.000
    906403.47017    684896.29454  23070798.537    23070798.1515          0.0005
        -0.000          -0.000
 -25727135.110 9 -19008690.56249  20823807.881    20823807.3484   20823814.8374
        -0.000          -0.000
  -2792218.578 9  -1922113.40046  24472588.607    24472588.0804   24472601.4474
        -0.000          -0.000
 -18519943.780 9 -13358527.39048  21949683.186    21949682.7814   21949691.2984
        -0.000          -0.000
 -23447485.764 9 -16514432.58649  20816703.982    20816703.6264   20816710.5114
        -0.000          -0.000
  -7373383.311 9  -5731482.66046  23850708.602    23850708.7684   23850719.7794
        -0.000          -0.000
 99  4 10  2 44 30.0000000  0  8  6  3 26 17 22 21 23 29             0.000000044
  -3831403.672 9  -2973573.00146  23059183.639    23059183.7394   23059192.7024
        -0.000          -0.000
 -13998265.772 9 -10324369.10147  22726752.900    22726752.6664   22726761.5434
        -0.000          -0.000
    989863.57816    749930.18853         0.000           0.0005          0.0005
        -0.000          -0.000
 -25714809.630 9 -18999086.24149  20826153.289    20826152.7854   20826160.0574
        -0.000          -0.000
  -2731120.459 9  -1874504.55246  24484215.250    24484214.7904   24484228.0974
        -0.000          -0.000
 -18564553.802 9 -13393288.37448  21941193.906    21941193.6284   21941202.1344
        -0.000          -0.000
 -23428550.240 9 -16499677.60249  20820307.374    20820307.0114   20820313.9044
        -0.000          -0.000
  -7480673.821 9  -5815085.38546  23830291.634    23830291.7734   23830302.5794
        -0.000          -0.000
 99  4 10  2 45  0.0000000  0  8  6  3 26 17 22 21 23 29             0.000000040
  -3725640.425 9  -2891160.11946  23079309.636    23079309.8164   23079318.7034
        -0.000          -0.000
 -14077656.127 9 -10386231.62447  22711645.316    22711645.0854   22711654.0044
        -0.000          -0.000
   1073694.79316    815253.26053         0.000           0.0005          0.0005
        -0.000          -0.000
 -25702203.766 9 -18989263.45349  20828551.975    20828551.4544   20828558.8074
        -0.000          -0.000
  -2669869.135 9  -1826776.33346  24495871.039    24495870.5814   24495883.9024
        -0.000          -0.000
 -18608905.622 9 -13427848.16848  21932753.902    21932753.6214   21932762.1674
        -0.000          -0.000
 -23409356.345 9 -16484721.29549  20823959.924    20823959.4734   20823966.4234
        -0.000          -0.000
  -7587914.622 9  -5898649.37446  23809883.944    23809884.1714   23809895.1774
        -0.000          -0.000
